<?xml version="1.0" encoding="UTF-8" standalone="no" ?>
<gpx xmlns="http://www.topografix.com/GPX/1/1" xmlns:xsi="http://www.w3.org/2001/XMLSchema-instance" xsi:schemaLocation="http://www.topografix.com/GPX/1/1 http://www.topografix.com/GPX/1/1/gpx.xsd" version="1.1" creator="VisuGPX - https://www.visugpx.com">
  <metadata>
    <name>randi_saint-ours</name>
    <desc><![CDATA[randonnée de la fromagerie de Saint Ours parcours 25 km ]]></desc>
  </metadata>
  <trk>
    <name><![CDATA[001-2009/07/05-09:26:42]]></name>
    <trkseg>
      <trkpt lat="45.74768" lon="5.98678">
        <ele>483</ele>
        <time>2009-07-05T07:26:42Z</time>
      </trkpt>
      <trkpt lat="45.74761" lon="5.98637">
        <ele>491</ele>
        <time>2009-07-05T07:30:38Z</time>
      </trkpt>
      <trkpt lat="45.74762" lon="5.98612">
        <ele>491</ele>
        <time>2009-07-05T07:30:43Z</time>
      </trkpt>
      <trkpt lat="45.74766" lon="5.98581">
        <ele>491</ele>
        <time>2009-07-05T07:30:48Z</time>
      </trkpt>
      <trkpt lat="45.74768" lon="5.98553">
        <ele>491</ele>
        <time>2009-07-05T07:30:53Z</time>
      </trkpt>
      <trkpt lat="45.74772" lon="5.98533">
        <ele>491</ele>
        <time>2009-07-05T07:30:58Z</time>
      </trkpt>
      <trkpt lat="45.74773" lon="5.98516">
        <ele>491</ele>
        <time>2009-07-05T07:31:03Z</time>
      </trkpt>
      <trkpt lat="45.74774" lon="5.98499">
        <ele>491</ele>
        <time>2009-07-05T07:31:08Z</time>
      </trkpt>
      <trkpt lat="45.74774" lon="5.98481">
        <ele>491</ele>
        <time>2009-07-05T07:31:13Z</time>
      </trkpt>
      <trkpt lat="45.74776" lon="5.98459">
        <ele>491</ele>
        <time>2009-07-05T07:31:18Z</time>
      </trkpt>
      <trkpt lat="45.74777" lon="5.98437">
        <ele>491</ele>
        <time>2009-07-05T07:31:23Z</time>
      </trkpt>
      <trkpt lat="45.74778" lon="5.98413">
        <ele>491</ele>
        <time>2009-07-05T07:31:28Z</time>
      </trkpt>
      <trkpt lat="45.7478" lon="5.98389">
        <ele>491</ele>
        <time>2009-07-05T07:31:33Z</time>
      </trkpt>
      <trkpt lat="45.74783" lon="5.98364">
        <ele>491</ele>
        <time>2009-07-05T07:31:38Z</time>
      </trkpt>
      <trkpt lat="45.74785" lon="5.98339">
        <ele>491</ele>
        <time>2009-07-05T07:31:43Z</time>
      </trkpt>
      <trkpt lat="45.74786" lon="5.98317">
        <ele>491</ele>
        <time>2009-07-05T07:31:48Z</time>
      </trkpt>
      <trkpt lat="45.7479" lon="5.98297">
        <ele>491</ele>
        <time>2009-07-05T07:31:53Z</time>
      </trkpt>
      <trkpt lat="45.74795" lon="5.98275">
        <ele>491</ele>
        <time>2009-07-05T07:31:58Z</time>
      </trkpt>
      <trkpt lat="45.748" lon="5.98251">
        <ele>491</ele>
        <time>2009-07-05T07:32:03Z</time>
      </trkpt>
      <trkpt lat="45.74806" lon="5.98226">
        <ele>491</ele>
        <time>2009-07-05T07:32:08Z</time>
      </trkpt>
      <trkpt lat="45.7482" lon="5.98215">
        <ele>491</ele>
        <time>2009-07-05T07:32:13Z</time>
      </trkpt>
      <trkpt lat="45.74838" lon="5.98223">
        <ele>491</ele>
        <time>2009-07-05T07:32:18Z</time>
      </trkpt>
      <trkpt lat="45.74856" lon="5.98231">
        <ele>491</ele>
        <time>2009-07-05T07:32:23Z</time>
      </trkpt>
      <trkpt lat="45.74872" lon="5.98238">
        <ele>491</ele>
        <time>2009-07-05T07:32:28Z</time>
      </trkpt>
      <trkpt lat="45.74886" lon="5.98245">
        <ele>491</ele>
        <time>2009-07-05T07:32:33Z</time>
      </trkpt>
      <trkpt lat="45.74899" lon="5.9825">
        <ele>491</ele>
        <time>2009-07-05T07:32:38Z</time>
      </trkpt>
      <trkpt lat="45.74911" lon="5.98255">
        <ele>491</ele>
        <time>2009-07-05T07:32:43Z</time>
      </trkpt>
      <trkpt lat="45.74923" lon="5.98257">
        <ele>491</ele>
        <time>2009-07-05T07:32:48Z</time>
      </trkpt>
      <trkpt lat="45.74934" lon="5.98262">
        <ele>491</ele>
        <time>2009-07-05T07:32:53Z</time>
      </trkpt>
      <trkpt lat="45.74946" lon="5.98268">
        <ele>491</ele>
        <time>2009-07-05T07:32:58Z</time>
      </trkpt>
      <trkpt lat="45.74959" lon="5.98274">
        <ele>491</ele>
        <time>2009-07-05T07:33:03Z</time>
      </trkpt>
      <trkpt lat="45.74972" lon="5.9828">
        <ele>491</ele>
        <time>2009-07-05T07:33:08Z</time>
      </trkpt>
      <trkpt lat="45.74985" lon="5.98286">
        <ele>491</ele>
        <time>2009-07-05T07:33:13Z</time>
      </trkpt>
      <trkpt lat="45.74997" lon="5.98293">
        <ele>491</ele>
        <time>2009-07-05T07:33:18Z</time>
      </trkpt>
      <trkpt lat="45.75007" lon="5.98297">
        <ele>491</ele>
        <time>2009-07-05T07:33:23Z</time>
      </trkpt>
      <trkpt lat="45.75017" lon="5.98304">
        <ele>491</ele>
        <time>2009-07-05T07:33:28Z</time>
      </trkpt>
      <trkpt lat="45.75029" lon="5.98308">
        <ele>491</ele>
        <time>2009-07-05T07:33:33Z</time>
      </trkpt>
      <trkpt lat="45.75042" lon="5.98312">
        <ele>491</ele>
        <time>2009-07-05T07:33:38Z</time>
      </trkpt>
      <trkpt lat="45.75055" lon="5.98315">
        <ele>491</ele>
        <time>2009-07-05T07:33:43Z</time>
      </trkpt>
      <trkpt lat="45.75068" lon="5.98316">
        <ele>491</ele>
        <time>2009-07-05T07:33:48Z</time>
      </trkpt>
      <trkpt lat="45.75083" lon="5.98318">
        <ele>491</ele>
        <time>2009-07-05T07:33:53Z</time>
      </trkpt>
      <trkpt lat="45.75096" lon="5.9832">
        <ele>492</ele>
        <time>2009-07-05T07:33:58Z</time>
      </trkpt>
      <trkpt lat="45.75103" lon="5.98325">
        <ele>493</ele>
        <time>2009-07-05T07:34:03Z</time>
      </trkpt>
      <trkpt lat="45.75096" lon="5.9833">
        <ele>493</ele>
        <time>2009-07-05T07:34:08Z</time>
      </trkpt>
      <trkpt lat="45.75091" lon="5.98336">
        <ele>494</ele>
        <time>2009-07-05T07:34:13Z</time>
      </trkpt>
      <trkpt lat="45.75087" lon="5.98342">
        <ele>496</ele>
        <time>2009-07-05T07:34:18Z</time>
      </trkpt>
      <trkpt lat="45.75081" lon="5.9835">
        <ele>497</ele>
        <time>2009-07-05T07:34:23Z</time>
      </trkpt>
      <trkpt lat="45.75075" lon="5.98359">
        <ele>498</ele>
        <time>2009-07-05T07:34:28Z</time>
      </trkpt>
      <trkpt lat="45.75067" lon="5.98369">
        <ele>499</ele>
        <time>2009-07-05T07:34:33Z</time>
      </trkpt>
      <trkpt lat="45.75059" lon="5.98377">
        <ele>499</ele>
        <time>2009-07-05T07:34:38Z</time>
      </trkpt>
      <trkpt lat="45.75052" lon="5.98393">
        <ele>503</ele>
        <time>2009-07-05T07:34:43Z</time>
      </trkpt>
      <trkpt lat="45.75043" lon="5.98408">
        <ele>506</ele>
        <time>2009-07-05T07:34:48Z</time>
      </trkpt>
      <trkpt lat="45.75038" lon="5.98424">
        <ele>510</ele>
        <time>2009-07-05T07:34:53Z</time>
      </trkpt>
      <trkpt lat="45.75035" lon="5.9844">
        <ele>512</ele>
        <time>2009-07-05T07:34:58Z</time>
      </trkpt>
      <trkpt lat="45.75031" lon="5.98456">
        <ele>513</ele>
        <time>2009-07-05T07:35:03Z</time>
      </trkpt>
      <trkpt lat="45.75027" lon="5.98472">
        <ele>513</ele>
        <time>2009-07-05T07:35:08Z</time>
      </trkpt>
      <trkpt lat="45.75022" lon="5.98489">
        <ele>513</ele>
        <time>2009-07-05T07:35:13Z</time>
      </trkpt>
      <trkpt lat="45.75016" lon="5.98506">
        <ele>513</ele>
        <time>2009-07-05T07:35:18Z</time>
      </trkpt>
      <trkpt lat="45.7501" lon="5.98525">
        <ele>514</ele>
        <time>2009-07-05T07:35:23Z</time>
      </trkpt>
      <trkpt lat="45.75004" lon="5.98542">
        <ele>515</ele>
        <time>2009-07-05T07:35:28Z</time>
      </trkpt>
      <trkpt lat="45.75" lon="5.98555">
        <ele>516</ele>
        <time>2009-07-05T07:35:34Z</time>
      </trkpt>
      <trkpt lat="45.74994" lon="5.98568">
        <ele>516</ele>
        <time>2009-07-05T07:35:39Z</time>
      </trkpt>
      <trkpt lat="45.7499" lon="5.98582">
        <ele>517</ele>
        <time>2009-07-05T07:35:44Z</time>
      </trkpt>
      <trkpt lat="45.74988" lon="5.98595">
        <ele>518</ele>
        <time>2009-07-05T07:35:49Z</time>
      </trkpt>
      <trkpt lat="45.74991" lon="5.98608">
        <ele>519</ele>
        <time>2009-07-05T07:35:54Z</time>
      </trkpt>
      <trkpt lat="45.74997" lon="5.98625">
        <ele>520</ele>
        <time>2009-07-05T07:36:00Z</time>
      </trkpt>
      <trkpt lat="45.75004" lon="5.98641">
        <ele>520</ele>
        <time>2009-07-05T07:36:06Z</time>
      </trkpt>
      <trkpt lat="45.75007" lon="5.98651">
        <ele>520</ele>
        <time>2009-07-05T07:36:12Z</time>
      </trkpt>
      <trkpt lat="45.75011" lon="5.98659">
        <ele>520</ele>
        <time>2009-07-05T07:36:17Z</time>
      </trkpt>
      <trkpt lat="45.75017" lon="5.98666">
        <ele>516</ele>
        <time>2009-07-05T07:36:23Z</time>
      </trkpt>
      <trkpt lat="45.7502" lon="5.98672">
        <ele>516</ele>
        <time>2009-07-05T07:36:28Z</time>
      </trkpt>
      <trkpt lat="45.75024" lon="5.9868">
        <ele>516</ele>
        <time>2009-07-05T07:36:34Z</time>
      </trkpt>
      <trkpt lat="45.7503" lon="5.98687">
        <ele>516</ele>
        <time>2009-07-05T07:36:40Z</time>
      </trkpt>
      <trkpt lat="45.75036" lon="5.98692">
        <ele>516</ele>
        <time>2009-07-05T07:36:45Z</time>
      </trkpt>
      <trkpt lat="45.75043" lon="5.98697">
        <ele>516</ele>
        <time>2009-07-05T07:36:50Z</time>
      </trkpt>
      <trkpt lat="45.75048" lon="5.987">
        <ele>516</ele>
        <time>2009-07-05T07:36:57Z</time>
      </trkpt>
      <trkpt lat="45.75055" lon="5.98705">
        <ele>512</ele>
        <time>2009-07-05T07:37:03Z</time>
      </trkpt>
      <trkpt lat="45.75058" lon="5.98702">
        <ele>507</ele>
        <time>2009-07-05T07:37:08Z</time>
      </trkpt>
      <trkpt lat="45.75061" lon="5.98703">
        <ele>501</ele>
        <time>2009-07-05T07:37:13Z</time>
      </trkpt>
      <trkpt lat="45.75065" lon="5.98709">
        <ele>497</ele>
        <time>2009-07-05T07:37:20Z</time>
      </trkpt>
      <trkpt lat="45.75068" lon="5.98712">
        <ele>499</ele>
        <time>2009-07-05T07:37:26Z</time>
      </trkpt>
      <trkpt lat="45.75069" lon="5.98711">
        <ele>503</ele>
        <time>2009-07-05T07:37:33Z</time>
      </trkpt>
      <trkpt lat="45.75069" lon="5.98709">
        <ele>510</ele>
        <time>2009-07-05T07:37:40Z</time>
      </trkpt>
      <trkpt lat="45.7507" lon="5.98708">
        <ele>517</ele>
        <time>2009-07-05T07:37:49Z</time>
      </trkpt>
      <trkpt lat="45.75068" lon="5.98709">
        <ele>522</ele>
        <time>2009-07-05T07:38:08Z</time>
      </trkpt>
      <trkpt lat="45.75073" lon="5.9872">
        <ele>522</ele>
        <time>2009-07-05T07:38:14Z</time>
      </trkpt>
      <trkpt lat="45.75079" lon="5.98727">
        <ele>520</ele>
        <time>2009-07-05T07:38:19Z</time>
      </trkpt>
      <trkpt lat="45.75085" lon="5.98737">
        <ele>519</ele>
        <time>2009-07-05T07:38:25Z</time>
      </trkpt>
      <trkpt lat="45.7509" lon="5.98743">
        <ele>519</ele>
        <time>2009-07-05T07:38:30Z</time>
      </trkpt>
      <trkpt lat="45.75097" lon="5.98752">
        <ele>519</ele>
        <time>2009-07-05T07:38:36Z</time>
      </trkpt>
      <trkpt lat="45.75104" lon="5.98758">
        <ele>519</ele>
        <time>2009-07-05T07:38:41Z</time>
      </trkpt>
      <trkpt lat="45.75112" lon="5.98762">
        <ele>519</ele>
        <time>2009-07-05T07:38:46Z</time>
      </trkpt>
      <trkpt lat="45.7512" lon="5.98767">
        <ele>519</ele>
        <time>2009-07-05T07:38:51Z</time>
      </trkpt>
      <trkpt lat="45.75129" lon="5.98766">
        <ele>519</ele>
        <time>2009-07-05T07:38:56Z</time>
      </trkpt>
      <trkpt lat="45.7514" lon="5.98766">
        <ele>521</ele>
        <time>2009-07-05T07:39:02Z</time>
      </trkpt>
      <trkpt lat="45.75151" lon="5.98767">
        <ele>522</ele>
        <time>2009-07-05T07:39:07Z</time>
      </trkpt>
      <trkpt lat="45.75158" lon="5.98773">
        <ele>524</ele>
        <time>2009-07-05T07:39:12Z</time>
      </trkpt>
      <trkpt lat="45.75156" lon="5.98783">
        <ele>526</ele>
        <time>2009-07-05T07:39:18Z</time>
      </trkpt>
      <trkpt lat="45.75153" lon="5.9879">
        <ele>528</ele>
        <time>2009-07-05T07:39:23Z</time>
      </trkpt>
      <trkpt lat="45.75151" lon="5.98799">
        <ele>528</ele>
        <time>2009-07-05T07:39:28Z</time>
      </trkpt>
      <trkpt lat="45.75149" lon="5.98809">
        <ele>529</ele>
        <time>2009-07-05T07:39:33Z</time>
      </trkpt>
      <trkpt lat="45.75147" lon="5.98819">
        <ele>529</ele>
        <time>2009-07-05T07:39:38Z</time>
      </trkpt>
      <trkpt lat="45.75144" lon="5.98829">
        <ele>530</ele>
        <time>2009-07-05T07:39:43Z</time>
      </trkpt>
      <trkpt lat="45.75143" lon="5.98843">
        <ele>531</ele>
        <time>2009-07-05T07:39:49Z</time>
      </trkpt>
      <trkpt lat="45.75148" lon="5.98852">
        <ele>532</ele>
        <time>2009-07-05T07:39:54Z</time>
      </trkpt>
      <trkpt lat="45.75155" lon="5.98859">
        <ele>532</ele>
        <time>2009-07-05T07:39:59Z</time>
      </trkpt>
      <trkpt lat="45.75161" lon="5.98868">
        <ele>533</ele>
        <time>2009-07-05T07:40:05Z</time>
      </trkpt>
      <trkpt lat="45.75164" lon="5.98878">
        <ele>535</ele>
        <time>2009-07-05T07:40:10Z</time>
      </trkpt>
      <trkpt lat="45.75162" lon="5.9889">
        <ele>537</ele>
        <time>2009-07-05T07:40:15Z</time>
      </trkpt>
      <trkpt lat="45.75159" lon="5.989">
        <ele>539</ele>
        <time>2009-07-05T07:40:20Z</time>
      </trkpt>
      <trkpt lat="45.75156" lon="5.98909">
        <ele>540</ele>
        <time>2009-07-05T07:40:25Z</time>
      </trkpt>
      <trkpt lat="45.75152" lon="5.9892">
        <ele>541</ele>
        <time>2009-07-05T07:40:30Z</time>
      </trkpt>
      <trkpt lat="45.75147" lon="5.98933">
        <ele>541</ele>
        <time>2009-07-05T07:40:35Z</time>
      </trkpt>
      <trkpt lat="45.75142" lon="5.98945">
        <ele>541</ele>
        <time>2009-07-05T07:40:40Z</time>
      </trkpt>
      <trkpt lat="45.75139" lon="5.98958">
        <ele>542</ele>
        <time>2009-07-05T07:40:45Z</time>
      </trkpt>
      <trkpt lat="45.75135" lon="5.98969">
        <ele>542</ele>
        <time>2009-07-05T07:40:50Z</time>
      </trkpt>
      <trkpt lat="45.7513" lon="5.98981">
        <ele>543</ele>
        <time>2009-07-05T07:40:55Z</time>
      </trkpt>
      <trkpt lat="45.75125" lon="5.98993">
        <ele>543</ele>
        <time>2009-07-05T07:41:00Z</time>
      </trkpt>
      <trkpt lat="45.7512" lon="5.99004">
        <ele>543</ele>
        <time>2009-07-05T07:41:05Z</time>
      </trkpt>
      <trkpt lat="45.75114" lon="5.99016">
        <ele>543</ele>
        <time>2009-07-05T07:41:10Z</time>
      </trkpt>
      <trkpt lat="45.75109" lon="5.99028">
        <ele>543</ele>
        <time>2009-07-05T07:41:15Z</time>
      </trkpt>
      <trkpt lat="45.75114" lon="5.99034">
        <ele>543</ele>
        <time>2009-07-05T07:41:20Z</time>
      </trkpt>
      <trkpt lat="45.75119" lon="5.99041">
        <ele>543</ele>
        <time>2009-07-05T07:41:25Z</time>
      </trkpt>
      <trkpt lat="45.75127" lon="5.99048">
        <ele>543</ele>
        <time>2009-07-05T07:41:30Z</time>
      </trkpt>
      <trkpt lat="45.75136" lon="5.99056">
        <ele>543</ele>
        <time>2009-07-05T07:41:35Z</time>
      </trkpt>
      <trkpt lat="45.75144" lon="5.99064">
        <ele>543</ele>
        <time>2009-07-05T07:41:40Z</time>
      </trkpt>
      <trkpt lat="45.75153" lon="5.99073">
        <ele>545</ele>
        <time>2009-07-05T07:41:45Z</time>
      </trkpt>
      <trkpt lat="45.7516" lon="5.99076">
        <ele>547</ele>
        <time>2009-07-05T07:41:50Z</time>
      </trkpt>
      <trkpt lat="45.75167" lon="5.99075">
        <ele>548</ele>
        <time>2009-07-05T07:41:55Z</time>
      </trkpt>
      <trkpt lat="45.75174" lon="5.99073">
        <ele>549</ele>
        <time>2009-07-05T07:42:00Z</time>
      </trkpt>
      <trkpt lat="45.75182" lon="5.99071">
        <ele>550</ele>
        <time>2009-07-05T07:42:05Z</time>
      </trkpt>
      <trkpt lat="45.75189" lon="5.99069">
        <ele>551</ele>
        <time>2009-07-05T07:42:10Z</time>
      </trkpt>
      <trkpt lat="45.75196" lon="5.99067">
        <ele>553</ele>
        <time>2009-07-05T07:42:15Z</time>
      </trkpt>
      <trkpt lat="45.75204" lon="5.99061">
        <ele>554</ele>
        <time>2009-07-05T07:42:20Z</time>
      </trkpt>
      <trkpt lat="45.75208" lon="5.99052">
        <ele>555</ele>
        <time>2009-07-05T07:42:25Z</time>
      </trkpt>
      <trkpt lat="45.7521" lon="5.99043">
        <ele>556</ele>
        <time>2009-07-05T07:42:30Z</time>
      </trkpt>
      <trkpt lat="45.75211" lon="5.99032">
        <ele>556</ele>
        <time>2009-07-05T07:42:35Z</time>
      </trkpt>
      <trkpt lat="45.75214" lon="5.99024">
        <ele>556</ele>
        <time>2009-07-05T07:42:40Z</time>
      </trkpt>
      <trkpt lat="45.75215" lon="5.99015">
        <ele>557</ele>
        <time>2009-07-05T07:42:45Z</time>
      </trkpt>
      <trkpt lat="45.75217" lon="5.99006">
        <ele>557</ele>
        <time>2009-07-05T07:42:50Z</time>
      </trkpt>
      <trkpt lat="45.7522" lon="5.98997">
        <ele>557</ele>
        <time>2009-07-05T07:42:55Z</time>
      </trkpt>
      <trkpt lat="45.75221" lon="5.98989">
        <ele>558</ele>
        <time>2009-07-05T07:43:00Z</time>
      </trkpt>
      <trkpt lat="45.75224" lon="5.9898">
        <ele>558</ele>
        <time>2009-07-05T07:43:05Z</time>
      </trkpt>
      <trkpt lat="45.75225" lon="5.98971">
        <ele>558</ele>
        <time>2009-07-05T07:43:10Z</time>
      </trkpt>
      <trkpt lat="45.75226" lon="5.98961">
        <ele>559</ele>
        <time>2009-07-05T07:43:15Z</time>
      </trkpt>
      <trkpt lat="45.75228" lon="5.98952">
        <ele>559</ele>
        <time>2009-07-05T07:43:20Z</time>
      </trkpt>
      <trkpt lat="45.7523" lon="5.98944">
        <ele>559</ele>
        <time>2009-07-05T07:43:25Z</time>
      </trkpt>
      <trkpt lat="45.75233" lon="5.98934">
        <ele>559</ele>
        <time>2009-07-05T07:43:30Z</time>
      </trkpt>
      <trkpt lat="45.75237" lon="5.98921">
        <ele>559</ele>
        <time>2009-07-05T07:43:35Z</time>
      </trkpt>
      <trkpt lat="45.7524" lon="5.98908">
        <ele>560</ele>
        <time>2009-07-05T07:43:40Z</time>
      </trkpt>
      <trkpt lat="45.75245" lon="5.98892">
        <ele>561</ele>
        <time>2009-07-05T07:43:45Z</time>
      </trkpt>
      <trkpt lat="45.7525" lon="5.98879">
        <ele>561</ele>
        <time>2009-07-05T07:43:50Z</time>
      </trkpt>
      <trkpt lat="45.75258" lon="5.98868">
        <ele>561</ele>
        <time>2009-07-05T07:43:55Z</time>
      </trkpt>
      <trkpt lat="45.7527" lon="5.9887">
        <ele>561</ele>
        <time>2009-07-05T07:44:00Z</time>
      </trkpt>
      <trkpt lat="45.75277" lon="5.98877">
        <ele>562</ele>
        <time>2009-07-05T07:44:05Z</time>
      </trkpt>
      <trkpt lat="45.75286" lon="5.98884">
        <ele>563</ele>
        <time>2009-07-05T07:44:10Z</time>
      </trkpt>
      <trkpt lat="45.75295" lon="5.98885">
        <ele>564</ele>
        <time>2009-07-05T07:44:15Z</time>
      </trkpt>
      <trkpt lat="45.75306" lon="5.98883">
        <ele>565</ele>
        <time>2009-07-05T07:44:20Z</time>
      </trkpt>
      <trkpt lat="45.75317" lon="5.98881">
        <ele>566</ele>
        <time>2009-07-05T07:44:25Z</time>
      </trkpt>
      <trkpt lat="45.7533" lon="5.98879">
        <ele>566</ele>
        <time>2009-07-05T07:44:30Z</time>
      </trkpt>
      <trkpt lat="45.75343" lon="5.98879">
        <ele>566</ele>
        <time>2009-07-05T07:44:35Z</time>
      </trkpt>
      <trkpt lat="45.75358" lon="5.9888">
        <ele>567</ele>
        <time>2009-07-05T07:44:40Z</time>
      </trkpt>
      <trkpt lat="45.7537" lon="5.98883">
        <ele>567</ele>
        <time>2009-07-05T07:44:45Z</time>
      </trkpt>
      <trkpt lat="45.75382" lon="5.98887">
        <ele>567</ele>
        <time>2009-07-05T07:44:50Z</time>
      </trkpt>
      <trkpt lat="45.75397" lon="5.98887">
        <ele>568</ele>
        <time>2009-07-05T07:44:55Z</time>
      </trkpt>
      <trkpt lat="45.75419" lon="5.98882">
        <ele>568</ele>
        <time>2009-07-05T07:45:00Z</time>
      </trkpt>
      <trkpt lat="45.75441" lon="5.98888">
        <ele>568</ele>
        <time>2009-07-05T07:45:05Z</time>
      </trkpt>
      <trkpt lat="45.75463" lon="5.98892">
        <ele>569</ele>
        <time>2009-07-05T07:45:10Z</time>
      </trkpt>
      <trkpt lat="45.75481" lon="5.98892">
        <ele>570</ele>
        <time>2009-07-05T07:45:15Z</time>
      </trkpt>
      <trkpt lat="45.75502" lon="5.98893">
        <ele>570</ele>
        <time>2009-07-05T07:45:20Z</time>
      </trkpt>
      <trkpt lat="45.7552" lon="5.98894">
        <ele>570</ele>
        <time>2009-07-05T07:45:25Z</time>
      </trkpt>
      <trkpt lat="45.75526" lon="5.98892">
        <ele>571</ele>
        <time>2009-07-05T07:45:34Z</time>
      </trkpt>
      <trkpt lat="45.75528" lon="5.9889">
        <ele>571</ele>
        <time>2009-07-05T07:45:43Z</time>
      </trkpt>
      <trkpt lat="45.75529" lon="5.9889">
        <ele>571</ele>
        <time>2009-07-05T07:45:51Z</time>
      </trkpt>
      <trkpt lat="45.75528" lon="5.98889">
        <ele>571</ele>
        <time>2009-07-05T07:46:02Z</time>
      </trkpt>
      <trkpt lat="45.7553" lon="5.9889">
        <ele>571</ele>
        <time>2009-07-05T07:46:09Z</time>
      </trkpt>
      <trkpt lat="45.7554" lon="5.98889">
        <ele>571</ele>
        <time>2009-07-05T07:46:14Z</time>
      </trkpt>
      <trkpt lat="45.75555" lon="5.98888">
        <ele>572</ele>
        <time>2009-07-05T07:46:19Z</time>
      </trkpt>
      <trkpt lat="45.75573" lon="5.98889">
        <ele>573</ele>
        <time>2009-07-05T07:46:24Z</time>
      </trkpt>
      <trkpt lat="45.75591" lon="5.98893">
        <ele>574</ele>
        <time>2009-07-05T07:46:29Z</time>
      </trkpt>
      <trkpt lat="45.75604" lon="5.98894">
        <ele>574</ele>
        <time>2009-07-05T07:46:35Z</time>
      </trkpt>
      <trkpt lat="45.75606" lon="5.98892">
        <ele>574</ele>
        <time>2009-07-05T07:46:40Z</time>
      </trkpt>
      <trkpt lat="45.75614" lon="5.98885">
        <ele>575</ele>
        <time>2009-07-05T07:46:45Z</time>
      </trkpt>
      <trkpt lat="45.75631" lon="5.98877">
        <ele>575</ele>
        <time>2009-07-05T07:46:51Z</time>
      </trkpt>
      <trkpt lat="45.75641" lon="5.98865">
        <ele>575</ele>
        <time>2009-07-05T07:46:56Z</time>
      </trkpt>
      <trkpt lat="45.75641" lon="5.98843">
        <ele>576</ele>
        <time>2009-07-05T07:47:01Z</time>
      </trkpt>
      <trkpt lat="45.75632" lon="5.98813">
        <ele>576</ele>
        <time>2009-07-05T07:47:06Z</time>
      </trkpt>
      <trkpt lat="45.75623" lon="5.98781">
        <ele>576</ele>
        <time>2009-07-05T07:47:11Z</time>
      </trkpt>
      <trkpt lat="45.75616" lon="5.98751">
        <ele>575</ele>
        <time>2009-07-05T07:47:16Z</time>
      </trkpt>
      <trkpt lat="45.75619" lon="5.98738">
        <ele>574</ele>
        <time>2009-07-05T07:47:21Z</time>
      </trkpt>
      <trkpt lat="45.75622" lon="5.98733">
        <ele>573</ele>
        <time>2009-07-05T07:47:32Z</time>
      </trkpt>
      <trkpt lat="45.75622" lon="5.98727">
        <ele>573</ele>
        <time>2009-07-05T07:47:38Z</time>
      </trkpt>
      <trkpt lat="45.75625" lon="5.98722">
        <ele>573</ele>
        <time>2009-07-05T07:47:47Z</time>
      </trkpt>
      <trkpt lat="45.75625" lon="5.9872">
        <ele>572</ele>
        <time>2009-07-05T07:47:59Z</time>
      </trkpt>
      <trkpt lat="45.75621" lon="5.98722">
        <ele>572</ele>
        <time>2009-07-05T07:48:08Z</time>
      </trkpt>
      <trkpt lat="45.7562" lon="5.9872">
        <ele>572</ele>
        <time>2009-07-05T07:48:13Z</time>
      </trkpt>
      <trkpt lat="45.7562" lon="5.98718">
        <ele>572</ele>
        <time>2009-07-05T07:48:19Z</time>
      </trkpt>
      <trkpt lat="45.75619" lon="5.98718">
        <ele>572</ele>
        <time>2009-07-05T07:48:36Z</time>
      </trkpt>
      <trkpt lat="45.75617" lon="5.98718">
        <ele>572</ele>
        <time>2009-07-05T07:48:43Z</time>
      </trkpt>
      <trkpt lat="45.75616" lon="5.98718">
        <ele>572</ele>
        <time>2009-07-05T07:48:48Z</time>
      </trkpt>
      <trkpt lat="45.75615" lon="5.98717">
        <ele>572</ele>
        <time>2009-07-05T07:48:57Z</time>
      </trkpt>
      <trkpt lat="45.75614" lon="5.98717">
        <ele>572</ele>
        <time>2009-07-05T07:49:11Z</time>
      </trkpt>
      <trkpt lat="45.75616" lon="5.9872">
        <ele>572</ele>
        <time>2009-07-05T07:49:16Z</time>
      </trkpt>
      <trkpt lat="45.75617" lon="5.98723">
        <ele>572</ele>
        <time>2009-07-05T07:49:22Z</time>
      </trkpt>
      <trkpt lat="45.7562" lon="5.98724">
        <ele>572</ele>
        <time>2009-07-05T07:49:31Z</time>
      </trkpt>
      <trkpt lat="45.7562" lon="5.98722">
        <ele>574</ele>
        <time>2009-07-05T07:49:45Z</time>
      </trkpt>
      <trkpt lat="45.7562" lon="5.98721">
        <ele>574</ele>
        <time>2009-07-05T07:49:55Z</time>
      </trkpt>
      <trkpt lat="45.75621" lon="5.98721">
        <ele>574</ele>
        <time>2009-07-05T07:50:05Z</time>
      </trkpt>
      <trkpt lat="45.75622" lon="5.9872">
        <ele>574</ele>
        <time>2009-07-05T07:50:11Z</time>
      </trkpt>
      <trkpt lat="45.75622" lon="5.98719">
        <ele>574</ele>
        <time>2009-07-05T07:50:29Z</time>
      </trkpt>
      <trkpt lat="45.75621" lon="5.98719">
        <ele>574</ele>
        <time>2009-07-05T07:50:39Z</time>
      </trkpt>
      <trkpt lat="45.7562" lon="5.98717">
        <ele>574</ele>
        <time>2009-07-05T07:50:47Z</time>
      </trkpt>
      <trkpt lat="45.7562" lon="5.98716">
        <ele>574</ele>
        <time>2009-07-05T07:50:56Z</time>
      </trkpt>
      <trkpt lat="45.75619" lon="5.98717">
        <ele>574</ele>
        <time>2009-07-05T07:51:04Z</time>
      </trkpt>
      <trkpt lat="45.75617" lon="5.98722">
        <ele>577</ele>
        <time>2009-07-05T07:51:10Z</time>
      </trkpt>
      <trkpt lat="45.75615" lon="5.98727">
        <ele>578</ele>
        <time>2009-07-05T07:51:26Z</time>
      </trkpt>
      <trkpt lat="45.75617" lon="5.98732">
        <ele>578</ele>
        <time>2009-07-05T07:51:31Z</time>
      </trkpt>
      <trkpt lat="45.75617" lon="5.98737">
        <ele>578</ele>
        <time>2009-07-05T07:51:37Z</time>
      </trkpt>
      <trkpt lat="45.7562" lon="5.98735">
        <ele>578</ele>
        <time>2009-07-05T07:51:43Z</time>
      </trkpt>
      <trkpt lat="45.75622" lon="5.98732">
        <ele>578</ele>
        <time>2009-07-05T07:51:48Z</time>
      </trkpt>
      <trkpt lat="45.75623" lon="5.98724">
        <ele>577</ele>
        <time>2009-07-05T07:51:54Z</time>
      </trkpt>
      <trkpt lat="45.75626" lon="5.98723">
        <ele>576</ele>
        <time>2009-07-05T07:52:00Z</time>
      </trkpt>
      <trkpt lat="45.7563" lon="5.98723">
        <ele>576</ele>
        <time>2009-07-05T07:52:05Z</time>
      </trkpt>
      <trkpt lat="45.75633" lon="5.98725">
        <ele>576</ele>
        <time>2009-07-05T07:52:11Z</time>
      </trkpt>
      <trkpt lat="45.75639" lon="5.9873">
        <ele>576</ele>
        <time>2009-07-05T07:52:16Z</time>
      </trkpt>
      <trkpt lat="45.75645" lon="5.98736">
        <ele>576</ele>
        <time>2009-07-05T07:52:22Z</time>
      </trkpt>
      <trkpt lat="45.7565" lon="5.98737">
        <ele>576</ele>
        <time>2009-07-05T07:52:27Z</time>
      </trkpt>
      <trkpt lat="45.75659" lon="5.98732">
        <ele>576</ele>
        <time>2009-07-05T07:52:32Z</time>
      </trkpt>
      <trkpt lat="45.75671" lon="5.98719">
        <ele>575</ele>
        <time>2009-07-05T07:52:37Z</time>
      </trkpt>
      <trkpt lat="45.75695" lon="5.98714">
        <ele>574</ele>
        <time>2009-07-05T07:52:43Z</time>
      </trkpt>
      <trkpt lat="45.75709" lon="5.9872">
        <ele>574</ele>
        <time>2009-07-05T07:52:48Z</time>
      </trkpt>
      <trkpt lat="45.75721" lon="5.98715">
        <ele>574</ele>
        <time>2009-07-05T07:52:53Z</time>
      </trkpt>
      <trkpt lat="45.75736" lon="5.98716">
        <ele>574</ele>
        <time>2009-07-05T07:52:58Z</time>
      </trkpt>
      <trkpt lat="45.75754" lon="5.98716">
        <ele>574</ele>
        <time>2009-07-05T07:53:03Z</time>
      </trkpt>
      <trkpt lat="45.75776" lon="5.98719">
        <ele>573</ele>
        <time>2009-07-05T07:53:08Z</time>
      </trkpt>
      <trkpt lat="45.75803" lon="5.98722">
        <ele>572</ele>
        <time>2009-07-05T07:53:13Z</time>
      </trkpt>
      <trkpt lat="45.75828" lon="5.98724">
        <ele>570</ele>
        <time>2009-07-05T07:53:18Z</time>
      </trkpt>
      <trkpt lat="45.75845" lon="5.98732">
        <ele>569</ele>
        <time>2009-07-05T07:53:23Z</time>
      </trkpt>
      <trkpt lat="45.75855" lon="5.98754">
        <ele>567</ele>
        <time>2009-07-05T07:53:28Z</time>
      </trkpt>
      <trkpt lat="45.75872" lon="5.98747">
        <ele>567</ele>
        <time>2009-07-05T07:53:33Z</time>
      </trkpt>
      <trkpt lat="45.75895" lon="5.98737">
        <ele>567</ele>
        <time>2009-07-05T07:53:38Z</time>
      </trkpt>
      <trkpt lat="45.75916" lon="5.98728">
        <ele>567</ele>
        <time>2009-07-05T07:53:43Z</time>
      </trkpt>
      <trkpt lat="45.75934" lon="5.98719">
        <ele>567</ele>
        <time>2009-07-05T07:53:48Z</time>
      </trkpt>
      <trkpt lat="45.75953" lon="5.98701">
        <ele>567</ele>
        <time>2009-07-05T07:53:53Z</time>
      </trkpt>
      <trkpt lat="45.75961" lon="5.98666">
        <ele>567</ele>
        <time>2009-07-05T07:53:58Z</time>
      </trkpt>
      <trkpt lat="45.75967" lon="5.98625">
        <ele>567</ele>
        <time>2009-07-05T07:54:03Z</time>
      </trkpt>
      <trkpt lat="45.75978" lon="5.98581">
        <ele>567</ele>
        <time>2009-07-05T07:54:08Z</time>
      </trkpt>
      <trkpt lat="45.75997" lon="5.98546">
        <ele>567</ele>
        <time>2009-07-05T07:54:13Z</time>
      </trkpt>
      <trkpt lat="45.76015" lon="5.98514">
        <ele>567</ele>
        <time>2009-07-05T07:54:18Z</time>
      </trkpt>
      <trkpt lat="45.76032" lon="5.98476">
        <ele>567</ele>
        <time>2009-07-05T07:54:23Z</time>
      </trkpt>
      <trkpt lat="45.76036" lon="5.98425">
        <ele>565</ele>
        <time>2009-07-05T07:54:28Z</time>
      </trkpt>
      <trkpt lat="45.76062" lon="5.98388">
        <ele>562</ele>
        <time>2009-07-05T07:54:33Z</time>
      </trkpt>
      <trkpt lat="45.76099" lon="5.98382">
        <ele>559</ele>
        <time>2009-07-05T07:54:38Z</time>
      </trkpt>
      <trkpt lat="45.76111" lon="5.9834">
        <ele>556</ele>
        <time>2009-07-05T07:54:43Z</time>
      </trkpt>
      <trkpt lat="45.7612" lon="5.98305">
        <ele>556</ele>
        <time>2009-07-05T07:54:48Z</time>
      </trkpt>
      <trkpt lat="45.76133" lon="5.98279">
        <ele>556</ele>
        <time>2009-07-05T07:54:53Z</time>
      </trkpt>
      <trkpt lat="45.76146" lon="5.98257">
        <ele>557</ele>
        <time>2009-07-05T07:54:58Z</time>
      </trkpt>
      <trkpt lat="45.76164" lon="5.98236">
        <ele>557</ele>
        <time>2009-07-05T07:55:03Z</time>
      </trkpt>
      <trkpt lat="45.7618" lon="5.98214">
        <ele>557</ele>
        <time>2009-07-05T07:55:08Z</time>
      </trkpt>
      <trkpt lat="45.7619" lon="5.98175">
        <ele>557</ele>
        <time>2009-07-05T07:55:13Z</time>
      </trkpt>
      <trkpt lat="45.76208" lon="5.98146">
        <ele>556</ele>
        <time>2009-07-05T07:55:18Z</time>
      </trkpt>
      <trkpt lat="45.7623" lon="5.98129">
        <ele>555</ele>
        <time>2009-07-05T07:55:23Z</time>
      </trkpt>
      <trkpt lat="45.76252" lon="5.98118">
        <ele>555</ele>
        <time>2009-07-05T07:55:28Z</time>
      </trkpt>
      <trkpt lat="45.76269" lon="5.98103">
        <ele>554</ele>
        <time>2009-07-05T07:55:33Z</time>
      </trkpt>
      <trkpt lat="45.76282" lon="5.98069">
        <ele>551</ele>
        <time>2009-07-05T07:55:38Z</time>
      </trkpt>
      <trkpt lat="45.76291" lon="5.98031">
        <ele>550</ele>
        <time>2009-07-05T07:55:43Z</time>
      </trkpt>
      <trkpt lat="45.76312" lon="5.97991">
        <ele>546</ele>
        <time>2009-07-05T07:55:48Z</time>
      </trkpt>
      <trkpt lat="45.76334" lon="5.97947">
        <ele>542</ele>
        <time>2009-07-05T07:55:53Z</time>
      </trkpt>
      <trkpt lat="45.76322" lon="5.97914">
        <ele>538</ele>
        <time>2009-07-05T07:55:58Z</time>
      </trkpt>
      <trkpt lat="45.76305" lon="5.97894">
        <ele>533</ele>
        <time>2009-07-05T07:56:03Z</time>
      </trkpt>
      <trkpt lat="45.76292" lon="5.97894">
        <ele>532</ele>
        <time>2009-07-05T07:56:08Z</time>
      </trkpt>
      <trkpt lat="45.76284" lon="5.97899">
        <ele>532</ele>
        <time>2009-07-05T07:56:25Z</time>
      </trkpt>
      <trkpt lat="45.76282" lon="5.97895">
        <ele>532</ele>
        <time>2009-07-05T07:56:31Z</time>
      </trkpt>
      <trkpt lat="45.76281" lon="5.97892">
        <ele>532</ele>
        <time>2009-07-05T07:56:36Z</time>
      </trkpt>
      <trkpt lat="45.76281" lon="5.9789">
        <ele>535</ele>
        <time>2009-07-05T07:56:44Z</time>
      </trkpt>
      <trkpt lat="45.76282" lon="5.9789">
        <ele>540</ele>
        <time>2009-07-05T07:56:49Z</time>
      </trkpt>
      <trkpt lat="45.76284" lon="5.97889">
        <ele>545</ele>
        <time>2009-07-05T07:56:54Z</time>
      </trkpt>
      <trkpt lat="45.76282" lon="5.9789">
        <ele>556</ele>
        <time>2009-07-05T07:57:07Z</time>
      </trkpt>
      <trkpt lat="45.76282" lon="5.97885">
        <ele>562</ele>
        <time>2009-07-05T07:57:15Z</time>
      </trkpt>
      <trkpt lat="45.76281" lon="5.97884">
        <ele>562</ele>
        <time>2009-07-05T07:57:20Z</time>
      </trkpt>
      <trkpt lat="45.7628" lon="5.97885">
        <ele>558</ele>
        <time>2009-07-05T07:57:53Z</time>
      </trkpt>
      <trkpt lat="45.76277" lon="5.97887">
        <ele>559</ele>
        <time>2009-07-05T07:58:06Z</time>
      </trkpt>
      <trkpt lat="45.76277" lon="5.97888">
        <ele>560</ele>
        <time>2009-07-05T07:58:13Z</time>
      </trkpt>
      <trkpt lat="45.76279" lon="5.97887">
        <ele>558</ele>
        <time>2009-07-05T07:58:18Z</time>
      </trkpt>
      <trkpt lat="45.76279" lon="5.97888">
        <ele>557</ele>
        <time>2009-07-05T07:58:26Z</time>
      </trkpt>
      <trkpt lat="45.7628" lon="5.97887">
        <ele>551</ele>
        <time>2009-07-05T07:58:36Z</time>
      </trkpt>
      <trkpt lat="45.76281" lon="5.97886">
        <ele>549</ele>
        <time>2009-07-05T07:58:45Z</time>
      </trkpt>
      <trkpt lat="45.76281" lon="5.97885">
        <ele>549</ele>
        <time>2009-07-05T07:59:03Z</time>
      </trkpt>
      <trkpt lat="45.76279" lon="5.97887">
        <ele>549</ele>
        <time>2009-07-05T07:59:08Z</time>
      </trkpt>
      <trkpt lat="45.7628" lon="5.97885">
        <ele>548</ele>
        <time>2009-07-05T07:59:15Z</time>
      </trkpt>
      <trkpt lat="45.76279" lon="5.97885">
        <ele>552</ele>
        <time>2009-07-05T07:59:25Z</time>
      </trkpt>
      <trkpt lat="45.7628" lon="5.97888">
        <ele>552</ele>
        <time>2009-07-05T07:59:32Z</time>
      </trkpt>
      <trkpt lat="45.76284" lon="5.97891">
        <ele>549</ele>
        <time>2009-07-05T07:59:38Z</time>
      </trkpt>
      <trkpt lat="45.76287" lon="5.97897">
        <ele>543</ele>
        <time>2009-07-05T07:59:44Z</time>
      </trkpt>
      <trkpt lat="45.76288" lon="5.97899">
        <ele>542</ele>
        <time>2009-07-05T07:59:50Z</time>
      </trkpt>
      <trkpt lat="45.76289" lon="5.97899">
        <ele>542</ele>
        <time>2009-07-05T08:00:00Z</time>
      </trkpt>
      <trkpt lat="45.76288" lon="5.979">
        <ele>542</ele>
        <time>2009-07-05T08:00:05Z</time>
      </trkpt>
      <trkpt lat="45.76287" lon="5.97899">
        <ele>546</ele>
        <time>2009-07-05T08:00:12Z</time>
      </trkpt>
      <trkpt lat="45.76289" lon="5.97898">
        <ele>547</ele>
        <time>2009-07-05T08:00:24Z</time>
      </trkpt>
      <trkpt lat="45.76286" lon="5.979">
        <ele>547</ele>
        <time>2009-07-05T08:00:32Z</time>
      </trkpt>
      <trkpt lat="45.76288" lon="5.97898">
        <ele>547</ele>
        <time>2009-07-05T08:00:43Z</time>
      </trkpt>
      <trkpt lat="45.76291" lon="5.97897">
        <ele>545</ele>
        <time>2009-07-05T08:00:49Z</time>
      </trkpt>
      <trkpt lat="45.76295" lon="5.979">
        <ele>542</ele>
        <time>2009-07-05T08:00:55Z</time>
      </trkpt>
      <trkpt lat="45.76303" lon="5.97903">
        <ele>541</ele>
        <time>2009-07-05T08:01:00Z</time>
      </trkpt>
      <trkpt lat="45.76311" lon="5.9791">
        <ele>541</ele>
        <time>2009-07-05T08:01:05Z</time>
      </trkpt>
      <trkpt lat="45.76318" lon="5.97917">
        <ele>541</ele>
        <time>2009-07-05T08:01:11Z</time>
      </trkpt>
      <trkpt lat="45.76325" lon="5.97915">
        <ele>541</ele>
        <time>2009-07-05T08:01:16Z</time>
      </trkpt>
      <trkpt lat="45.76326" lon="5.97881">
        <ele>538</ele>
        <time>2009-07-05T08:01:21Z</time>
      </trkpt>
      <trkpt lat="45.76323" lon="5.9783">
        <ele>535</ele>
        <time>2009-07-05T08:01:26Z</time>
      </trkpt>
      <trkpt lat="45.76319" lon="5.97785">
        <ele>532</ele>
        <time>2009-07-05T08:01:31Z</time>
      </trkpt>
      <trkpt lat="45.763" lon="5.97746">
        <ele>529</ele>
        <time>2009-07-05T08:01:36Z</time>
      </trkpt>
      <trkpt lat="45.7628" lon="5.97741">
        <ele>525</ele>
        <time>2009-07-05T08:01:41Z</time>
      </trkpt>
      <trkpt lat="45.76262" lon="5.97739">
        <ele>525</ele>
        <time>2009-07-05T08:01:46Z</time>
      </trkpt>
      <trkpt lat="45.76243" lon="5.97736">
        <ele>525</ele>
        <time>2009-07-05T08:01:51Z</time>
      </trkpt>
      <trkpt lat="45.76228" lon="5.97734">
        <ele>525</ele>
        <time>2009-07-05T08:01:56Z</time>
      </trkpt>
      <trkpt lat="45.76225" lon="5.97716">
        <ele>525</ele>
        <time>2009-07-05T08:02:01Z</time>
      </trkpt>
      <trkpt lat="45.76227" lon="5.97683">
        <ele>525</ele>
        <time>2009-07-05T08:02:06Z</time>
      </trkpt>
      <trkpt lat="45.7623" lon="5.97638">
        <ele>525</ele>
        <time>2009-07-05T08:02:11Z</time>
      </trkpt>
      <trkpt lat="45.76232" lon="5.9759">
        <ele>522</ele>
        <time>2009-07-05T08:02:16Z</time>
      </trkpt>
      <trkpt lat="45.76247" lon="5.97567">
        <ele>520</ele>
        <time>2009-07-05T08:02:21Z</time>
      </trkpt>
      <trkpt lat="45.76276" lon="5.9756">
        <ele>519</ele>
        <time>2009-07-05T08:02:26Z</time>
      </trkpt>
      <trkpt lat="45.76309" lon="5.97563">
        <ele>519</ele>
        <time>2009-07-05T08:02:31Z</time>
      </trkpt>
      <trkpt lat="45.76337" lon="5.97571">
        <ele>517</ele>
        <time>2009-07-05T08:02:36Z</time>
      </trkpt>
      <trkpt lat="45.76352" lon="5.97561">
        <ele>515</ele>
        <time>2009-07-05T08:02:41Z</time>
      </trkpt>
      <trkpt lat="45.76368" lon="5.97531">
        <ele>513</ele>
        <time>2009-07-05T08:02:46Z</time>
      </trkpt>
      <trkpt lat="45.76385" lon="5.97491">
        <ele>511</ele>
        <time>2009-07-05T08:02:51Z</time>
      </trkpt>
      <trkpt lat="45.76399" lon="5.97446">
        <ele>509</ele>
        <time>2009-07-05T08:02:56Z</time>
      </trkpt>
      <trkpt lat="45.7641" lon="5.97397">
        <ele>506</ele>
        <time>2009-07-05T08:03:01Z</time>
      </trkpt>
      <trkpt lat="45.76425" lon="5.97359">
        <ele>502</ele>
        <time>2009-07-05T08:03:06Z</time>
      </trkpt>
      <trkpt lat="45.76438" lon="5.97329">
        <ele>497</ele>
        <time>2009-07-05T08:03:11Z</time>
      </trkpt>
      <trkpt lat="45.76448" lon="5.97312">
        <ele>494</ele>
        <time>2009-07-05T08:03:16Z</time>
      </trkpt>
      <trkpt lat="45.76461" lon="5.97298">
        <ele>493</ele>
        <time>2009-07-05T08:03:21Z</time>
      </trkpt>
      <trkpt lat="45.76472" lon="5.97293">
        <ele>493</ele>
        <time>2009-07-05T08:03:26Z</time>
      </trkpt>
      <trkpt lat="45.76478" lon="5.97274">
        <ele>493</ele>
        <time>2009-07-05T08:03:31Z</time>
      </trkpt>
      <trkpt lat="45.76485" lon="5.97257">
        <ele>493</ele>
        <time>2009-07-05T08:03:36Z</time>
      </trkpt>
      <trkpt lat="45.76492" lon="5.97242">
        <ele>492</ele>
        <time>2009-07-05T08:03:41Z</time>
      </trkpt>
      <trkpt lat="45.76499" lon="5.97225">
        <ele>488</ele>
        <time>2009-07-05T08:03:46Z</time>
      </trkpt>
      <trkpt lat="45.76502" lon="5.97208">
        <ele>483</ele>
        <time>2009-07-05T08:03:51Z</time>
      </trkpt>
      <trkpt lat="45.76507" lon="5.97186">
        <ele>478</ele>
        <time>2009-07-05T08:03:56Z</time>
      </trkpt>
      <trkpt lat="45.76509" lon="5.97164">
        <ele>475</ele>
        <time>2009-07-05T08:04:01Z</time>
      </trkpt>
      <trkpt lat="45.76511" lon="5.97142">
        <ele>474</ele>
        <time>2009-07-05T08:04:06Z</time>
      </trkpt>
      <trkpt lat="45.76521" lon="5.9711">
        <ele>474</ele>
        <time>2009-07-05T08:04:11Z</time>
      </trkpt>
      <trkpt lat="45.76532" lon="5.97088">
        <ele>470</ele>
        <time>2009-07-05T08:04:16Z</time>
      </trkpt>
      <trkpt lat="45.76542" lon="5.97069">
        <ele>465</ele>
        <time>2009-07-05T08:04:21Z</time>
      </trkpt>
      <trkpt lat="45.76555" lon="5.97048">
        <ele>460</ele>
        <time>2009-07-05T08:04:26Z</time>
      </trkpt>
      <trkpt lat="45.76573" lon="5.97039">
        <ele>456</ele>
        <time>2009-07-05T08:04:31Z</time>
      </trkpt>
      <trkpt lat="45.76582" lon="5.97014">
        <ele>452</ele>
        <time>2009-07-05T08:04:36Z</time>
      </trkpt>
      <trkpt lat="45.76588" lon="5.9698">
        <ele>448</ele>
        <time>2009-07-05T08:04:41Z</time>
      </trkpt>
      <trkpt lat="45.76592" lon="5.96944">
        <ele>444</ele>
        <time>2009-07-05T08:04:46Z</time>
      </trkpt>
      <trkpt lat="45.76587" lon="5.96917">
        <ele>439</ele>
        <time>2009-07-05T08:04:51Z</time>
      </trkpt>
      <trkpt lat="45.76576" lon="5.96904">
        <ele>435</ele>
        <time>2009-07-05T08:04:56Z</time>
      </trkpt>
      <trkpt lat="45.76569" lon="5.969">
        <ele>428</ele>
        <time>2009-07-05T08:05:04Z</time>
      </trkpt>
      <trkpt lat="45.76567" lon="5.96899">
        <ele>428</ele>
        <time>2009-07-05T08:05:10Z</time>
      </trkpt>
      <trkpt lat="45.76569" lon="5.96898">
        <ele>429</ele>
        <time>2009-07-05T08:05:15Z</time>
      </trkpt>
      <trkpt lat="45.7656" lon="5.96891">
        <ele>429</ele>
        <time>2009-07-05T08:05:20Z</time>
      </trkpt>
      <trkpt lat="45.76549" lon="5.96882">
        <ele>429</ele>
        <time>2009-07-05T08:05:25Z</time>
      </trkpt>
      <trkpt lat="45.76535" lon="5.96867">
        <ele>429</ele>
        <time>2009-07-05T08:05:30Z</time>
      </trkpt>
      <trkpt lat="45.76524" lon="5.96847">
        <ele>426</ele>
        <time>2009-07-05T08:05:35Z</time>
      </trkpt>
      <trkpt lat="45.76512" lon="5.96825">
        <ele>421</ele>
        <time>2009-07-05T08:05:40Z</time>
      </trkpt>
      <trkpt lat="45.76506" lon="5.96803">
        <ele>417</ele>
        <time>2009-07-05T08:05:45Z</time>
      </trkpt>
      <trkpt lat="45.76504" lon="5.96781">
        <ele>412</ele>
        <time>2009-07-05T08:05:50Z</time>
      </trkpt>
      <trkpt lat="45.76514" lon="5.96754">
        <ele>407</ele>
        <time>2009-07-05T08:05:55Z</time>
      </trkpt>
      <trkpt lat="45.76532" lon="5.96729">
        <ele>402</ele>
        <time>2009-07-05T08:06:00Z</time>
      </trkpt>
      <trkpt lat="45.76553" lon="5.96707">
        <ele>395</ele>
        <time>2009-07-05T08:06:05Z</time>
      </trkpt>
      <trkpt lat="45.7657" lon="5.96691">
        <ele>386</ele>
        <time>2009-07-05T08:06:10Z</time>
      </trkpt>
      <trkpt lat="45.76571" lon="5.96687">
        <ele>380</ele>
        <time>2009-07-05T08:06:19Z</time>
      </trkpt>
      <trkpt lat="45.7657" lon="5.96685">
        <ele>380</ele>
        <time>2009-07-05T08:06:32Z</time>
      </trkpt>
      <trkpt lat="45.76572" lon="5.96683">
        <ele>380</ele>
        <time>2009-07-05T08:06:43Z</time>
      </trkpt>
      <trkpt lat="45.76589" lon="5.96658">
        <ele>380</ele>
        <time>2009-07-05T08:06:48Z</time>
      </trkpt>
      <trkpt lat="45.76611" lon="5.9661">
        <ele>380</ele>
        <time>2009-07-05T08:06:53Z</time>
      </trkpt>
      <trkpt lat="45.76619" lon="5.9658">
        <ele>380</ele>
        <time>2009-07-05T08:06:58Z</time>
      </trkpt>
      <trkpt lat="45.7662" lon="5.96577">
        <ele>380</ele>
        <time>2009-07-05T08:07:03Z</time>
      </trkpt>
      <trkpt lat="45.76607" lon="5.96565">
        <ele>380</ele>
        <time>2009-07-05T08:07:08Z</time>
      </trkpt>
      <trkpt lat="45.76586" lon="5.9654">
        <ele>377</ele>
        <time>2009-07-05T08:07:13Z</time>
      </trkpt>
      <trkpt lat="45.7658" lon="5.965">
        <ele>375</ele>
        <time>2009-07-05T08:07:18Z</time>
      </trkpt>
      <trkpt lat="45.7658" lon="5.96445">
        <ele>374</ele>
        <time>2009-07-05T08:07:23Z</time>
      </trkpt>
      <trkpt lat="45.76572" lon="5.96383">
        <ele>369</ele>
        <time>2009-07-05T08:07:28Z</time>
      </trkpt>
      <trkpt lat="45.76574" lon="5.96326">
        <ele>366</ele>
        <time>2009-07-05T08:07:33Z</time>
      </trkpt>
      <trkpt lat="45.76586" lon="5.96271">
        <ele>362</ele>
        <time>2009-07-05T08:07:38Z</time>
      </trkpt>
      <trkpt lat="45.76604" lon="5.96213">
        <ele>360</ele>
        <time>2009-07-05T08:07:43Z</time>
      </trkpt>
      <trkpt lat="45.76629" lon="5.9616">
        <ele>358</ele>
        <time>2009-07-05T08:07:48Z</time>
      </trkpt>
      <trkpt lat="45.76645" lon="5.96108">
        <ele>357</ele>
        <time>2009-07-05T08:07:53Z</time>
      </trkpt>
      <trkpt lat="45.76655" lon="5.96079">
        <ele>357</ele>
        <time>2009-07-05T08:07:58Z</time>
      </trkpt>
      <trkpt lat="45.76665" lon="5.96048">
        <ele>355</ele>
        <time>2009-07-05T08:08:03Z</time>
      </trkpt>
      <trkpt lat="45.76673" lon="5.96007">
        <ele>354</ele>
        <time>2009-07-05T08:08:08Z</time>
      </trkpt>
      <trkpt lat="45.76682" lon="5.95961">
        <ele>353</ele>
        <time>2009-07-05T08:08:13Z</time>
      </trkpt>
      <trkpt lat="45.76694" lon="5.95919">
        <ele>353</ele>
        <time>2009-07-05T08:08:18Z</time>
      </trkpt>
      <trkpt lat="45.76705" lon="5.95875">
        <ele>353</ele>
        <time>2009-07-05T08:08:23Z</time>
      </trkpt>
      <trkpt lat="45.76715" lon="5.95835">
        <ele>353</ele>
        <time>2009-07-05T08:08:28Z</time>
      </trkpt>
      <trkpt lat="45.76722" lon="5.95797">
        <ele>353</ele>
        <time>2009-07-05T08:08:33Z</time>
      </trkpt>
      <trkpt lat="45.76729" lon="5.95762">
        <ele>353</ele>
        <time>2009-07-05T08:08:38Z</time>
      </trkpt>
      <trkpt lat="45.76737" lon="5.95722">
        <ele>353</ele>
        <time>2009-07-05T08:08:43Z</time>
      </trkpt>
      <trkpt lat="45.76747" lon="5.95676">
        <ele>352</ele>
        <time>2009-07-05T08:08:48Z</time>
      </trkpt>
      <trkpt lat="45.76758" lon="5.95622">
        <ele>350</ele>
        <time>2009-07-05T08:08:53Z</time>
      </trkpt>
      <trkpt lat="45.76767" lon="5.95564">
        <ele>347</ele>
        <time>2009-07-05T08:08:58Z</time>
      </trkpt>
      <trkpt lat="45.76773" lon="5.9552">
        <ele>345</ele>
        <time>2009-07-05T08:09:03Z</time>
      </trkpt>
      <trkpt lat="45.76765" lon="5.955">
        <ele>344</ele>
        <time>2009-07-05T08:09:08Z</time>
      </trkpt>
      <trkpt lat="45.76739" lon="5.95484">
        <ele>341</ele>
        <time>2009-07-05T08:09:13Z</time>
      </trkpt>
      <trkpt lat="45.76718" lon="5.95465">
        <ele>337</ele>
        <time>2009-07-05T08:09:18Z</time>
      </trkpt>
      <trkpt lat="45.76713" lon="5.95466">
        <ele>337</ele>
        <time>2009-07-05T08:09:24Z</time>
      </trkpt>
      <trkpt lat="45.7672" lon="5.9547">
        <ele>337</ele>
        <time>2009-07-05T08:09:29Z</time>
      </trkpt>
      <trkpt lat="45.76725" lon="5.95478">
        <ele>337</ele>
        <time>2009-07-05T08:09:34Z</time>
      </trkpt>
      <trkpt lat="45.76728" lon="5.95484">
        <ele>337</ele>
        <time>2009-07-05T08:09:39Z</time>
      </trkpt>
      <trkpt lat="45.76731" lon="5.95484">
        <ele>337</ele>
        <time>2009-07-05T08:09:45Z</time>
      </trkpt>
      <trkpt lat="45.76735" lon="5.95488">
        <ele>337</ele>
        <time>2009-07-05T08:09:52Z</time>
      </trkpt>
      <trkpt lat="45.76734" lon="5.95486">
        <ele>337</ele>
        <time>2009-07-05T08:09:58Z</time>
      </trkpt>
      <trkpt lat="45.76735" lon="5.95488">
        <ele>337</ele>
        <time>2009-07-05T08:10:10Z</time>
      </trkpt>
      <trkpt lat="45.76741" lon="5.95491">
        <ele>339</ele>
        <time>2009-07-05T08:10:16Z</time>
      </trkpt>
      <trkpt lat="45.76742" lon="5.95491">
        <ele>341</ele>
        <time>2009-07-05T08:10:31Z</time>
      </trkpt>
      <trkpt lat="45.76743" lon="5.95497">
        <ele>341</ele>
        <time>2009-07-05T08:10:36Z</time>
      </trkpt>
      <trkpt lat="45.76756" lon="5.95504">
        <ele>341</ele>
        <time>2009-07-05T08:10:41Z</time>
      </trkpt>
      <trkpt lat="45.76764" lon="5.9551">
        <ele>341</ele>
        <time>2009-07-05T08:10:46Z</time>
      </trkpt>
      <trkpt lat="45.7676" lon="5.95516">
        <ele>341</ele>
        <time>2009-07-05T08:10:51Z</time>
      </trkpt>
      <trkpt lat="45.76756" lon="5.95527">
        <ele>341</ele>
        <time>2009-07-05T08:10:56Z</time>
      </trkpt>
      <trkpt lat="45.76752" lon="5.9554">
        <ele>341</ele>
        <time>2009-07-05T08:11:01Z</time>
      </trkpt>
      <trkpt lat="45.76747" lon="5.95558">
        <ele>343</ele>
        <time>2009-07-05T08:11:06Z</time>
      </trkpt>
      <trkpt lat="45.76742" lon="5.95581">
        <ele>344</ele>
        <time>2009-07-05T08:11:11Z</time>
      </trkpt>
      <trkpt lat="45.76736" lon="5.95603">
        <ele>345</ele>
        <time>2009-07-05T08:11:16Z</time>
      </trkpt>
      <trkpt lat="45.76731" lon="5.95625">
        <ele>346</ele>
        <time>2009-07-05T08:11:21Z</time>
      </trkpt>
      <trkpt lat="45.76726" lon="5.95645">
        <ele>347</ele>
        <time>2009-07-05T08:11:26Z</time>
      </trkpt>
      <trkpt lat="45.76721" lon="5.95666">
        <ele>347</ele>
        <time>2009-07-05T08:11:31Z</time>
      </trkpt>
      <trkpt lat="45.76716" lon="5.95685">
        <ele>347</ele>
        <time>2009-07-05T08:11:36Z</time>
      </trkpt>
      <trkpt lat="45.76712" lon="5.95703">
        <ele>347</ele>
        <time>2009-07-05T08:11:41Z</time>
      </trkpt>
      <trkpt lat="45.76706" lon="5.95722">
        <ele>347</ele>
        <time>2009-07-05T08:11:46Z</time>
      </trkpt>
      <trkpt lat="45.76694" lon="5.95733">
        <ele>347</ele>
        <time>2009-07-05T08:11:51Z</time>
      </trkpt>
      <trkpt lat="45.76679" lon="5.95729">
        <ele>347</ele>
        <time>2009-07-05T08:11:56Z</time>
      </trkpt>
      <trkpt lat="45.76664" lon="5.9572">
        <ele>346</ele>
        <time>2009-07-05T08:12:01Z</time>
      </trkpt>
      <trkpt lat="45.76648" lon="5.95712">
        <ele>344</ele>
        <time>2009-07-05T08:12:06Z</time>
      </trkpt>
      <trkpt lat="45.76628" lon="5.95702">
        <ele>343</ele>
        <time>2009-07-05T08:12:11Z</time>
      </trkpt>
      <trkpt lat="45.76605" lon="5.9569">
        <ele>343</ele>
        <time>2009-07-05T08:12:16Z</time>
      </trkpt>
      <trkpt lat="45.76582" lon="5.95678">
        <ele>343</ele>
        <time>2009-07-05T08:12:21Z</time>
      </trkpt>
      <trkpt lat="45.7656" lon="5.95669">
        <ele>343</ele>
        <time>2009-07-05T08:12:26Z</time>
      </trkpt>
      <trkpt lat="45.76539" lon="5.95661">
        <ele>343</ele>
        <time>2009-07-05T08:12:31Z</time>
      </trkpt>
      <trkpt lat="45.76519" lon="5.95653">
        <ele>343</ele>
        <time>2009-07-05T08:12:36Z</time>
      </trkpt>
      <trkpt lat="45.76501" lon="5.95637">
        <ele>343</ele>
        <time>2009-07-05T08:12:41Z</time>
      </trkpt>
      <trkpt lat="45.7648" lon="5.95623">
        <ele>341</ele>
        <time>2009-07-05T08:12:46Z</time>
      </trkpt>
      <trkpt lat="45.76457" lon="5.95608">
        <ele>339</ele>
        <time>2009-07-05T08:12:51Z</time>
      </trkpt>
      <trkpt lat="45.7643" lon="5.95592">
        <ele>338</ele>
        <time>2009-07-05T08:12:56Z</time>
      </trkpt>
      <trkpt lat="45.76402" lon="5.95574">
        <ele>338</ele>
        <time>2009-07-05T08:13:01Z</time>
      </trkpt>
      <trkpt lat="45.76374" lon="5.95554">
        <ele>338</ele>
        <time>2009-07-05T08:13:06Z</time>
      </trkpt>
      <trkpt lat="45.76348" lon="5.95535">
        <ele>338</ele>
        <time>2009-07-05T08:13:11Z</time>
      </trkpt>
      <trkpt lat="45.76322" lon="5.95515">
        <ele>338</ele>
        <time>2009-07-05T08:13:16Z</time>
      </trkpt>
      <trkpt lat="45.76297" lon="5.95495">
        <ele>338</ele>
        <time>2009-07-05T08:13:21Z</time>
      </trkpt>
      <trkpt lat="45.76271" lon="5.95475">
        <ele>337</ele>
        <time>2009-07-05T08:13:26Z</time>
      </trkpt>
      <trkpt lat="45.76247" lon="5.95456">
        <ele>337</ele>
        <time>2009-07-05T08:13:31Z</time>
      </trkpt>
      <trkpt lat="45.76223" lon="5.95435">
        <ele>337</ele>
        <time>2009-07-05T08:13:36Z</time>
      </trkpt>
      <trkpt lat="45.76198" lon="5.95414">
        <ele>336</ele>
        <time>2009-07-05T08:13:41Z</time>
      </trkpt>
      <trkpt lat="45.76173" lon="5.9539">
        <ele>336</ele>
        <time>2009-07-05T08:13:46Z</time>
      </trkpt>
      <trkpt lat="45.76149" lon="5.95359">
        <ele>335</ele>
        <time>2009-07-05T08:13:51Z</time>
      </trkpt>
      <trkpt lat="45.76124" lon="5.9534">
        <ele>335</ele>
        <time>2009-07-05T08:13:56Z</time>
      </trkpt>
      <trkpt lat="45.76101" lon="5.95322">
        <ele>335</ele>
        <time>2009-07-05T08:14:01Z</time>
      </trkpt>
      <trkpt lat="45.76078" lon="5.95299">
        <ele>335</ele>
        <time>2009-07-05T08:14:06Z</time>
      </trkpt>
      <trkpt lat="45.76055" lon="5.95275">
        <ele>333</ele>
        <time>2009-07-05T08:14:11Z</time>
      </trkpt>
      <trkpt lat="45.76031" lon="5.95249">
        <ele>332</ele>
        <time>2009-07-05T08:14:16Z</time>
      </trkpt>
      <trkpt lat="45.76006" lon="5.95223">
        <ele>330</ele>
        <time>2009-07-05T08:14:21Z</time>
      </trkpt>
      <trkpt lat="45.75982" lon="5.95194">
        <ele>329</ele>
        <time>2009-07-05T08:14:26Z</time>
      </trkpt>
      <trkpt lat="45.75958" lon="5.95165">
        <ele>328</ele>
        <time>2009-07-05T08:14:31Z</time>
      </trkpt>
      <trkpt lat="45.75935" lon="5.95138">
        <ele>328</ele>
        <time>2009-07-05T08:14:36Z</time>
      </trkpt>
      <trkpt lat="45.75915" lon="5.95118">
        <ele>328</ele>
        <time>2009-07-05T08:14:41Z</time>
      </trkpt>
      <trkpt lat="45.75901" lon="5.95098">
        <ele>328</ele>
        <time>2009-07-05T08:14:46Z</time>
      </trkpt>
      <trkpt lat="45.75886" lon="5.9508">
        <ele>328</ele>
        <time>2009-07-05T08:14:51Z</time>
      </trkpt>
      <trkpt lat="45.75865" lon="5.95056">
        <ele>325</ele>
        <time>2009-07-05T08:14:56Z</time>
      </trkpt>
      <trkpt lat="45.75845" lon="5.95031">
        <ele>325</ele>
        <time>2009-07-05T08:15:01Z</time>
      </trkpt>
      <trkpt lat="45.75826" lon="5.95008">
        <ele>325</ele>
        <time>2009-07-05T08:15:06Z</time>
      </trkpt>
      <trkpt lat="45.75808" lon="5.94984">
        <ele>325</ele>
        <time>2009-07-05T08:15:11Z</time>
      </trkpt>
      <trkpt lat="45.75789" lon="5.9496">
        <ele>325</ele>
        <time>2009-07-05T08:15:16Z</time>
      </trkpt>
      <trkpt lat="45.75772" lon="5.94936">
        <ele>325</ele>
        <time>2009-07-05T08:15:21Z</time>
      </trkpt>
      <trkpt lat="45.75756" lon="5.94911">
        <ele>325</ele>
        <time>2009-07-05T08:15:26Z</time>
      </trkpt>
      <trkpt lat="45.75738" lon="5.94887">
        <ele>325</ele>
        <time>2009-07-05T08:15:31Z</time>
      </trkpt>
      <trkpt lat="45.75721" lon="5.94862">
        <ele>326</ele>
        <time>2009-07-05T08:15:36Z</time>
      </trkpt>
      <trkpt lat="45.75705" lon="5.94837">
        <ele>327</ele>
        <time>2009-07-05T08:15:41Z</time>
      </trkpt>
      <trkpt lat="45.75687" lon="5.94813">
        <ele>327</ele>
        <time>2009-07-05T08:15:46Z</time>
      </trkpt>
      <trkpt lat="45.75669" lon="5.94787">
        <ele>327</ele>
        <time>2009-07-05T08:15:51Z</time>
      </trkpt>
      <trkpt lat="45.75655" lon="5.94758">
        <ele>327</ele>
        <time>2009-07-05T08:15:56Z</time>
      </trkpt>
      <trkpt lat="45.75637" lon="5.94728">
        <ele>327</ele>
        <time>2009-07-05T08:16:01Z</time>
      </trkpt>
      <trkpt lat="45.75615" lon="5.94696">
        <ele>327</ele>
        <time>2009-07-05T08:16:06Z</time>
      </trkpt>
      <trkpt lat="45.7559" lon="5.9466">
        <ele>327</ele>
        <time>2009-07-05T08:16:11Z</time>
      </trkpt>
      <trkpt lat="45.75572" lon="5.94631">
        <ele>327</ele>
        <time>2009-07-05T08:16:16Z</time>
      </trkpt>
      <trkpt lat="45.75559" lon="5.94609">
        <ele>330</ele>
        <time>2009-07-05T08:16:21Z</time>
      </trkpt>
      <trkpt lat="45.75547" lon="5.9459">
        <ele>330</ele>
        <time>2009-07-05T08:16:26Z</time>
      </trkpt>
      <trkpt lat="45.75537" lon="5.94571">
        <ele>330</ele>
        <time>2009-07-05T08:16:31Z</time>
      </trkpt>
      <trkpt lat="45.75523" lon="5.94552">
        <ele>330</ele>
        <time>2009-07-05T08:16:36Z</time>
      </trkpt>
      <trkpt lat="45.75509" lon="5.94531">
        <ele>330</ele>
        <time>2009-07-05T08:16:41Z</time>
      </trkpt>
      <trkpt lat="45.75496" lon="5.94512">
        <ele>330</ele>
        <time>2009-07-05T08:16:46Z</time>
      </trkpt>
      <trkpt lat="45.75486" lon="5.94494">
        <ele>330</ele>
        <time>2009-07-05T08:16:51Z</time>
      </trkpt>
      <trkpt lat="45.75476" lon="5.94479">
        <ele>331</ele>
        <time>2009-07-05T08:16:56Z</time>
      </trkpt>
      <trkpt lat="45.75467" lon="5.94462">
        <ele>331</ele>
        <time>2009-07-05T08:17:01Z</time>
      </trkpt>
      <trkpt lat="45.75455" lon="5.94447">
        <ele>331</ele>
        <time>2009-07-05T08:17:06Z</time>
      </trkpt>
      <trkpt lat="45.75443" lon="5.94433">
        <ele>331</ele>
        <time>2009-07-05T08:17:11Z</time>
      </trkpt>
      <trkpt lat="45.75433" lon="5.9442">
        <ele>331</ele>
        <time>2009-07-05T08:17:16Z</time>
      </trkpt>
      <trkpt lat="45.7542" lon="5.94401">
        <ele>331</ele>
        <time>2009-07-05T08:17:21Z</time>
      </trkpt>
      <trkpt lat="45.75404" lon="5.94372">
        <ele>330</ele>
        <time>2009-07-05T08:17:26Z</time>
      </trkpt>
      <trkpt lat="45.75386" lon="5.9434">
        <ele>330</ele>
        <time>2009-07-05T08:17:31Z</time>
      </trkpt>
      <trkpt lat="45.75365" lon="5.94316">
        <ele>329</ele>
        <time>2009-07-05T08:17:36Z</time>
      </trkpt>
      <trkpt lat="45.75348" lon="5.94295">
        <ele>327</ele>
        <time>2009-07-05T08:17:41Z</time>
      </trkpt>
      <trkpt lat="45.75332" lon="5.94274">
        <ele>325</ele>
        <time>2009-07-05T08:17:46Z</time>
      </trkpt>
      <trkpt lat="45.75317" lon="5.94257">
        <ele>325</ele>
        <time>2009-07-05T08:17:51Z</time>
      </trkpt>
      <trkpt lat="45.75302" lon="5.94241">
        <ele>325</ele>
        <time>2009-07-05T08:17:56Z</time>
      </trkpt>
      <trkpt lat="45.75287" lon="5.94223">
        <ele>323</ele>
        <time>2009-07-05T08:18:01Z</time>
      </trkpt>
      <trkpt lat="45.75272" lon="5.94205">
        <ele>321</ele>
        <time>2009-07-05T08:18:06Z</time>
      </trkpt>
      <trkpt lat="45.75257" lon="5.94187">
        <ele>319</ele>
        <time>2009-07-05T08:18:11Z</time>
      </trkpt>
      <trkpt lat="45.75244" lon="5.94169">
        <ele>319</ele>
        <time>2009-07-05T08:18:16Z</time>
      </trkpt>
      <trkpt lat="45.75231" lon="5.94156">
        <ele>319</ele>
        <time>2009-07-05T08:18:21Z</time>
      </trkpt>
      <trkpt lat="45.75219" lon="5.94142">
        <ele>319</ele>
        <time>2009-07-05T08:18:26Z</time>
      </trkpt>
      <trkpt lat="45.75208" lon="5.94128">
        <ele>319</ele>
        <time>2009-07-05T08:18:31Z</time>
      </trkpt>
      <trkpt lat="45.75199" lon="5.94114">
        <ele>320</ele>
        <time>2009-07-05T08:18:36Z</time>
      </trkpt>
      <trkpt lat="45.75188" lon="5.941">
        <ele>321</ele>
        <time>2009-07-05T08:18:42Z</time>
      </trkpt>
      <trkpt lat="45.75177" lon="5.94085">
        <ele>322</ele>
        <time>2009-07-05T08:18:47Z</time>
      </trkpt>
      <trkpt lat="45.75168" lon="5.94071">
        <ele>324</ele>
        <time>2009-07-05T08:18:52Z</time>
      </trkpt>
      <trkpt lat="45.75159" lon="5.94055">
        <ele>327</ele>
        <time>2009-07-05T08:18:57Z</time>
      </trkpt>
      <trkpt lat="45.75147" lon="5.94038">
        <ele>328</ele>
        <time>2009-07-05T08:19:02Z</time>
      </trkpt>
      <trkpt lat="45.75136" lon="5.94019">
        <ele>329</ele>
        <time>2009-07-05T08:19:07Z</time>
      </trkpt>
      <trkpt lat="45.75125" lon="5.94001">
        <ele>330</ele>
        <time>2009-07-05T08:19:12Z</time>
      </trkpt>
      <trkpt lat="45.75116" lon="5.93985">
        <ele>331</ele>
        <time>2009-07-05T08:19:17Z</time>
      </trkpt>
      <trkpt lat="45.75105" lon="5.93969">
        <ele>333</ele>
        <time>2009-07-05T08:19:22Z</time>
      </trkpt>
      <trkpt lat="45.75096" lon="5.93952">
        <ele>335</ele>
        <time>2009-07-05T08:19:27Z</time>
      </trkpt>
      <trkpt lat="45.75088" lon="5.93937">
        <ele>337</ele>
        <time>2009-07-05T08:19:32Z</time>
      </trkpt>
      <trkpt lat="45.75085" lon="5.93926">
        <ele>339</ele>
        <time>2009-07-05T08:19:38Z</time>
      </trkpt>
      <trkpt lat="45.75081" lon="5.93919">
        <ele>339</ele>
        <time>2009-07-05T08:19:43Z</time>
      </trkpt>
      <trkpt lat="45.75079" lon="5.93907">
        <ele>339</ele>
        <time>2009-07-05T08:19:48Z</time>
      </trkpt>
      <trkpt lat="45.7507" lon="5.93891">
        <ele>339</ele>
        <time>2009-07-05T08:19:53Z</time>
      </trkpt>
      <trkpt lat="45.75058" lon="5.93873">
        <ele>339</ele>
        <time>2009-07-05T08:19:58Z</time>
      </trkpt>
      <trkpt lat="45.75044" lon="5.93852">
        <ele>339</ele>
        <time>2009-07-05T08:20:03Z</time>
      </trkpt>
      <trkpt lat="45.75029" lon="5.93831">
        <ele>339</ele>
        <time>2009-07-05T08:20:08Z</time>
      </trkpt>
      <trkpt lat="45.75015" lon="5.93809">
        <ele>339</ele>
        <time>2009-07-05T08:20:13Z</time>
      </trkpt>
      <trkpt lat="45.75001" lon="5.93783">
        <ele>339</ele>
        <time>2009-07-05T08:20:18Z</time>
      </trkpt>
      <trkpt lat="45.74986" lon="5.93756">
        <ele>339</ele>
        <time>2009-07-05T08:20:23Z</time>
      </trkpt>
      <trkpt lat="45.74972" lon="5.93728">
        <ele>339</ele>
        <time>2009-07-05T08:20:28Z</time>
      </trkpt>
      <trkpt lat="45.74959" lon="5.93698">
        <ele>339</ele>
        <time>2009-07-05T08:20:33Z</time>
      </trkpt>
      <trkpt lat="45.74946" lon="5.93667">
        <ele>339</ele>
        <time>2009-07-05T08:20:38Z</time>
      </trkpt>
      <trkpt lat="45.74932" lon="5.93635">
        <ele>339</ele>
        <time>2009-07-05T08:20:43Z</time>
      </trkpt>
      <trkpt lat="45.7492" lon="5.93605">
        <ele>339</ele>
        <time>2009-07-05T08:20:48Z</time>
      </trkpt>
      <trkpt lat="45.74908" lon="5.93576">
        <ele>339</ele>
        <time>2009-07-05T08:20:53Z</time>
      </trkpt>
      <trkpt lat="45.74895" lon="5.93548">
        <ele>339</ele>
        <time>2009-07-05T08:20:58Z</time>
      </trkpt>
      <trkpt lat="45.74886" lon="5.93528">
        <ele>339</ele>
        <time>2009-07-05T08:21:03Z</time>
      </trkpt>
      <trkpt lat="45.74879" lon="5.93509">
        <ele>339</ele>
        <time>2009-07-05T08:21:08Z</time>
      </trkpt>
      <trkpt lat="45.74871" lon="5.93488">
        <ele>339</ele>
        <time>2009-07-05T08:21:13Z</time>
      </trkpt>
      <trkpt lat="45.74862" lon="5.93464">
        <ele>339</ele>
        <time>2009-07-05T08:21:18Z</time>
      </trkpt>
      <trkpt lat="45.74852" lon="5.93436">
        <ele>339</ele>
        <time>2009-07-05T08:21:23Z</time>
      </trkpt>
      <trkpt lat="45.74841" lon="5.93408">
        <ele>339</ele>
        <time>2009-07-05T08:21:28Z</time>
      </trkpt>
      <trkpt lat="45.7483" lon="5.9338">
        <ele>339</ele>
        <time>2009-07-05T08:21:33Z</time>
      </trkpt>
      <trkpt lat="45.74819" lon="5.93352">
        <ele>339</ele>
        <time>2009-07-05T08:21:38Z</time>
      </trkpt>
      <trkpt lat="45.74807" lon="5.93324">
        <ele>339</ele>
        <time>2009-07-05T08:21:43Z</time>
      </trkpt>
      <trkpt lat="45.74791" lon="5.93291">
        <ele>339</ele>
        <time>2009-07-05T08:21:48Z</time>
      </trkpt>
      <trkpt lat="45.74774" lon="5.93256">
        <ele>338</ele>
        <time>2009-07-05T08:21:53Z</time>
      </trkpt>
      <trkpt lat="45.74758" lon="5.93222">
        <ele>338</ele>
        <time>2009-07-05T08:21:58Z</time>
      </trkpt>
      <trkpt lat="45.74743" lon="5.93192">
        <ele>337</ele>
        <time>2009-07-05T08:22:03Z</time>
      </trkpt>
      <trkpt lat="45.74723" lon="5.93163">
        <ele>333</ele>
        <time>2009-07-05T08:22:09Z</time>
      </trkpt>
      <trkpt lat="45.74712" lon="5.93143">
        <ele>330</ele>
        <time>2009-07-05T08:22:14Z</time>
      </trkpt>
      <trkpt lat="45.74701" lon="5.93126">
        <ele>329</ele>
        <time>2009-07-05T08:22:20Z</time>
      </trkpt>
      <trkpt lat="45.7469" lon="5.93105">
        <ele>329</ele>
        <time>2009-07-05T08:22:25Z</time>
      </trkpt>
      <trkpt lat="45.74674" lon="5.93074">
        <ele>329</ele>
        <time>2009-07-05T08:22:30Z</time>
      </trkpt>
      <trkpt lat="45.74655" lon="5.93043">
        <ele>327</ele>
        <time>2009-07-05T08:22:35Z</time>
      </trkpt>
      <trkpt lat="45.74633" lon="5.93012">
        <ele>324</ele>
        <time>2009-07-05T08:22:41Z</time>
      </trkpt>
      <trkpt lat="45.74617" lon="5.92991">
        <ele>324</ele>
        <time>2009-07-05T08:22:46Z</time>
      </trkpt>
      <trkpt lat="45.74605" lon="5.92975">
        <ele>324</ele>
        <time>2009-07-05T08:22:51Z</time>
      </trkpt>
      <trkpt lat="45.74594" lon="5.92961">
        <ele>324</ele>
        <time>2009-07-05T08:22:56Z</time>
      </trkpt>
      <trkpt lat="45.74582" lon="5.92947">
        <ele>324</ele>
        <time>2009-07-05T08:23:01Z</time>
      </trkpt>
      <trkpt lat="45.74569" lon="5.92932">
        <ele>324</ele>
        <time>2009-07-05T08:23:06Z</time>
      </trkpt>
      <trkpt lat="45.74556" lon="5.92916">
        <ele>324</ele>
        <time>2009-07-05T08:23:11Z</time>
      </trkpt>
      <trkpt lat="45.74537" lon="5.92892">
        <ele>324</ele>
        <time>2009-07-05T08:23:17Z</time>
      </trkpt>
      <trkpt lat="45.74522" lon="5.92868">
        <ele>324</ele>
        <time>2009-07-05T08:23:22Z</time>
      </trkpt>
      <trkpt lat="45.74502" lon="5.92842">
        <ele>324</ele>
        <time>2009-07-05T08:23:27Z</time>
      </trkpt>
      <trkpt lat="45.7447" lon="5.92808">
        <ele>324</ele>
        <time>2009-07-05T08:23:33Z</time>
      </trkpt>
      <trkpt lat="45.74437" lon="5.92769">
        <ele>322</ele>
        <time>2009-07-05T08:23:39Z</time>
      </trkpt>
      <trkpt lat="45.74404" lon="5.92734">
        <ele>319</ele>
        <time>2009-07-05T08:23:44Z</time>
      </trkpt>
      <trkpt lat="45.7437" lon="5.92701">
        <ele>317</ele>
        <time>2009-07-05T08:23:49Z</time>
      </trkpt>
      <trkpt lat="45.74348" lon="5.92672">
        <ele>316</ele>
        <time>2009-07-05T08:23:54Z</time>
      </trkpt>
      <trkpt lat="45.74333" lon="5.92677">
        <ele>316</ele>
        <time>2009-07-05T08:23:59Z</time>
      </trkpt>
      <trkpt lat="45.74301" lon="5.92726">
        <ele>316</ele>
        <time>2009-07-05T08:24:12Z</time>
      </trkpt>
      <trkpt lat="45.74285" lon="5.92734">
        <ele>316</ele>
        <time>2009-07-05T08:24:17Z</time>
      </trkpt>
      <trkpt lat="45.74271" lon="5.92741">
        <ele>316</ele>
        <time>2009-07-05T08:24:22Z</time>
      </trkpt>
      <trkpt lat="45.74257" lon="5.92738">
        <ele>316</ele>
        <time>2009-07-05T08:24:27Z</time>
      </trkpt>
      <trkpt lat="45.74246" lon="5.92737">
        <ele>316</ele>
        <time>2009-07-05T08:24:32Z</time>
      </trkpt>
      <trkpt lat="45.74234" lon="5.92733">
        <ele>317</ele>
        <time>2009-07-05T08:24:37Z</time>
      </trkpt>
      <trkpt lat="45.74223" lon="5.92731">
        <ele>318</ele>
        <time>2009-07-05T08:24:42Z</time>
      </trkpt>
      <trkpt lat="45.74216" lon="5.92729">
        <ele>318</ele>
        <time>2009-07-05T08:24:48Z</time>
      </trkpt>
      <trkpt lat="45.74216" lon="5.9273">
        <ele>319</ele>
        <time>2009-07-05T08:25:00Z</time>
      </trkpt>
      <trkpt lat="45.74217" lon="5.92731">
        <ele>320</ele>
        <time>2009-07-05T08:25:05Z</time>
      </trkpt>
      <trkpt lat="45.74216" lon="5.92731">
        <ele>322</ele>
        <time>2009-07-05T08:25:28Z</time>
      </trkpt>
      <trkpt lat="45.74217" lon="5.92732">
        <ele>322</ele>
        <time>2009-07-05T08:26:03Z</time>
      </trkpt>
      <trkpt lat="45.74216" lon="5.92731">
        <ele>322</ele>
        <time>2009-07-05T08:26:13Z</time>
      </trkpt>
      <trkpt lat="45.74206" lon="5.92732">
        <ele>322</ele>
        <time>2009-07-05T08:26:18Z</time>
      </trkpt>
      <trkpt lat="45.74196" lon="5.92734">
        <ele>322</ele>
        <time>2009-07-05T08:26:23Z</time>
      </trkpt>
      <trkpt lat="45.74186" lon="5.92737">
        <ele>322</ele>
        <time>2009-07-05T08:26:28Z</time>
      </trkpt>
      <trkpt lat="45.74177" lon="5.92737">
        <ele>322</ele>
        <time>2009-07-05T08:26:33Z</time>
      </trkpt>
      <trkpt lat="45.74176" lon="5.92721">
        <ele>322</ele>
        <time>2009-07-05T08:26:38Z</time>
      </trkpt>
      <trkpt lat="45.74179" lon="5.92702">
        <ele>322</ele>
        <time>2009-07-05T08:26:43Z</time>
      </trkpt>
      <trkpt lat="45.7419" lon="5.92681">
        <ele>322</ele>
        <time>2009-07-05T08:26:48Z</time>
      </trkpt>
      <trkpt lat="45.74196" lon="5.92658">
        <ele>322</ele>
        <time>2009-07-05T08:26:53Z</time>
      </trkpt>
      <trkpt lat="45.74188" lon="5.92639">
        <ele>322</ele>
        <time>2009-07-05T08:26:58Z</time>
      </trkpt>
      <trkpt lat="45.74173" lon="5.9263">
        <ele>323</ele>
        <time>2009-07-05T08:27:03Z</time>
      </trkpt>
      <trkpt lat="45.74157" lon="5.92622">
        <ele>323</ele>
        <time>2009-07-05T08:27:08Z</time>
      </trkpt>
      <trkpt lat="45.74139" lon="5.92613">
        <ele>323</ele>
        <time>2009-07-05T08:27:13Z</time>
      </trkpt>
      <trkpt lat="45.74122" lon="5.92608">
        <ele>323</ele>
        <time>2009-07-05T08:27:18Z</time>
      </trkpt>
      <trkpt lat="45.74106" lon="5.92605">
        <ele>323</ele>
        <time>2009-07-05T08:27:23Z</time>
      </trkpt>
      <trkpt lat="45.74089" lon="5.92603">
        <ele>323</ele>
        <time>2009-07-05T08:27:28Z</time>
      </trkpt>
      <trkpt lat="45.74072" lon="5.92601">
        <ele>323</ele>
        <time>2009-07-05T08:27:33Z</time>
      </trkpt>
      <trkpt lat="45.74055" lon="5.92603">
        <ele>323</ele>
        <time>2009-07-05T08:27:38Z</time>
      </trkpt>
      <trkpt lat="45.74038" lon="5.92608">
        <ele>323</ele>
        <time>2009-07-05T08:27:43Z</time>
      </trkpt>
      <trkpt lat="45.74023" lon="5.9261">
        <ele>323</ele>
        <time>2009-07-05T08:27:48Z</time>
      </trkpt>
      <trkpt lat="45.74008" lon="5.9261">
        <ele>323</ele>
        <time>2009-07-05T08:27:53Z</time>
      </trkpt>
      <trkpt lat="45.73993" lon="5.92608">
        <ele>323</ele>
        <time>2009-07-05T08:27:58Z</time>
      </trkpt>
      <trkpt lat="45.73977" lon="5.92604">
        <ele>323</ele>
        <time>2009-07-05T08:28:03Z</time>
      </trkpt>
      <trkpt lat="45.73962" lon="5.92601">
        <ele>323</ele>
        <time>2009-07-05T08:28:08Z</time>
      </trkpt>
      <trkpt lat="45.73946" lon="5.926">
        <ele>324</ele>
        <time>2009-07-05T08:28:13Z</time>
      </trkpt>
      <trkpt lat="45.7393" lon="5.92601">
        <ele>324</ele>
        <time>2009-07-05T08:28:18Z</time>
      </trkpt>
      <trkpt lat="45.73914" lon="5.92603">
        <ele>324</ele>
        <time>2009-07-05T08:28:23Z</time>
      </trkpt>
      <trkpt lat="45.73899" lon="5.92606">
        <ele>325</ele>
        <time>2009-07-05T08:28:28Z</time>
      </trkpt>
      <trkpt lat="45.73884" lon="5.92609">
        <ele>325</ele>
        <time>2009-07-05T08:28:33Z</time>
      </trkpt>
      <trkpt lat="45.7387" lon="5.92611">
        <ele>326</ele>
        <time>2009-07-05T08:28:38Z</time>
      </trkpt>
      <trkpt lat="45.73856" lon="5.92612">
        <ele>327</ele>
        <time>2009-07-05T08:28:43Z</time>
      </trkpt>
      <trkpt lat="45.73837" lon="5.92612">
        <ele>328</ele>
        <time>2009-07-05T08:28:49Z</time>
      </trkpt>
      <trkpt lat="45.73821" lon="5.92612">
        <ele>330</ele>
        <time>2009-07-05T08:28:55Z</time>
      </trkpt>
      <trkpt lat="45.73807" lon="5.92612">
        <ele>331</ele>
        <time>2009-07-05T08:29:00Z</time>
      </trkpt>
      <trkpt lat="45.73793" lon="5.9261">
        <ele>332</ele>
        <time>2009-07-05T08:29:05Z</time>
      </trkpt>
      <trkpt lat="45.73779" lon="5.92609">
        <ele>333</ele>
        <time>2009-07-05T08:29:10Z</time>
      </trkpt>
      <trkpt lat="45.73765" lon="5.92606">
        <ele>335</ele>
        <time>2009-07-05T08:29:15Z</time>
      </trkpt>
      <trkpt lat="45.7375" lon="5.92601">
        <ele>337</ele>
        <time>2009-07-05T08:29:21Z</time>
      </trkpt>
      <trkpt lat="45.7374" lon="5.926">
        <ele>338</ele>
        <time>2009-07-05T08:29:26Z</time>
      </trkpt>
      <trkpt lat="45.7373" lon="5.92595">
        <ele>339</ele>
        <time>2009-07-05T08:29:31Z</time>
      </trkpt>
      <trkpt lat="45.73719" lon="5.92592">
        <ele>339</ele>
        <time>2009-07-05T08:29:36Z</time>
      </trkpt>
      <trkpt lat="45.73709" lon="5.9259">
        <ele>340</ele>
        <time>2009-07-05T08:29:41Z</time>
      </trkpt>
      <trkpt lat="45.73699" lon="5.92587">
        <ele>340</ele>
        <time>2009-07-05T08:29:46Z</time>
      </trkpt>
      <trkpt lat="45.73689" lon="5.92584">
        <ele>340</ele>
        <time>2009-07-05T08:29:51Z</time>
      </trkpt>
      <trkpt lat="45.73678" lon="5.92582">
        <ele>340</ele>
        <time>2009-07-05T08:29:56Z</time>
      </trkpt>
      <trkpt lat="45.73667" lon="5.92581">
        <ele>340</ele>
        <time>2009-07-05T08:30:01Z</time>
      </trkpt>
      <trkpt lat="45.73652" lon="5.92584">
        <ele>340</ele>
        <time>2009-07-05T08:30:06Z</time>
      </trkpt>
      <trkpt lat="45.73636" lon="5.92593">
        <ele>340</ele>
        <time>2009-07-05T08:30:11Z</time>
      </trkpt>
      <trkpt lat="45.73618" lon="5.92603">
        <ele>340</ele>
        <time>2009-07-05T08:30:16Z</time>
      </trkpt>
      <trkpt lat="45.73596" lon="5.92604">
        <ele>340</ele>
        <time>2009-07-05T08:30:21Z</time>
      </trkpt>
      <trkpt lat="45.7357" lon="5.92604">
        <ele>340</ele>
        <time>2009-07-05T08:30:26Z</time>
      </trkpt>
      <trkpt lat="45.73544" lon="5.9261">
        <ele>339</ele>
        <time>2009-07-05T08:30:31Z</time>
      </trkpt>
      <trkpt lat="45.73524" lon="5.9262">
        <ele>337</ele>
        <time>2009-07-05T08:30:36Z</time>
      </trkpt>
      <trkpt lat="45.73512" lon="5.92634">
        <ele>336</ele>
        <time>2009-07-05T08:30:41Z</time>
      </trkpt>
      <trkpt lat="45.73501" lon="5.92661">
        <ele>334</ele>
        <time>2009-07-05T08:30:46Z</time>
      </trkpt>
      <trkpt lat="45.73486" lon="5.92683">
        <ele>333</ele>
        <time>2009-07-05T08:30:51Z</time>
      </trkpt>
      <trkpt lat="45.73462" lon="5.92697">
        <ele>331</ele>
        <time>2009-07-05T08:30:56Z</time>
      </trkpt>
      <trkpt lat="45.73435" lon="5.92706">
        <ele>328</ele>
        <time>2009-07-05T08:31:01Z</time>
      </trkpt>
      <trkpt lat="45.73406" lon="5.92711">
        <ele>327</ele>
        <time>2009-07-05T08:31:06Z</time>
      </trkpt>
      <trkpt lat="45.73379" lon="5.92713">
        <ele>326</ele>
        <time>2009-07-05T08:31:11Z</time>
      </trkpt>
      <trkpt lat="45.73354" lon="5.92713">
        <ele>325</ele>
        <time>2009-07-05T08:31:16Z</time>
      </trkpt>
      <trkpt lat="45.73332" lon="5.92713">
        <ele>324</ele>
        <time>2009-07-05T08:31:21Z</time>
      </trkpt>
      <trkpt lat="45.73308" lon="5.92715">
        <ele>321</ele>
        <time>2009-07-05T08:31:26Z</time>
      </trkpt>
      <trkpt lat="45.73291" lon="5.92718">
        <ele>318</ele>
        <time>2009-07-05T08:31:31Z</time>
      </trkpt>
      <trkpt lat="45.73278" lon="5.92727">
        <ele>318</ele>
        <time>2009-07-05T08:31:36Z</time>
      </trkpt>
      <trkpt lat="45.73268" lon="5.92735">
        <ele>318</ele>
        <time>2009-07-05T08:31:41Z</time>
      </trkpt>
      <trkpt lat="45.73255" lon="5.92741">
        <ele>321</ele>
        <time>2009-07-05T08:31:46Z</time>
      </trkpt>
      <trkpt lat="45.73238" lon="5.92743">
        <ele>322</ele>
        <time>2009-07-05T08:31:51Z</time>
      </trkpt>
      <trkpt lat="45.73221" lon="5.92743">
        <ele>323</ele>
        <time>2009-07-05T08:31:56Z</time>
      </trkpt>
      <trkpt lat="45.73204" lon="5.92742">
        <ele>323</ele>
        <time>2009-07-05T08:32:01Z</time>
      </trkpt>
      <trkpt lat="45.73186" lon="5.92741">
        <ele>323</ele>
        <time>2009-07-05T08:32:06Z</time>
      </trkpt>
      <trkpt lat="45.73175" lon="5.9276">
        <ele>323</ele>
        <time>2009-07-05T08:32:11Z</time>
      </trkpt>
      <trkpt lat="45.73171" lon="5.92784">
        <ele>324</ele>
        <time>2009-07-05T08:32:16Z</time>
      </trkpt>
      <trkpt lat="45.73171" lon="5.92808">
        <ele>324</ele>
        <time>2009-07-05T08:32:21Z</time>
      </trkpt>
      <trkpt lat="45.73164" lon="5.92832">
        <ele>325</ele>
        <time>2009-07-05T08:32:26Z</time>
      </trkpt>
      <trkpt lat="45.7315" lon="5.92846">
        <ele>325</ele>
        <time>2009-07-05T08:32:31Z</time>
      </trkpt>
      <trkpt lat="45.73132" lon="5.92852">
        <ele>326</ele>
        <time>2009-07-05T08:32:36Z</time>
      </trkpt>
      <trkpt lat="45.73111" lon="5.92857">
        <ele>327</ele>
        <time>2009-07-05T08:32:41Z</time>
      </trkpt>
      <trkpt lat="45.7309" lon="5.92866">
        <ele>327</ele>
        <time>2009-07-05T08:32:46Z</time>
      </trkpt>
      <trkpt lat="45.73069" lon="5.92861">
        <ele>327</ele>
        <time>2009-07-05T08:32:51Z</time>
      </trkpt>
      <trkpt lat="45.73049" lon="5.92851">
        <ele>327</ele>
        <time>2009-07-05T08:32:56Z</time>
      </trkpt>
      <trkpt lat="45.73026" lon="5.92848">
        <ele>327</ele>
        <time>2009-07-05T08:33:01Z</time>
      </trkpt>
      <trkpt lat="45.73001" lon="5.92852">
        <ele>327</ele>
        <time>2009-07-05T08:33:06Z</time>
      </trkpt>
      <trkpt lat="45.72977" lon="5.92858">
        <ele>326</ele>
        <time>2009-07-05T08:33:11Z</time>
      </trkpt>
      <trkpt lat="45.72953" lon="5.92864">
        <ele>326</ele>
        <time>2009-07-05T08:33:16Z</time>
      </trkpt>
      <trkpt lat="45.72928" lon="5.92869">
        <ele>326</ele>
        <time>2009-07-05T08:33:21Z</time>
      </trkpt>
      <trkpt lat="45.72898" lon="5.92878">
        <ele>326</ele>
        <time>2009-07-05T08:33:26Z</time>
      </trkpt>
      <trkpt lat="45.72866" lon="5.92889">
        <ele>325</ele>
        <time>2009-07-05T08:33:31Z</time>
      </trkpt>
      <trkpt lat="45.72829" lon="5.92902">
        <ele>324</ele>
        <time>2009-07-05T08:33:36Z</time>
      </trkpt>
      <trkpt lat="45.72789" lon="5.92923">
        <ele>324</ele>
        <time>2009-07-05T08:33:41Z</time>
      </trkpt>
      <trkpt lat="45.72756" lon="5.9294">
        <ele>324</ele>
        <time>2009-07-05T08:33:46Z</time>
      </trkpt>
      <trkpt lat="45.72732" lon="5.92958">
        <ele>324</ele>
        <time>2009-07-05T08:33:51Z</time>
      </trkpt>
      <trkpt lat="45.72709" lon="5.9298">
        <ele>324</ele>
        <time>2009-07-05T08:33:56Z</time>
      </trkpt>
      <trkpt lat="45.72685" lon="5.93004">
        <ele>324</ele>
        <time>2009-07-05T08:34:01Z</time>
      </trkpt>
      <trkpt lat="45.72661" lon="5.9303">
        <ele>324</ele>
        <time>2009-07-05T08:34:06Z</time>
      </trkpt>
      <trkpt lat="45.72644" lon="5.93057">
        <ele>324</ele>
        <time>2009-07-05T08:34:11Z</time>
      </trkpt>
      <trkpt lat="45.72638" lon="5.93072">
        <ele>324</ele>
        <time>2009-07-05T08:34:16Z</time>
      </trkpt>
      <trkpt lat="45.72626" lon="5.93086">
        <ele>324</ele>
        <time>2009-07-05T08:34:21Z</time>
      </trkpt>
      <trkpt lat="45.72607" lon="5.93112">
        <ele>324</ele>
        <time>2009-07-05T08:34:26Z</time>
      </trkpt>
      <trkpt lat="45.7259" lon="5.9315">
        <ele>321</ele>
        <time>2009-07-05T08:34:31Z</time>
      </trkpt>
      <trkpt lat="45.72573" lon="5.93205">
        <ele>316</ele>
        <time>2009-07-05T08:34:36Z</time>
      </trkpt>
      <trkpt lat="45.72533" lon="5.93243">
        <ele>311</ele>
        <time>2009-07-05T08:34:41Z</time>
      </trkpt>
      <trkpt lat="45.725" lon="5.93257">
        <ele>306</ele>
        <time>2009-07-05T08:34:46Z</time>
      </trkpt>
      <trkpt lat="45.72491" lon="5.93261">
        <ele>301</ele>
        <time>2009-07-05T08:34:51Z</time>
      </trkpt>
      <trkpt lat="45.72489" lon="5.93263">
        <ele>295</ele>
        <time>2009-07-05T08:34:58Z</time>
      </trkpt>
      <trkpt lat="45.72488" lon="5.93277">
        <ele>295</ele>
        <time>2009-07-05T08:35:03Z</time>
      </trkpt>
      <trkpt lat="45.72489" lon="5.933">
        <ele>295</ele>
        <time>2009-07-05T08:35:08Z</time>
      </trkpt>
      <trkpt lat="45.72488" lon="5.9332">
        <ele>295</ele>
        <time>2009-07-05T08:35:13Z</time>
      </trkpt>
      <trkpt lat="45.72489" lon="5.93333">
        <ele>297</ele>
        <time>2009-07-05T08:35:18Z</time>
      </trkpt>
      <trkpt lat="45.72489" lon="5.93348">
        <ele>298</ele>
        <time>2009-07-05T08:35:23Z</time>
      </trkpt>
      <trkpt lat="45.7249" lon="5.93363">
        <ele>299</ele>
        <time>2009-07-05T08:35:28Z</time>
      </trkpt>
      <trkpt lat="45.72491" lon="5.93379">
        <ele>301</ele>
        <time>2009-07-05T08:35:33Z</time>
      </trkpt>
      <trkpt lat="45.72491" lon="5.93394">
        <ele>303</ele>
        <time>2009-07-05T08:35:38Z</time>
      </trkpt>
      <trkpt lat="45.72485" lon="5.93406">
        <ele>304</ele>
        <time>2009-07-05T08:35:43Z</time>
      </trkpt>
      <trkpt lat="45.72477" lon="5.93406">
        <ele>307</ele>
        <time>2009-07-05T08:35:48Z</time>
      </trkpt>
      <trkpt lat="45.72473" lon="5.93398">
        <ele>308</ele>
        <time>2009-07-05T08:35:53Z</time>
      </trkpt>
      <trkpt lat="45.72469" lon="5.93389">
        <ele>309</ele>
        <time>2009-07-05T08:35:58Z</time>
      </trkpt>
      <trkpt lat="45.72467" lon="5.93379">
        <ele>311</ele>
        <time>2009-07-05T08:36:03Z</time>
      </trkpt>
      <trkpt lat="45.72463" lon="5.93369">
        <ele>313</ele>
        <time>2009-07-05T08:36:08Z</time>
      </trkpt>
      <trkpt lat="45.72459" lon="5.93358">
        <ele>314</ele>
        <time>2009-07-05T08:36:13Z</time>
      </trkpt>
      <trkpt lat="45.72454" lon="5.93347">
        <ele>314</ele>
        <time>2009-07-05T08:36:18Z</time>
      </trkpt>
      <trkpt lat="45.7245" lon="5.93335">
        <ele>314</ele>
        <time>2009-07-05T08:36:23Z</time>
      </trkpt>
      <trkpt lat="45.72448" lon="5.93322">
        <ele>314</ele>
        <time>2009-07-05T08:36:28Z</time>
      </trkpt>
      <trkpt lat="45.72448" lon="5.93308">
        <ele>316</ele>
        <time>2009-07-05T08:36:33Z</time>
      </trkpt>
      <trkpt lat="45.72441" lon="5.933">
        <ele>318</ele>
        <time>2009-07-05T08:36:38Z</time>
      </trkpt>
      <trkpt lat="45.72434" lon="5.93305">
        <ele>318</ele>
        <time>2009-07-05T08:36:43Z</time>
      </trkpt>
      <trkpt lat="45.72432" lon="5.93314">
        <ele>320</ele>
        <time>2009-07-05T08:36:48Z</time>
      </trkpt>
      <trkpt lat="45.72429" lon="5.93324">
        <ele>324</ele>
        <time>2009-07-05T08:36:53Z</time>
      </trkpt>
      <trkpt lat="45.72426" lon="5.93333">
        <ele>328</ele>
        <time>2009-07-05T08:36:58Z</time>
      </trkpt>
      <trkpt lat="45.72423" lon="5.93342">
        <ele>333</ele>
        <time>2009-07-05T08:37:03Z</time>
      </trkpt>
      <trkpt lat="45.72416" lon="5.93348">
        <ele>336</ele>
        <time>2009-07-05T08:37:08Z</time>
      </trkpt>
      <trkpt lat="45.72413" lon="5.93345">
        <ele>337</ele>
        <time>2009-07-05T08:37:14Z</time>
      </trkpt>
      <trkpt lat="45.72413" lon="5.93336">
        <ele>337</ele>
        <time>2009-07-05T08:37:19Z</time>
      </trkpt>
      <trkpt lat="45.72412" lon="5.93325">
        <ele>337</ele>
        <time>2009-07-05T08:37:24Z</time>
      </trkpt>
      <trkpt lat="45.72409" lon="5.93314">
        <ele>337</ele>
        <time>2009-07-05T08:37:29Z</time>
      </trkpt>
      <trkpt lat="45.72407" lon="5.93304">
        <ele>337</ele>
        <time>2009-07-05T08:37:34Z</time>
      </trkpt>
      <trkpt lat="45.72404" lon="5.93293">
        <ele>338</ele>
        <time>2009-07-05T08:37:39Z</time>
      </trkpt>
      <trkpt lat="45.72402" lon="5.93282">
        <ele>341</ele>
        <time>2009-07-05T08:37:44Z</time>
      </trkpt>
      <trkpt lat="45.72393" lon="5.93286">
        <ele>342</ele>
        <time>2009-07-05T08:37:49Z</time>
      </trkpt>
      <trkpt lat="45.72384" lon="5.9329">
        <ele>343</ele>
        <time>2009-07-05T08:37:54Z</time>
      </trkpt>
      <trkpt lat="45.72378" lon="5.93301">
        <ele>343</ele>
        <time>2009-07-05T08:37:59Z</time>
      </trkpt>
      <trkpt lat="45.72372" lon="5.9331">
        <ele>344</ele>
        <time>2009-07-05T08:38:04Z</time>
      </trkpt>
      <trkpt lat="45.72365" lon="5.93319">
        <ele>344</ele>
        <time>2009-07-05T08:38:09Z</time>
      </trkpt>
      <trkpt lat="45.72358" lon="5.93328">
        <ele>344</ele>
        <time>2009-07-05T08:38:15Z</time>
      </trkpt>
      <trkpt lat="45.72353" lon="5.93338">
        <ele>344</ele>
        <time>2009-07-05T08:38:20Z</time>
      </trkpt>
      <trkpt lat="45.72347" lon="5.93348">
        <ele>344</ele>
        <time>2009-07-05T08:38:25Z</time>
      </trkpt>
      <trkpt lat="45.7234" lon="5.93355">
        <ele>346</ele>
        <time>2009-07-05T08:38:30Z</time>
      </trkpt>
      <trkpt lat="45.72331" lon="5.93364">
        <ele>347</ele>
        <time>2009-07-05T08:38:35Z</time>
      </trkpt>
      <trkpt lat="45.72326" lon="5.93376">
        <ele>348</ele>
        <time>2009-07-05T08:38:40Z</time>
      </trkpt>
      <trkpt lat="45.72327" lon="5.93385">
        <ele>349</ele>
        <time>2009-07-05T08:38:45Z</time>
      </trkpt>
      <trkpt lat="45.72325" lon="5.93395">
        <ele>349</ele>
        <time>2009-07-05T08:38:50Z</time>
      </trkpt>
      <trkpt lat="45.72326" lon="5.934">
        <ele>349</ele>
        <time>2009-07-05T08:38:58Z</time>
      </trkpt>
      <trkpt lat="45.72331" lon="5.93408">
        <ele>351</ele>
        <time>2009-07-05T08:39:05Z</time>
      </trkpt>
      <trkpt lat="45.72334" lon="5.93422">
        <ele>351</ele>
        <time>2009-07-05T08:39:10Z</time>
      </trkpt>
      <trkpt lat="45.72333" lon="5.93439">
        <ele>351</ele>
        <time>2009-07-05T08:39:15Z</time>
      </trkpt>
      <trkpt lat="45.72333" lon="5.93443">
        <ele>351</ele>
        <time>2009-07-05T08:39:20Z</time>
      </trkpt>
      <trkpt lat="45.72333" lon="5.93448">
        <ele>351</ele>
        <time>2009-07-05T08:39:30Z</time>
      </trkpt>
      <trkpt lat="45.72334" lon="5.93449">
        <ele>347</ele>
        <time>2009-07-05T08:39:39Z</time>
      </trkpt>
      <trkpt lat="45.72336" lon="5.93449">
        <ele>344</ele>
        <time>2009-07-05T08:39:47Z</time>
      </trkpt>
      <trkpt lat="45.72336" lon="5.93447">
        <ele>344</ele>
        <time>2009-07-05T08:39:53Z</time>
      </trkpt>
      <trkpt lat="45.72335" lon="5.93448">
        <ele>343</ele>
        <time>2009-07-05T08:40:00Z</time>
      </trkpt>
      <trkpt lat="45.72334" lon="5.93448">
        <ele>344</ele>
        <time>2009-07-05T08:40:08Z</time>
      </trkpt>
      <trkpt lat="45.72335" lon="5.93447">
        <ele>353</ele>
        <time>2009-07-05T08:41:03Z</time>
      </trkpt>
      <trkpt lat="45.72336" lon="5.93446">
        <ele>353</ele>
        <time>2009-07-05T08:42:03Z</time>
      </trkpt>
      <trkpt lat="45.72337" lon="5.93444">
        <ele>353</ele>
        <time>2009-07-05T08:42:31Z</time>
      </trkpt>
      <trkpt lat="45.72335" lon="5.93442">
        <ele>353</ele>
        <time>2009-07-05T08:42:40Z</time>
      </trkpt>
      <trkpt lat="45.72333" lon="5.9344">
        <ele>353</ele>
        <time>2009-07-05T08:42:51Z</time>
      </trkpt>
      <trkpt lat="45.72332" lon="5.93439">
        <ele>352</ele>
        <time>2009-07-05T08:42:58Z</time>
      </trkpt>
      <trkpt lat="45.72332" lon="5.93441">
        <ele>352</ele>
        <time>2009-07-05T08:43:03Z</time>
      </trkpt>
      <trkpt lat="45.72331" lon="5.93442">
        <ele>352</ele>
        <time>2009-07-05T08:43:08Z</time>
      </trkpt>
      <trkpt lat="45.72329" lon="5.93443">
        <ele>352</ele>
        <time>2009-07-05T08:43:24Z</time>
      </trkpt>
      <trkpt lat="45.72328" lon="5.93455">
        <ele>352</ele>
        <time>2009-07-05T08:43:29Z</time>
      </trkpt>
      <trkpt lat="45.72325" lon="5.93467">
        <ele>352</ele>
        <time>2009-07-05T08:43:34Z</time>
      </trkpt>
      <trkpt lat="45.72327" lon="5.93481">
        <ele>352</ele>
        <time>2009-07-05T08:43:39Z</time>
      </trkpt>
      <trkpt lat="45.72327" lon="5.9349">
        <ele>350</ele>
        <time>2009-07-05T08:44:16Z</time>
      </trkpt>
      <trkpt lat="45.72327" lon="5.93494">
        <ele>350</ele>
        <time>2009-07-05T08:44:24Z</time>
      </trkpt>
      <trkpt lat="45.72328" lon="5.93495">
        <ele>349</ele>
        <time>2009-07-05T08:45:11Z</time>
      </trkpt>
      <trkpt lat="45.72328" lon="5.93494">
        <ele>349</ele>
        <time>2009-07-05T08:45:23Z</time>
      </trkpt>
      <trkpt lat="45.72329" lon="5.93495">
        <ele>349</ele>
        <time>2009-07-05T08:45:32Z</time>
      </trkpt>
      <trkpt lat="45.7233" lon="5.93502">
        <ele>349</ele>
        <time>2009-07-05T08:45:37Z</time>
      </trkpt>
      <trkpt lat="45.72336" lon="5.93515">
        <ele>349</ele>
        <time>2009-07-05T08:45:42Z</time>
      </trkpt>
      <trkpt lat="45.72344" lon="5.93532">
        <ele>349</ele>
        <time>2009-07-05T08:45:48Z</time>
      </trkpt>
      <trkpt lat="45.7235" lon="5.93546">
        <ele>349</ele>
        <time>2009-07-05T08:45:53Z</time>
      </trkpt>
      <trkpt lat="45.72356" lon="5.93556">
        <ele>349</ele>
        <time>2009-07-05T08:45:58Z</time>
      </trkpt>
      <trkpt lat="45.72364" lon="5.93569">
        <ele>349</ele>
        <time>2009-07-05T08:46:03Z</time>
      </trkpt>
      <trkpt lat="45.7237" lon="5.93584">
        <ele>349</ele>
        <time>2009-07-05T08:46:08Z</time>
      </trkpt>
      <trkpt lat="45.72376" lon="5.93596">
        <ele>351</ele>
        <time>2009-07-05T08:46:13Z</time>
      </trkpt>
      <trkpt lat="45.72385" lon="5.93605">
        <ele>353</ele>
        <time>2009-07-05T08:46:18Z</time>
      </trkpt>
      <trkpt lat="45.72395" lon="5.93616">
        <ele>353</ele>
        <time>2009-07-05T08:46:23Z</time>
      </trkpt>
      <trkpt lat="45.72406" lon="5.93625">
        <ele>353</ele>
        <time>2009-07-05T08:46:28Z</time>
      </trkpt>
      <trkpt lat="45.72416" lon="5.93637">
        <ele>354</ele>
        <time>2009-07-05T08:46:33Z</time>
      </trkpt>
      <trkpt lat="45.72429" lon="5.93654">
        <ele>354</ele>
        <time>2009-07-05T08:46:38Z</time>
      </trkpt>
      <trkpt lat="45.7244" lon="5.93675">
        <ele>354</ele>
        <time>2009-07-05T08:46:43Z</time>
      </trkpt>
      <trkpt lat="45.7245" lon="5.93686">
        <ele>354</ele>
        <time>2009-07-05T08:46:48Z</time>
      </trkpt>
      <trkpt lat="45.72458" lon="5.93693">
        <ele>355</ele>
        <time>2009-07-05T08:46:53Z</time>
      </trkpt>
      <trkpt lat="45.7247" lon="5.93696">
        <ele>359</ele>
        <time>2009-07-05T08:46:58Z</time>
      </trkpt>
      <trkpt lat="45.72481" lon="5.93706">
        <ele>360</ele>
        <time>2009-07-05T08:47:03Z</time>
      </trkpt>
      <trkpt lat="45.7249" lon="5.93716">
        <ele>360</ele>
        <time>2009-07-05T08:47:08Z</time>
      </trkpt>
      <trkpt lat="45.72498" lon="5.9373">
        <ele>360</ele>
        <time>2009-07-05T08:47:13Z</time>
      </trkpt>
      <trkpt lat="45.72506" lon="5.93745">
        <ele>361</ele>
        <time>2009-07-05T08:47:18Z</time>
      </trkpt>
      <trkpt lat="45.72513" lon="5.93759">
        <ele>363</ele>
        <time>2009-07-05T08:47:23Z</time>
      </trkpt>
      <trkpt lat="45.72511" lon="5.93775">
        <ele>366</ele>
        <time>2009-07-05T08:47:28Z</time>
      </trkpt>
      <trkpt lat="45.72493" lon="5.93792">
        <ele>368</ele>
        <time>2009-07-05T08:47:33Z</time>
      </trkpt>
      <trkpt lat="45.72478" lon="5.93807">
        <ele>369</ele>
        <time>2009-07-05T08:47:38Z</time>
      </trkpt>
      <trkpt lat="45.72462" lon="5.93822">
        <ele>369</ele>
        <time>2009-07-05T08:47:43Z</time>
      </trkpt>
      <trkpt lat="45.7245" lon="5.93839">
        <ele>369</ele>
        <time>2009-07-05T08:47:48Z</time>
      </trkpt>
      <trkpt lat="45.72444" lon="5.93858">
        <ele>369</ele>
        <time>2009-07-05T08:47:53Z</time>
      </trkpt>
      <trkpt lat="45.7244" lon="5.93878">
        <ele>369</ele>
        <time>2009-07-05T08:47:58Z</time>
      </trkpt>
      <trkpt lat="45.72439" lon="5.93898">
        <ele>370</ele>
        <time>2009-07-05T08:48:03Z</time>
      </trkpt>
      <trkpt lat="45.72438" lon="5.93923">
        <ele>371</ele>
        <time>2009-07-05T08:48:08Z</time>
      </trkpt>
      <trkpt lat="45.7244" lon="5.93947">
        <ele>371</ele>
        <time>2009-07-05T08:48:13Z</time>
      </trkpt>
      <trkpt lat="45.7244" lon="5.93965">
        <ele>371</ele>
        <time>2009-07-05T08:48:18Z</time>
      </trkpt>
      <trkpt lat="45.72441" lon="5.93993">
        <ele>371</ele>
        <time>2009-07-05T08:48:23Z</time>
      </trkpt>
      <trkpt lat="45.72447" lon="5.94015">
        <ele>367</ele>
        <time>2009-07-05T08:48:28Z</time>
      </trkpt>
      <trkpt lat="45.72453" lon="5.94046">
        <ele>364</ele>
        <time>2009-07-05T08:48:35Z</time>
      </trkpt>
      <trkpt lat="45.7246" lon="5.94075">
        <ele>364</ele>
        <time>2009-07-05T08:48:40Z</time>
      </trkpt>
      <trkpt lat="45.72466" lon="5.94091">
        <ele>366</ele>
        <time>2009-07-05T08:48:45Z</time>
      </trkpt>
      <trkpt lat="45.72476" lon="5.94113">
        <ele>369</ele>
        <time>2009-07-05T08:48:50Z</time>
      </trkpt>
      <trkpt lat="45.72489" lon="5.94144">
        <ele>369</ele>
        <time>2009-07-05T08:48:55Z</time>
      </trkpt>
      <trkpt lat="45.72499" lon="5.94171">
        <ele>369</ele>
        <time>2009-07-05T08:49:00Z</time>
      </trkpt>
      <trkpt lat="45.72501" lon="5.94195">
        <ele>373</ele>
        <time>2009-07-05T08:49:06Z</time>
      </trkpt>
      <trkpt lat="45.72495" lon="5.94207">
        <ele>379</ele>
        <time>2009-07-05T08:49:11Z</time>
      </trkpt>
      <trkpt lat="45.72491" lon="5.94222">
        <ele>389</ele>
        <time>2009-07-05T08:49:16Z</time>
      </trkpt>
      <trkpt lat="45.72492" lon="5.94249">
        <ele>397</ele>
        <time>2009-07-05T08:49:21Z</time>
      </trkpt>
      <trkpt lat="45.72487" lon="5.94282">
        <ele>402</ele>
        <time>2009-07-05T08:49:26Z</time>
      </trkpt>
      <trkpt lat="45.72482" lon="5.94331">
        <ele>404</ele>
        <time>2009-07-05T08:49:31Z</time>
      </trkpt>
      <trkpt lat="45.72475" lon="5.94361">
        <ele>404</ele>
        <time>2009-07-05T08:49:36Z</time>
      </trkpt>
      <trkpt lat="45.72466" lon="5.94387">
        <ele>403</ele>
        <time>2009-07-05T08:49:41Z</time>
      </trkpt>
      <trkpt lat="45.72461" lon="5.94424">
        <ele>400</ele>
        <time>2009-07-05T08:49:46Z</time>
      </trkpt>
      <trkpt lat="45.72463" lon="5.94451">
        <ele>392</ele>
        <time>2009-07-05T08:49:51Z</time>
      </trkpt>
      <trkpt lat="45.72463" lon="5.9447">
        <ele>387</ele>
        <time>2009-07-05T08:49:56Z</time>
      </trkpt>
      <trkpt lat="45.7246" lon="5.94485">
        <ele>385</ele>
        <time>2009-07-05T08:50:01Z</time>
      </trkpt>
      <trkpt lat="45.72456" lon="5.94514">
        <ele>385</ele>
        <time>2009-07-05T08:50:06Z</time>
      </trkpt>
      <trkpt lat="45.72453" lon="5.94536">
        <ele>382</ele>
        <time>2009-07-05T08:50:11Z</time>
      </trkpt>
      <trkpt lat="45.72447" lon="5.94545">
        <ele>382</ele>
        <time>2009-07-05T08:50:16Z</time>
      </trkpt>
      <trkpt lat="45.72438" lon="5.94554">
        <ele>382</ele>
        <time>2009-07-05T08:50:21Z</time>
      </trkpt>
      <trkpt lat="45.72437" lon="5.9456">
        <ele>386</ele>
        <time>2009-07-05T08:50:27Z</time>
      </trkpt>
      <trkpt lat="45.72439" lon="5.94559">
        <ele>386</ele>
        <time>2009-07-05T08:50:32Z</time>
      </trkpt>
      <trkpt lat="45.72443" lon="5.94558">
        <ele>387</ele>
        <time>2009-07-05T08:50:37Z</time>
      </trkpt>
      <trkpt lat="45.72445" lon="5.94557">
        <ele>396</ele>
        <time>2009-07-05T08:50:46Z</time>
      </trkpt>
      <trkpt lat="45.72447" lon="5.94548">
        <ele>401</ele>
        <time>2009-07-05T08:50:51Z</time>
      </trkpt>
      <trkpt lat="45.72445" lon="5.94536">
        <ele>403</ele>
        <time>2009-07-05T08:50:56Z</time>
      </trkpt>
      <trkpt lat="45.72446" lon="5.94525">
        <ele>405</ele>
        <time>2009-07-05T08:51:01Z</time>
      </trkpt>
      <trkpt lat="45.72444" lon="5.94512">
        <ele>407</ele>
        <time>2009-07-05T08:51:06Z</time>
      </trkpt>
      <trkpt lat="45.72446" lon="5.94504">
        <ele>408</ele>
        <time>2009-07-05T08:51:11Z</time>
      </trkpt>
      <trkpt lat="45.72444" lon="5.94494">
        <ele>408</ele>
        <time>2009-07-05T08:51:16Z</time>
      </trkpt>
      <trkpt lat="45.72444" lon="5.94483">
        <ele>408</ele>
        <time>2009-07-05T08:51:21Z</time>
      </trkpt>
      <trkpt lat="45.72442" lon="5.94472">
        <ele>408</ele>
        <time>2009-07-05T08:51:26Z</time>
      </trkpt>
      <trkpt lat="45.7244" lon="5.94465">
        <ele>410</ele>
        <time>2009-07-05T08:51:31Z</time>
      </trkpt>
      <trkpt lat="45.72442" lon="5.94459">
        <ele>415</ele>
        <time>2009-07-05T08:51:36Z</time>
      </trkpt>
      <trkpt lat="45.72441" lon="5.94446">
        <ele>415</ele>
        <time>2009-07-05T08:51:41Z</time>
      </trkpt>
      <trkpt lat="45.72439" lon="5.94433">
        <ele>415</ele>
        <time>2009-07-05T08:51:46Z</time>
      </trkpt>
      <trkpt lat="45.72438" lon="5.94419">
        <ele>415</ele>
        <time>2009-07-05T08:51:51Z</time>
      </trkpt>
      <trkpt lat="45.72437" lon="5.94407">
        <ele>413</ele>
        <time>2009-07-05T08:51:56Z</time>
      </trkpt>
      <trkpt lat="45.72439" lon="5.94394">
        <ele>413</ele>
        <time>2009-07-05T08:52:01Z</time>
      </trkpt>
      <trkpt lat="45.7244" lon="5.94382">
        <ele>413</ele>
        <time>2009-07-05T08:52:06Z</time>
      </trkpt>
      <trkpt lat="45.72439" lon="5.94368">
        <ele>416</ele>
        <time>2009-07-05T08:52:11Z</time>
      </trkpt>
      <trkpt lat="45.72438" lon="5.94357">
        <ele>420</ele>
        <time>2009-07-05T08:52:16Z</time>
      </trkpt>
      <trkpt lat="45.7244" lon="5.9434">
        <ele>425</ele>
        <time>2009-07-05T08:52:21Z</time>
      </trkpt>
      <trkpt lat="45.72442" lon="5.94325">
        <ele>430</ele>
        <time>2009-07-05T08:52:26Z</time>
      </trkpt>
      <trkpt lat="45.72447" lon="5.94303">
        <ele>431</ele>
        <time>2009-07-05T08:52:31Z</time>
      </trkpt>
      <trkpt lat="45.72445" lon="5.94287">
        <ele>430</ele>
        <time>2009-07-05T08:52:36Z</time>
      </trkpt>
      <trkpt lat="45.72445" lon="5.94273">
        <ele>425</ele>
        <time>2009-07-05T08:52:41Z</time>
      </trkpt>
      <trkpt lat="45.72452" lon="5.94251">
        <ele>419</ele>
        <time>2009-07-05T08:52:46Z</time>
      </trkpt>
      <trkpt lat="45.72453" lon="5.94231">
        <ele>416</ele>
        <time>2009-07-05T08:52:51Z</time>
      </trkpt>
      <trkpt lat="45.7245" lon="5.94218">
        <ele>416</ele>
        <time>2009-07-05T08:52:56Z</time>
      </trkpt>
      <trkpt lat="45.72447" lon="5.94206">
        <ele>416</ele>
        <time>2009-07-05T08:53:01Z</time>
      </trkpt>
      <trkpt lat="45.72442" lon="5.94202">
        <ele>416</ele>
        <time>2009-07-05T08:53:07Z</time>
      </trkpt>
      <trkpt lat="45.7244" lon="5.94199">
        <ele>413</ele>
        <time>2009-07-05T08:53:13Z</time>
      </trkpt>
      <trkpt lat="45.72439" lon="5.942">
        <ele>410</ele>
        <time>2009-07-05T08:53:18Z</time>
      </trkpt>
      <trkpt lat="45.72436" lon="5.94198">
        <ele>405</ele>
        <time>2009-07-05T08:53:23Z</time>
      </trkpt>
      <trkpt lat="45.72435" lon="5.942">
        <ele>401</ele>
        <time>2009-07-05T08:53:28Z</time>
      </trkpt>
      <trkpt lat="45.72431" lon="5.94198">
        <ele>396</ele>
        <time>2009-07-05T08:53:33Z</time>
      </trkpt>
      <trkpt lat="45.72432" lon="5.94193">
        <ele>395</ele>
        <time>2009-07-05T08:53:43Z</time>
      </trkpt>
      <trkpt lat="45.72434" lon="5.94189">
        <ele>397</ele>
        <time>2009-07-05T08:53:50Z</time>
      </trkpt>
      <trkpt lat="45.72435" lon="5.9418">
        <ele>398</ele>
        <time>2009-07-05T08:53:56Z</time>
      </trkpt>
      <trkpt lat="45.72436" lon="5.94166">
        <ele>403</ele>
        <time>2009-07-05T08:54:01Z</time>
      </trkpt>
      <trkpt lat="45.72436" lon="5.94148">
        <ele>408</ele>
        <time>2009-07-05T08:54:06Z</time>
      </trkpt>
      <trkpt lat="45.72433" lon="5.94131">
        <ele>413</ele>
        <time>2009-07-05T08:54:11Z</time>
      </trkpt>
      <trkpt lat="45.72421" lon="5.94109">
        <ele>418</ele>
        <time>2009-07-05T08:54:16Z</time>
      </trkpt>
      <trkpt lat="45.72403" lon="5.9409">
        <ele>423</ele>
        <time>2009-07-05T08:54:21Z</time>
      </trkpt>
      <trkpt lat="45.72392" lon="5.94077">
        <ele>421</ele>
        <time>2009-07-05T08:54:26Z</time>
      </trkpt>
      <trkpt lat="45.72381" lon="5.94078">
        <ele>417</ele>
        <time>2009-07-05T08:54:32Z</time>
      </trkpt>
      <trkpt lat="45.72376" lon="5.94085">
        <ele>415</ele>
        <time>2009-07-05T08:54:37Z</time>
      </trkpt>
      <trkpt lat="45.72379" lon="5.9409">
        <ele>411</ele>
        <time>2009-07-05T08:54:43Z</time>
      </trkpt>
      <trkpt lat="45.7238" lon="5.94091">
        <ele>411</ele>
        <time>2009-07-05T08:54:48Z</time>
      </trkpt>
      <trkpt lat="45.7238" lon="5.94091">
        <ele>411</ele>
        <time>2009-07-05T08:54:56Z</time>
      </trkpt>
      <trkpt lat="45.72375" lon="5.9409">
        <ele>411</ele>
        <time>2009-07-05T08:55:01Z</time>
      </trkpt>
      <trkpt lat="45.7237" lon="5.94093">
        <ele>411</ele>
        <time>2009-07-05T08:55:07Z</time>
      </trkpt>
      <trkpt lat="45.72366" lon="5.94097">
        <ele>410</ele>
        <time>2009-07-05T08:55:14Z</time>
      </trkpt>
      <trkpt lat="45.72364" lon="5.94099">
        <ele>407</ele>
        <time>2009-07-05T08:55:21Z</time>
      </trkpt>
      <trkpt lat="45.72358" lon="5.94099">
        <ele>407</ele>
        <time>2009-07-05T08:55:27Z</time>
      </trkpt>
      <trkpt lat="45.72353" lon="5.94099">
        <ele>407</ele>
        <time>2009-07-05T08:55:32Z</time>
      </trkpt>
      <trkpt lat="45.72347" lon="5.94098">
        <ele>407</ele>
        <time>2009-07-05T08:55:37Z</time>
      </trkpt>
      <trkpt lat="45.72341" lon="5.94098">
        <ele>407</ele>
        <time>2009-07-05T08:55:42Z</time>
      </trkpt>
      <trkpt lat="45.72336" lon="5.94098">
        <ele>407</ele>
        <time>2009-07-05T08:55:47Z</time>
      </trkpt>
      <trkpt lat="45.72329" lon="5.941">
        <ele>407</ele>
        <time>2009-07-05T08:55:53Z</time>
      </trkpt>
      <trkpt lat="45.72323" lon="5.94103">
        <ele>407</ele>
        <time>2009-07-05T08:55:59Z</time>
      </trkpt>
      <trkpt lat="45.72319" lon="5.94106">
        <ele>407</ele>
        <time>2009-07-05T08:56:06Z</time>
      </trkpt>
      <trkpt lat="45.72316" lon="5.94108">
        <ele>407</ele>
        <time>2009-07-05T08:56:11Z</time>
      </trkpt>
      <trkpt lat="45.72314" lon="5.94114">
        <ele>409</ele>
        <time>2009-07-05T08:56:16Z</time>
      </trkpt>
      <trkpt lat="45.72313" lon="5.94117">
        <ele>411</ele>
        <time>2009-07-05T08:56:21Z</time>
      </trkpt>
      <trkpt lat="45.72309" lon="5.94125">
        <ele>417</ele>
        <time>2009-07-05T08:56:27Z</time>
      </trkpt>
      <trkpt lat="45.72302" lon="5.94128">
        <ele>420</ele>
        <time>2009-07-05T08:56:32Z</time>
      </trkpt>
      <trkpt lat="45.72293" lon="5.94128">
        <ele>420</ele>
        <time>2009-07-05T08:56:37Z</time>
      </trkpt>
      <trkpt lat="45.72286" lon="5.94133">
        <ele>420</ele>
        <time>2009-07-05T08:56:43Z</time>
      </trkpt>
      <trkpt lat="45.72288" lon="5.94142">
        <ele>420</ele>
        <time>2009-07-05T08:57:03Z</time>
      </trkpt>
      <trkpt lat="45.72288" lon="5.94144">
        <ele>420</ele>
        <time>2009-07-05T08:57:18Z</time>
      </trkpt>
      <trkpt lat="45.72292" lon="5.94152">
        <ele>418</ele>
        <time>2009-07-05T08:57:23Z</time>
      </trkpt>
      <trkpt lat="45.72297" lon="5.94161">
        <ele>418</ele>
        <time>2009-07-05T08:57:28Z</time>
      </trkpt>
      <trkpt lat="45.72302" lon="5.94173">
        <ele>418</ele>
        <time>2009-07-05T08:57:33Z</time>
      </trkpt>
      <trkpt lat="45.72304" lon="5.94188">
        <ele>418</ele>
        <time>2009-07-05T08:57:38Z</time>
      </trkpt>
      <trkpt lat="45.72304" lon="5.94206">
        <ele>418</ele>
        <time>2009-07-05T08:57:43Z</time>
      </trkpt>
      <trkpt lat="45.72302" lon="5.94222">
        <ele>418</ele>
        <time>2009-07-05T08:57:48Z</time>
      </trkpt>
      <trkpt lat="45.723" lon="5.94237">
        <ele>418</ele>
        <time>2009-07-05T08:57:53Z</time>
      </trkpt>
      <trkpt lat="45.723" lon="5.94254">
        <ele>418</ele>
        <time>2009-07-05T08:57:58Z</time>
      </trkpt>
      <trkpt lat="45.72299" lon="5.94269">
        <ele>418</ele>
        <time>2009-07-05T08:58:03Z</time>
      </trkpt>
      <trkpt lat="45.723" lon="5.94286">
        <ele>418</ele>
        <time>2009-07-05T08:58:08Z</time>
      </trkpt>
      <trkpt lat="45.72303" lon="5.94303">
        <ele>418</ele>
        <time>2009-07-05T08:58:13Z</time>
      </trkpt>
      <trkpt lat="45.72305" lon="5.94321">
        <ele>418</ele>
        <time>2009-07-05T08:58:18Z</time>
      </trkpt>
      <trkpt lat="45.72302" lon="5.94338">
        <ele>418</ele>
        <time>2009-07-05T08:58:23Z</time>
      </trkpt>
      <trkpt lat="45.72295" lon="5.94356">
        <ele>419</ele>
        <time>2009-07-05T08:58:28Z</time>
      </trkpt>
      <trkpt lat="45.72288" lon="5.94374">
        <ele>419</ele>
        <time>2009-07-05T08:58:33Z</time>
      </trkpt>
      <trkpt lat="45.72281" lon="5.94391">
        <ele>420</ele>
        <time>2009-07-05T08:58:38Z</time>
      </trkpt>
      <trkpt lat="45.72274" lon="5.94407">
        <ele>421</ele>
        <time>2009-07-05T08:58:43Z</time>
      </trkpt>
      <trkpt lat="45.72268" lon="5.94423">
        <ele>422</ele>
        <time>2009-07-05T08:58:48Z</time>
      </trkpt>
      <trkpt lat="45.72262" lon="5.94436">
        <ele>424</ele>
        <time>2009-07-05T08:58:53Z</time>
      </trkpt>
      <trkpt lat="45.72254" lon="5.94448">
        <ele>428</ele>
        <time>2009-07-05T08:58:59Z</time>
      </trkpt>
      <trkpt lat="45.72248" lon="5.94455">
        <ele>433</ele>
        <time>2009-07-05T08:59:04Z</time>
      </trkpt>
      <trkpt lat="45.7224" lon="5.94469">
        <ele>435</ele>
        <time>2009-07-05T08:59:09Z</time>
      </trkpt>
      <trkpt lat="45.72232" lon="5.94483">
        <ele>437</ele>
        <time>2009-07-05T08:59:14Z</time>
      </trkpt>
      <trkpt lat="45.72223" lon="5.94497">
        <ele>437</ele>
        <time>2009-07-05T08:59:19Z</time>
      </trkpt>
      <trkpt lat="45.72214" lon="5.94509">
        <ele>437</ele>
        <time>2009-07-05T08:59:24Z</time>
      </trkpt>
      <trkpt lat="45.72205" lon="5.94521">
        <ele>437</ele>
        <time>2009-07-05T08:59:29Z</time>
      </trkpt>
      <trkpt lat="45.72196" lon="5.94532">
        <ele>437</ele>
        <time>2009-07-05T08:59:34Z</time>
      </trkpt>
      <trkpt lat="45.72186" lon="5.94537">
        <ele>437</ele>
        <time>2009-07-05T08:59:39Z</time>
      </trkpt>
      <trkpt lat="45.72175" lon="5.94535">
        <ele>437</ele>
        <time>2009-07-05T08:59:44Z</time>
      </trkpt>
      <trkpt lat="45.72164" lon="5.94531">
        <ele>437</ele>
        <time>2009-07-05T08:59:49Z</time>
      </trkpt>
      <trkpt lat="45.72152" lon="5.94525">
        <ele>437</ele>
        <time>2009-07-05T08:59:54Z</time>
      </trkpt>
      <trkpt lat="45.72139" lon="5.94525">
        <ele>437</ele>
        <time>2009-07-05T08:59:59Z</time>
      </trkpt>
      <trkpt lat="45.7213" lon="5.94538">
        <ele>437</ele>
        <time>2009-07-05T09:00:04Z</time>
      </trkpt>
      <trkpt lat="45.72123" lon="5.94553">
        <ele>437</ele>
        <time>2009-07-05T09:00:09Z</time>
      </trkpt>
      <trkpt lat="45.72118" lon="5.9457">
        <ele>437</ele>
        <time>2009-07-05T09:00:14Z</time>
      </trkpt>
      <trkpt lat="45.72119" lon="5.9459">
        <ele>437</ele>
        <time>2009-07-05T09:00:19Z</time>
      </trkpt>
      <trkpt lat="45.72125" lon="5.94607">
        <ele>437</ele>
        <time>2009-07-05T09:00:24Z</time>
      </trkpt>
      <trkpt lat="45.7213" lon="5.94621">
        <ele>437</ele>
        <time>2009-07-05T09:00:29Z</time>
      </trkpt>
      <trkpt lat="45.72136" lon="5.94635">
        <ele>437</ele>
        <time>2009-07-05T09:00:34Z</time>
      </trkpt>
      <trkpt lat="45.72143" lon="5.94648">
        <ele>437</ele>
        <time>2009-07-05T09:00:39Z</time>
      </trkpt>
      <trkpt lat="45.72149" lon="5.94661">
        <ele>437</ele>
        <time>2009-07-05T09:00:44Z</time>
      </trkpt>
      <trkpt lat="45.72156" lon="5.94676">
        <ele>437</ele>
        <time>2009-07-05T09:00:49Z</time>
      </trkpt>
      <trkpt lat="45.72163" lon="5.9469">
        <ele>437</ele>
        <time>2009-07-05T09:00:54Z</time>
      </trkpt>
      <trkpt lat="45.72169" lon="5.94704">
        <ele>437</ele>
        <time>2009-07-05T09:00:59Z</time>
      </trkpt>
      <trkpt lat="45.72174" lon="5.9472">
        <ele>437</ele>
        <time>2009-07-05T09:01:04Z</time>
      </trkpt>
      <trkpt lat="45.72181" lon="5.94736">
        <ele>437</ele>
        <time>2009-07-05T09:01:09Z</time>
      </trkpt>
      <trkpt lat="45.7219" lon="5.94755">
        <ele>437</ele>
        <time>2009-07-05T09:01:14Z</time>
      </trkpt>
      <trkpt lat="45.72199" lon="5.94776">
        <ele>437</ele>
        <time>2009-07-05T09:01:19Z</time>
      </trkpt>
      <trkpt lat="45.72211" lon="5.94799">
        <ele>437</ele>
        <time>2009-07-05T09:01:24Z</time>
      </trkpt>
      <trkpt lat="45.72224" lon="5.94819">
        <ele>437</ele>
        <time>2009-07-05T09:01:29Z</time>
      </trkpt>
      <trkpt lat="45.72236" lon="5.94839">
        <ele>437</ele>
        <time>2009-07-05T09:01:34Z</time>
      </trkpt>
      <trkpt lat="45.72247" lon="5.94862">
        <ele>437</ele>
        <time>2009-07-05T09:01:39Z</time>
      </trkpt>
      <trkpt lat="45.72257" lon="5.94884">
        <ele>437</ele>
        <time>2009-07-05T09:01:44Z</time>
      </trkpt>
      <trkpt lat="45.72267" lon="5.94905">
        <ele>437</ele>
        <time>2009-07-05T09:01:49Z</time>
      </trkpt>
      <trkpt lat="45.72278" lon="5.94923">
        <ele>438</ele>
        <time>2009-07-05T09:01:54Z</time>
      </trkpt>
      <trkpt lat="45.7229" lon="5.9494">
        <ele>438</ele>
        <time>2009-07-05T09:01:59Z</time>
      </trkpt>
      <trkpt lat="45.72304" lon="5.94949">
        <ele>438</ele>
        <time>2009-07-05T09:02:04Z</time>
      </trkpt>
      <trkpt lat="45.72317" lon="5.9496">
        <ele>439</ele>
        <time>2009-07-05T09:02:09Z</time>
      </trkpt>
      <trkpt lat="45.72329" lon="5.94974">
        <ele>440</ele>
        <time>2009-07-05T09:02:14Z</time>
      </trkpt>
      <trkpt lat="45.72342" lon="5.9499">
        <ele>440</ele>
        <time>2009-07-05T09:02:19Z</time>
      </trkpt>
      <trkpt lat="45.72357" lon="5.95001">
        <ele>440</ele>
        <time>2009-07-05T09:02:24Z</time>
      </trkpt>
      <trkpt lat="45.72374" lon="5.95006">
        <ele>441</ele>
        <time>2009-07-05T09:02:29Z</time>
      </trkpt>
      <trkpt lat="45.7239" lon="5.95017">
        <ele>441</ele>
        <time>2009-07-05T09:02:34Z</time>
      </trkpt>
      <trkpt lat="45.72405" lon="5.95028">
        <ele>441</ele>
        <time>2009-07-05T09:02:39Z</time>
      </trkpt>
      <trkpt lat="45.72419" lon="5.95041">
        <ele>442</ele>
        <time>2009-07-05T09:02:44Z</time>
      </trkpt>
      <trkpt lat="45.72434" lon="5.95055">
        <ele>443</ele>
        <time>2009-07-05T09:02:49Z</time>
      </trkpt>
      <trkpt lat="45.72447" lon="5.95069">
        <ele>444</ele>
        <time>2009-07-05T09:02:54Z</time>
      </trkpt>
      <trkpt lat="45.72464" lon="5.95076">
        <ele>444</ele>
        <time>2009-07-05T09:02:59Z</time>
      </trkpt>
      <trkpt lat="45.72487" lon="5.95087">
        <ele>444</ele>
        <time>2009-07-05T09:03:04Z</time>
      </trkpt>
      <trkpt lat="45.72518" lon="5.95109">
        <ele>444</ele>
        <time>2009-07-05T09:03:09Z</time>
      </trkpt>
      <trkpt lat="45.72545" lon="5.95141">
        <ele>444</ele>
        <time>2009-07-05T09:03:14Z</time>
      </trkpt>
      <trkpt lat="45.72567" lon="5.95178">
        <ele>444</ele>
        <time>2009-07-05T09:03:19Z</time>
      </trkpt>
      <trkpt lat="45.72584" lon="5.95214">
        <ele>444</ele>
        <time>2009-07-05T09:03:24Z</time>
      </trkpt>
      <trkpt lat="45.72597" lon="5.95247">
        <ele>444</ele>
        <time>2009-07-05T09:03:29Z</time>
      </trkpt>
      <trkpt lat="45.72598" lon="5.95273">
        <ele>444</ele>
        <time>2009-07-05T09:03:34Z</time>
      </trkpt>
      <trkpt lat="45.72596" lon="5.95295">
        <ele>444</ele>
        <time>2009-07-05T09:03:39Z</time>
      </trkpt>
      <trkpt lat="45.72595" lon="5.95318">
        <ele>444</ele>
        <time>2009-07-05T09:03:44Z</time>
      </trkpt>
      <trkpt lat="45.72595" lon="5.9534">
        <ele>444</ele>
        <time>2009-07-05T09:03:49Z</time>
      </trkpt>
      <trkpt lat="45.72598" lon="5.95359">
        <ele>445</ele>
        <time>2009-07-05T09:03:54Z</time>
      </trkpt>
      <trkpt lat="45.72605" lon="5.95374">
        <ele>445</ele>
        <time>2009-07-05T09:03:59Z</time>
      </trkpt>
      <trkpt lat="45.72615" lon="5.9539">
        <ele>445</ele>
        <time>2009-07-05T09:04:04Z</time>
      </trkpt>
      <trkpt lat="45.72627" lon="5.95407">
        <ele>445</ele>
        <time>2009-07-05T09:04:09Z</time>
      </trkpt>
      <trkpt lat="45.72636" lon="5.95424">
        <ele>445</ele>
        <time>2009-07-05T09:04:14Z</time>
      </trkpt>
      <trkpt lat="45.72648" lon="5.95434">
        <ele>445</ele>
        <time>2009-07-05T09:04:19Z</time>
      </trkpt>
      <trkpt lat="45.7266" lon="5.95444">
        <ele>445</ele>
        <time>2009-07-05T09:04:24Z</time>
      </trkpt>
      <trkpt lat="45.72672" lon="5.95454">
        <ele>445</ele>
        <time>2009-07-05T09:04:29Z</time>
      </trkpt>
      <trkpt lat="45.72682" lon="5.95469">
        <ele>445</ele>
        <time>2009-07-05T09:04:34Z</time>
      </trkpt>
      <trkpt lat="45.72693" lon="5.95484">
        <ele>445</ele>
        <time>2009-07-05T09:04:39Z</time>
      </trkpt>
      <trkpt lat="45.72704" lon="5.95499">
        <ele>445</ele>
        <time>2009-07-05T09:04:44Z</time>
      </trkpt>
      <trkpt lat="45.72716" lon="5.95516">
        <ele>445</ele>
        <time>2009-07-05T09:04:49Z</time>
      </trkpt>
      <trkpt lat="45.7273" lon="5.95535">
        <ele>445</ele>
        <time>2009-07-05T09:04:54Z</time>
      </trkpt>
      <trkpt lat="45.72744" lon="5.9556">
        <ele>445</ele>
        <time>2009-07-05T09:04:59Z</time>
      </trkpt>
      <trkpt lat="45.72748" lon="5.95591">
        <ele>445</ele>
        <time>2009-07-05T09:05:04Z</time>
      </trkpt>
      <trkpt lat="45.72749" lon="5.95617">
        <ele>445</ele>
        <time>2009-07-05T09:05:09Z</time>
      </trkpt>
      <trkpt lat="45.7275" lon="5.9564">
        <ele>444</ele>
        <time>2009-07-05T09:05:14Z</time>
      </trkpt>
      <trkpt lat="45.72751" lon="5.95664">
        <ele>444</ele>
        <time>2009-07-05T09:05:19Z</time>
      </trkpt>
      <trkpt lat="45.72751" lon="5.95687">
        <ele>444</ele>
        <time>2009-07-05T09:05:24Z</time>
      </trkpt>
      <trkpt lat="45.72752" lon="5.9571">
        <ele>444</ele>
        <time>2009-07-05T09:05:29Z</time>
      </trkpt>
      <trkpt lat="45.72753" lon="5.95733">
        <ele>444</ele>
        <time>2009-07-05T09:05:34Z</time>
      </trkpt>
      <trkpt lat="45.72754" lon="5.95756">
        <ele>444</ele>
        <time>2009-07-05T09:05:39Z</time>
      </trkpt>
      <trkpt lat="45.72754" lon="5.95776">
        <ele>444</ele>
        <time>2009-07-05T09:05:44Z</time>
      </trkpt>
      <trkpt lat="45.72762" lon="5.95796">
        <ele>444</ele>
        <time>2009-07-05T09:05:49Z</time>
      </trkpt>
      <trkpt lat="45.72768" lon="5.95818">
        <ele>444</ele>
        <time>2009-07-05T09:05:54Z</time>
      </trkpt>
      <trkpt lat="45.72772" lon="5.95836">
        <ele>444</ele>
        <time>2009-07-05T09:05:59Z</time>
      </trkpt>
      <trkpt lat="45.72775" lon="5.95849">
        <ele>444</ele>
        <time>2009-07-05T09:06:04Z</time>
      </trkpt>
      <trkpt lat="45.72772" lon="5.95862">
        <ele>444</ele>
        <time>2009-07-05T09:06:09Z</time>
      </trkpt>
      <trkpt lat="45.72761" lon="5.95872">
        <ele>444</ele>
        <time>2009-07-05T09:06:14Z</time>
      </trkpt>
      <trkpt lat="45.72752" lon="5.95876">
        <ele>445</ele>
        <time>2009-07-05T09:06:19Z</time>
      </trkpt>
      <trkpt lat="45.72743" lon="5.9588">
        <ele>448</ele>
        <time>2009-07-05T09:06:24Z</time>
      </trkpt>
      <trkpt lat="45.72734" lon="5.95878">
        <ele>448</ele>
        <time>2009-07-05T09:06:29Z</time>
      </trkpt>
      <trkpt lat="45.72723" lon="5.95879">
        <ele>449</ele>
        <time>2009-07-05T09:06:34Z</time>
      </trkpt>
      <trkpt lat="45.72713" lon="5.95878">
        <ele>452</ele>
        <time>2009-07-05T09:06:39Z</time>
      </trkpt>
      <trkpt lat="45.72703" lon="5.95877">
        <ele>454</ele>
        <time>2009-07-05T09:06:44Z</time>
      </trkpt>
      <trkpt lat="45.72692" lon="5.95872">
        <ele>454</ele>
        <time>2009-07-05T09:06:49Z</time>
      </trkpt>
      <trkpt lat="45.72679" lon="5.95867">
        <ele>454</ele>
        <time>2009-07-05T09:06:54Z</time>
      </trkpt>
      <trkpt lat="45.72664" lon="5.95861">
        <ele>454</ele>
        <time>2009-07-05T09:06:59Z</time>
      </trkpt>
      <trkpt lat="45.72652" lon="5.95852">
        <ele>454</ele>
        <time>2009-07-05T09:07:04Z</time>
      </trkpt>
      <trkpt lat="45.72642" lon="5.95842">
        <ele>454</ele>
        <time>2009-07-05T09:07:09Z</time>
      </trkpt>
      <trkpt lat="45.72632" lon="5.9583">
        <ele>454</ele>
        <time>2009-07-05T09:07:14Z</time>
      </trkpt>
      <trkpt lat="45.72622" lon="5.95818">
        <ele>454</ele>
        <time>2009-07-05T09:07:19Z</time>
      </trkpt>
      <trkpt lat="45.72611" lon="5.95806">
        <ele>454</ele>
        <time>2009-07-05T09:07:24Z</time>
      </trkpt>
      <trkpt lat="45.72601" lon="5.95793">
        <ele>454</ele>
        <time>2009-07-05T09:07:29Z</time>
      </trkpt>
      <trkpt lat="45.72589" lon="5.95779">
        <ele>454</ele>
        <time>2009-07-05T09:07:34Z</time>
      </trkpt>
      <trkpt lat="45.72577" lon="5.95765">
        <ele>454</ele>
        <time>2009-07-05T09:07:39Z</time>
      </trkpt>
      <trkpt lat="45.72566" lon="5.95752">
        <ele>454</ele>
        <time>2009-07-05T09:07:44Z</time>
      </trkpt>
      <trkpt lat="45.72556" lon="5.95739">
        <ele>455</ele>
        <time>2009-07-05T09:07:49Z</time>
      </trkpt>
      <trkpt lat="45.72547" lon="5.9573">
        <ele>457</ele>
        <time>2009-07-05T09:07:54Z</time>
      </trkpt>
      <trkpt lat="45.72538" lon="5.95716">
        <ele>458</ele>
        <time>2009-07-05T09:07:59Z</time>
      </trkpt>
      <trkpt lat="45.72531" lon="5.95701">
        <ele>460</ele>
        <time>2009-07-05T09:08:04Z</time>
      </trkpt>
      <trkpt lat="45.72522" lon="5.95686">
        <ele>461</ele>
        <time>2009-07-05T09:08:09Z</time>
      </trkpt>
      <trkpt lat="45.72512" lon="5.95673">
        <ele>463</ele>
        <time>2009-07-05T09:08:14Z</time>
      </trkpt>
      <trkpt lat="45.72501" lon="5.9566">
        <ele>463</ele>
        <time>2009-07-05T09:08:19Z</time>
      </trkpt>
      <trkpt lat="45.72491" lon="5.95648">
        <ele>463</ele>
        <time>2009-07-05T09:08:24Z</time>
      </trkpt>
      <trkpt lat="45.72482" lon="5.95636">
        <ele>465</ele>
        <time>2009-07-05T09:08:29Z</time>
      </trkpt>
      <trkpt lat="45.72473" lon="5.95625">
        <ele>466</ele>
        <time>2009-07-05T09:08:34Z</time>
      </trkpt>
      <trkpt lat="45.72464" lon="5.95614">
        <ele>467</ele>
        <time>2009-07-05T09:08:39Z</time>
      </trkpt>
      <trkpt lat="45.72454" lon="5.95601">
        <ele>467</ele>
        <time>2009-07-05T09:08:44Z</time>
      </trkpt>
      <trkpt lat="45.72442" lon="5.9559">
        <ele>467</ele>
        <time>2009-07-05T09:08:49Z</time>
      </trkpt>
      <trkpt lat="45.72433" lon="5.95593">
        <ele>467</ele>
        <time>2009-07-05T09:08:54Z</time>
      </trkpt>
      <trkpt lat="45.72429" lon="5.95596">
        <ele>467</ele>
        <time>2009-07-05T09:09:02Z</time>
      </trkpt>
      <trkpt lat="45.72428" lon="5.95595">
        <ele>467</ele>
        <time>2009-07-05T09:09:12Z</time>
      </trkpt>
      <trkpt lat="45.72427" lon="5.95594">
        <ele>467</ele>
        <time>2009-07-05T09:09:29Z</time>
      </trkpt>
      <trkpt lat="45.72426" lon="5.95597">
        <ele>467</ele>
        <time>2009-07-05T09:09:35Z</time>
      </trkpt>
      <trkpt lat="45.72419" lon="5.95614">
        <ele>467</ele>
        <time>2009-07-05T09:09:40Z</time>
      </trkpt>
      <trkpt lat="45.72409" lon="5.95632">
        <ele>468</ele>
        <time>2009-07-05T09:09:46Z</time>
      </trkpt>
      <trkpt lat="45.72402" lon="5.95647">
        <ele>468</ele>
        <time>2009-07-05T09:09:51Z</time>
      </trkpt>
      <trkpt lat="45.72394" lon="5.95662">
        <ele>469</ele>
        <time>2009-07-05T09:09:56Z</time>
      </trkpt>
      <trkpt lat="45.72387" lon="5.95678">
        <ele>470</ele>
        <time>2009-07-05T09:10:01Z</time>
      </trkpt>
      <trkpt lat="45.72378" lon="5.95696">
        <ele>471</ele>
        <time>2009-07-05T09:10:07Z</time>
      </trkpt>
      <trkpt lat="45.7237" lon="5.9571">
        <ele>471</ele>
        <time>2009-07-05T09:10:12Z</time>
      </trkpt>
      <trkpt lat="45.72362" lon="5.95727">
        <ele>472</ele>
        <time>2009-07-05T09:10:18Z</time>
      </trkpt>
      <trkpt lat="45.72356" lon="5.95739">
        <ele>473</ele>
        <time>2009-07-05T09:10:23Z</time>
      </trkpt>
      <trkpt lat="45.72348" lon="5.95751">
        <ele>474</ele>
        <time>2009-07-05T09:10:28Z</time>
      </trkpt>
      <trkpt lat="45.72345" lon="5.95764">
        <ele>475</ele>
        <time>2009-07-05T09:10:33Z</time>
      </trkpt>
      <trkpt lat="45.72356" lon="5.95779">
        <ele>475</ele>
        <time>2009-07-05T09:10:39Z</time>
      </trkpt>
      <trkpt lat="45.72367" lon="5.95792">
        <ele>475</ele>
        <time>2009-07-05T09:10:44Z</time>
      </trkpt>
      <trkpt lat="45.72381" lon="5.95805">
        <ele>475</ele>
        <time>2009-07-05T09:10:50Z</time>
      </trkpt>
      <trkpt lat="45.72384" lon="5.95806">
        <ele>475</ele>
        <time>2009-07-05T09:10:57Z</time>
      </trkpt>
      <trkpt lat="45.72385" lon="5.95804">
        <ele>475</ele>
        <time>2009-07-05T09:11:04Z</time>
      </trkpt>
      <trkpt lat="45.72388" lon="5.95802">
        <ele>475</ele>
        <time>2009-07-05T09:11:09Z</time>
      </trkpt>
      <trkpt lat="45.72387" lon="5.958">
        <ele>475</ele>
        <time>2009-07-05T09:11:18Z</time>
      </trkpt>
      <trkpt lat="45.72388" lon="5.95802">
        <ele>475</ele>
        <time>2009-07-05T09:11:26Z</time>
      </trkpt>
      <trkpt lat="45.72386" lon="5.95803">
        <ele>478</ele>
        <time>2009-07-05T09:11:39Z</time>
      </trkpt>
      <trkpt lat="45.72384" lon="5.95801">
        <ele>478</ele>
        <time>2009-07-05T09:11:44Z</time>
      </trkpt>
      <trkpt lat="45.72383" lon="5.95802">
        <ele>478</ele>
        <time>2009-07-05T09:11:51Z</time>
      </trkpt>
      <trkpt lat="45.72384" lon="5.95801">
        <ele>478</ele>
        <time>2009-07-05T09:11:58Z</time>
      </trkpt>
      <trkpt lat="45.72384" lon="5.95802">
        <ele>476</ele>
        <time>2009-07-05T09:12:24Z</time>
      </trkpt>
      <trkpt lat="45.72384" lon="5.95804">
        <ele>476</ele>
        <time>2009-07-05T09:12:50Z</time>
      </trkpt>
      <trkpt lat="45.72384" lon="5.95806">
        <ele>478</ele>
        <time>2009-07-05T09:13:14Z</time>
      </trkpt>
      <trkpt lat="45.72385" lon="5.95804">
        <ele>479</ele>
        <time>2009-07-05T09:13:21Z</time>
      </trkpt>
      <trkpt lat="45.72387" lon="5.95802">
        <ele>481</ele>
        <time>2009-07-05T09:13:29Z</time>
      </trkpt>
      <trkpt lat="45.7239" lon="5.95799">
        <ele>481</ele>
        <time>2009-07-05T09:13:44Z</time>
      </trkpt>
      <trkpt lat="45.72389" lon="5.95793">
        <ele>481</ele>
        <time>2009-07-05T09:13:49Z</time>
      </trkpt>
      <trkpt lat="45.72387" lon="5.95789">
        <ele>481</ele>
        <time>2009-07-05T09:14:06Z</time>
      </trkpt>
      <trkpt lat="45.72386" lon="5.95786">
        <ele>481</ele>
        <time>2009-07-05T09:14:12Z</time>
      </trkpt>
      <trkpt lat="45.72384" lon="5.95782">
        <ele>481</ele>
        <time>2009-07-05T09:14:19Z</time>
      </trkpt>
      <trkpt lat="45.72381" lon="5.95779">
        <ele>476</ele>
        <time>2009-07-05T09:14:26Z</time>
      </trkpt>
      <trkpt lat="45.72381" lon="5.95778">
        <ele>470</ele>
        <time>2009-07-05T09:14:36Z</time>
      </trkpt>
      <trkpt lat="45.72384" lon="5.95778">
        <ele>468</ele>
        <time>2009-07-05T09:14:46Z</time>
      </trkpt>
      <trkpt lat="45.72385" lon="5.9578">
        <ele>467</ele>
        <time>2009-07-05T09:14:56Z</time>
      </trkpt>
      <trkpt lat="45.72386" lon="5.95781">
        <ele>466</ele>
        <time>2009-07-05T09:15:03Z</time>
      </trkpt>
      <trkpt lat="45.72387" lon="5.95782">
        <ele>466</ele>
        <time>2009-07-05T09:15:08Z</time>
      </trkpt>
      <trkpt lat="45.72388" lon="5.95783">
        <ele>466</ele>
        <time>2009-07-05T09:15:14Z</time>
      </trkpt>
      <trkpt lat="45.72389" lon="5.95785">
        <ele>466</ele>
        <time>2009-07-05T09:15:20Z</time>
      </trkpt>
      <trkpt lat="45.7239" lon="5.95785">
        <ele>468</ele>
        <time>2009-07-05T09:15:27Z</time>
      </trkpt>
      <trkpt lat="45.72389" lon="5.95787">
        <ele>471</ele>
        <time>2009-07-05T09:15:34Z</time>
      </trkpt>
      <trkpt lat="45.72389" lon="5.95793">
        <ele>471</ele>
        <time>2009-07-05T09:15:40Z</time>
      </trkpt>
      <trkpt lat="45.72388" lon="5.95796">
        <ele>471</ele>
        <time>2009-07-05T09:15:46Z</time>
      </trkpt>
      <trkpt lat="45.72384" lon="5.95798">
        <ele>471</ele>
        <time>2009-07-05T09:15:52Z</time>
      </trkpt>
      <trkpt lat="45.72383" lon="5.95798">
        <ele>472</ele>
        <time>2009-07-05T09:15:57Z</time>
      </trkpt>
      <trkpt lat="45.72382" lon="5.95798">
        <ele>473</ele>
        <time>2009-07-05T09:16:09Z</time>
      </trkpt>
      <trkpt lat="45.72383" lon="5.95795">
        <ele>477</ele>
        <time>2009-07-05T09:16:20Z</time>
      </trkpt>
      <trkpt lat="45.72384" lon="5.95795">
        <ele>477</ele>
        <time>2009-07-05T09:16:29Z</time>
      </trkpt>
      <trkpt lat="45.72385" lon="5.95796">
        <ele>477</ele>
        <time>2009-07-05T09:16:34Z</time>
      </trkpt>
      <trkpt lat="45.72386" lon="5.95798">
        <ele>477</ele>
        <time>2009-07-05T09:16:41Z</time>
      </trkpt>
      <trkpt lat="45.72386" lon="5.95799">
        <ele>477</ele>
        <time>2009-07-05T09:16:46Z</time>
      </trkpt>
      <trkpt lat="45.72385" lon="5.95801">
        <ele>478</ele>
        <time>2009-07-05T09:16:56Z</time>
      </trkpt>
      <trkpt lat="45.72384" lon="5.95802">
        <ele>478</ele>
        <time>2009-07-05T09:17:09Z</time>
      </trkpt>
      <trkpt lat="45.72386" lon="5.95805">
        <ele>478</ele>
        <time>2009-07-05T09:17:15Z</time>
      </trkpt>
      <trkpt lat="45.72386" lon="5.95809">
        <ele>478</ele>
        <time>2009-07-05T09:17:20Z</time>
      </trkpt>
      <trkpt lat="45.72386" lon="5.95812">
        <ele>478</ele>
        <time>2009-07-05T09:17:25Z</time>
      </trkpt>
      <trkpt lat="45.72383" lon="5.95818">
        <ele>481</ele>
        <time>2009-07-05T09:17:31Z</time>
      </trkpt>
      <trkpt lat="45.72383" lon="5.95822">
        <ele>483</ele>
        <time>2009-07-05T09:17:37Z</time>
      </trkpt>
      <trkpt lat="45.72386" lon="5.95815">
        <ele>484</ele>
        <time>2009-07-05T09:17:43Z</time>
      </trkpt>
      <trkpt lat="45.72382" lon="5.95812">
        <ele>482</ele>
        <time>2009-07-05T09:17:57Z</time>
      </trkpt>
      <trkpt lat="45.72382" lon="5.95811">
        <ele>482</ele>
        <time>2009-07-05T09:18:07Z</time>
      </trkpt>
      <trkpt lat="45.72388" lon="5.95817">
        <ele>481</ele>
        <time>2009-07-05T09:18:12Z</time>
      </trkpt>
      <trkpt lat="45.72395" lon="5.95828">
        <ele>479</ele>
        <time>2009-07-05T09:18:17Z</time>
      </trkpt>
      <trkpt lat="45.72401" lon="5.95848">
        <ele>477</ele>
        <time>2009-07-05T09:18:22Z</time>
      </trkpt>
      <trkpt lat="45.72408" lon="5.95869">
        <ele>475</ele>
        <time>2009-07-05T09:18:27Z</time>
      </trkpt>
      <trkpt lat="45.72415" lon="5.95889">
        <ele>474</ele>
        <time>2009-07-05T09:18:32Z</time>
      </trkpt>
      <trkpt lat="45.7242" lon="5.95908">
        <ele>474</ele>
        <time>2009-07-05T09:18:37Z</time>
      </trkpt>
      <trkpt lat="45.72417" lon="5.95936">
        <ele>473</ele>
        <time>2009-07-05T09:18:42Z</time>
      </trkpt>
      <trkpt lat="45.72418" lon="5.95976">
        <ele>472</ele>
        <time>2009-07-05T09:18:48Z</time>
      </trkpt>
      <trkpt lat="45.72415" lon="5.96014">
        <ele>471</ele>
        <time>2009-07-05T09:18:53Z</time>
      </trkpt>
      <trkpt lat="45.72417" lon="5.9604">
        <ele>471</ele>
        <time>2009-07-05T09:18:58Z</time>
      </trkpt>
      <trkpt lat="45.72416" lon="5.96043">
        <ele>471</ele>
        <time>2009-07-05T09:19:03Z</time>
      </trkpt>
      <trkpt lat="45.72413" lon="5.96049">
        <ele>471</ele>
        <time>2009-07-05T09:19:08Z</time>
      </trkpt>
      <trkpt lat="45.72417" lon="5.96064">
        <ele>470</ele>
        <time>2009-07-05T09:19:13Z</time>
      </trkpt>
      <trkpt lat="45.72424" lon="5.96073">
        <ele>465</ele>
        <time>2009-07-05T09:19:18Z</time>
      </trkpt>
      <trkpt lat="45.72431" lon="5.96078">
        <ele>462</ele>
        <time>2009-07-05T09:19:23Z</time>
      </trkpt>
      <trkpt lat="45.72437" lon="5.9608">
        <ele>462</ele>
        <time>2009-07-05T09:19:28Z</time>
      </trkpt>
      <trkpt lat="45.72438" lon="5.96081">
        <ele>462</ele>
        <time>2009-07-05T09:19:38Z</time>
      </trkpt>
      <trkpt lat="45.72439" lon="5.9608">
        <ele>462</ele>
        <time>2009-07-05T09:19:44Z</time>
      </trkpt>
      <trkpt lat="45.72441" lon="5.96078">
        <ele>462</ele>
        <time>2009-07-05T09:19:52Z</time>
      </trkpt>
      <trkpt lat="45.72441" lon="5.9608">
        <ele>462</ele>
        <time>2009-07-05T09:20:03Z</time>
      </trkpt>
      <trkpt lat="45.7245" lon="5.96086">
        <ele>462</ele>
        <time>2009-07-05T09:20:09Z</time>
      </trkpt>
      <trkpt lat="45.72457" lon="5.96088">
        <ele>462</ele>
        <time>2009-07-05T09:20:14Z</time>
      </trkpt>
      <trkpt lat="45.72463" lon="5.96094">
        <ele>461</ele>
        <time>2009-07-05T09:20:19Z</time>
      </trkpt>
      <trkpt lat="45.7247" lon="5.961">
        <ele>459</ele>
        <time>2009-07-05T09:20:24Z</time>
      </trkpt>
      <trkpt lat="45.72473" lon="5.96111">
        <ele>458</ele>
        <time>2009-07-05T09:20:29Z</time>
      </trkpt>
      <trkpt lat="45.72478" lon="5.96122">
        <ele>456</ele>
        <time>2009-07-05T09:20:34Z</time>
      </trkpt>
      <trkpt lat="45.72493" lon="5.96138">
        <ele>452</ele>
        <time>2009-07-05T09:20:39Z</time>
      </trkpt>
      <trkpt lat="45.72506" lon="5.96154">
        <ele>450</ele>
        <time>2009-07-05T09:20:44Z</time>
      </trkpt>
      <trkpt lat="45.72506" lon="5.96163">
        <ele>447</ele>
        <time>2009-07-05T09:20:51Z</time>
      </trkpt>
      <trkpt lat="45.72507" lon="5.96186">
        <ele>444</ele>
        <time>2009-07-05T09:20:57Z</time>
      </trkpt>
      <trkpt lat="45.72498" lon="5.96211">
        <ele>441</ele>
        <time>2009-07-05T09:21:02Z</time>
      </trkpt>
      <trkpt lat="45.72484" lon="5.96235">
        <ele>441</ele>
        <time>2009-07-05T09:21:07Z</time>
      </trkpt>
      <trkpt lat="45.72474" lon="5.96257">
        <ele>438</ele>
        <time>2009-07-05T09:21:12Z</time>
      </trkpt>
      <trkpt lat="45.72464" lon="5.96279">
        <ele>435</ele>
        <time>2009-07-05T09:21:17Z</time>
      </trkpt>
      <trkpt lat="45.72457" lon="5.96296">
        <ele>433</ele>
        <time>2009-07-05T09:21:22Z</time>
      </trkpt>
      <trkpt lat="45.72447" lon="5.96313">
        <ele>433</ele>
        <time>2009-07-05T09:21:27Z</time>
      </trkpt>
      <trkpt lat="45.72426" lon="5.96332">
        <ele>433</ele>
        <time>2009-07-05T09:21:32Z</time>
      </trkpt>
      <trkpt lat="45.72412" lon="5.96349">
        <ele>436</ele>
        <time>2009-07-05T09:21:37Z</time>
      </trkpt>
      <trkpt lat="45.72405" lon="5.96371">
        <ele>437</ele>
        <time>2009-07-05T09:21:42Z</time>
      </trkpt>
      <trkpt lat="45.72401" lon="5.96403">
        <ele>437</ele>
        <time>2009-07-05T09:21:48Z</time>
      </trkpt>
      <trkpt lat="45.72396" lon="5.96422">
        <ele>441</ele>
        <time>2009-07-05T09:21:53Z</time>
      </trkpt>
      <trkpt lat="45.72393" lon="5.9643">
        <ele>441</ele>
        <time>2009-07-05T09:21:58Z</time>
      </trkpt>
      <trkpt lat="45.72396" lon="5.96436">
        <ele>443</ele>
        <time>2009-07-05T09:22:03Z</time>
      </trkpt>
      <trkpt lat="45.72398" lon="5.96439">
        <ele>444</ele>
        <time>2009-07-05T09:22:09Z</time>
      </trkpt>
      <trkpt lat="45.72403" lon="5.96443">
        <ele>445</ele>
        <time>2009-07-05T09:22:16Z</time>
      </trkpt>
      <trkpt lat="45.72406" lon="5.96444">
        <ele>445</ele>
        <time>2009-07-05T09:22:21Z</time>
      </trkpt>
      <trkpt lat="45.72407" lon="5.96445">
        <ele>445</ele>
        <time>2009-07-05T09:22:26Z</time>
      </trkpt>
      <trkpt lat="45.72408" lon="5.96439">
        <ele>445</ele>
        <time>2009-07-05T09:22:32Z</time>
      </trkpt>
      <trkpt lat="45.72403" lon="5.9644">
        <ele>447</ele>
        <time>2009-07-05T09:22:37Z</time>
      </trkpt>
      <trkpt lat="45.72397" lon="5.96448">
        <ele>451</ele>
        <time>2009-07-05T09:22:42Z</time>
      </trkpt>
      <trkpt lat="45.72395" lon="5.96466">
        <ele>453</ele>
        <time>2009-07-05T09:22:48Z</time>
      </trkpt>
      <trkpt lat="45.724" lon="5.96467">
        <ele>455</ele>
        <time>2009-07-05T09:22:53Z</time>
      </trkpt>
      <trkpt lat="45.72411" lon="5.96467">
        <ele>456</ele>
        <time>2009-07-05T09:22:58Z</time>
      </trkpt>
      <trkpt lat="45.72421" lon="5.96468">
        <ele>454</ele>
        <time>2009-07-05T09:23:03Z</time>
      </trkpt>
      <trkpt lat="45.7243" lon="5.96465">
        <ele>449</ele>
        <time>2009-07-05T09:23:08Z</time>
      </trkpt>
      <trkpt lat="45.72444" lon="5.9646">
        <ele>444</ele>
        <time>2009-07-05T09:23:13Z</time>
      </trkpt>
      <trkpt lat="45.72458" lon="5.96453">
        <ele>439</ele>
        <time>2009-07-05T09:23:18Z</time>
      </trkpt>
      <trkpt lat="45.72471" lon="5.96448">
        <ele>437</ele>
        <time>2009-07-05T09:23:23Z</time>
      </trkpt>
      <trkpt lat="45.72482" lon="5.96441">
        <ele>436</ele>
        <time>2009-07-05T09:23:28Z</time>
      </trkpt>
      <trkpt lat="45.72494" lon="5.96435">
        <ele>435</ele>
        <time>2009-07-05T09:23:33Z</time>
      </trkpt>
      <trkpt lat="45.72505" lon="5.96439">
        <ele>435</ele>
        <time>2009-07-05T09:23:38Z</time>
      </trkpt>
      <trkpt lat="45.72518" lon="5.96445">
        <ele>435</ele>
        <time>2009-07-05T09:23:43Z</time>
      </trkpt>
      <trkpt lat="45.72533" lon="5.96451">
        <ele>435</ele>
        <time>2009-07-05T09:23:48Z</time>
      </trkpt>
      <trkpt lat="45.72541" lon="5.9645">
        <ele>438</ele>
        <time>2009-07-05T09:23:54Z</time>
      </trkpt>
      <trkpt lat="45.72547" lon="5.96446">
        <ele>443</ele>
        <time>2009-07-05T09:23:59Z</time>
      </trkpt>
      <trkpt lat="45.72558" lon="5.96453">
        <ele>444</ele>
        <time>2009-07-05T09:24:04Z</time>
      </trkpt>
      <trkpt lat="45.72567" lon="5.96458">
        <ele>444</ele>
        <time>2009-07-05T09:24:09Z</time>
      </trkpt>
      <trkpt lat="45.72574" lon="5.9646">
        <ele>444</ele>
        <time>2009-07-05T09:24:14Z</time>
      </trkpt>
      <trkpt lat="45.72582" lon="5.96464">
        <ele>444</ele>
        <time>2009-07-05T09:24:19Z</time>
      </trkpt>
      <trkpt lat="45.72592" lon="5.96466">
        <ele>446</ele>
        <time>2009-07-05T09:24:25Z</time>
      </trkpt>
      <trkpt lat="45.72601" lon="5.96468">
        <ele>448</ele>
        <time>2009-07-05T09:24:30Z</time>
      </trkpt>
      <trkpt lat="45.72613" lon="5.96471">
        <ele>448</ele>
        <time>2009-07-05T09:24:35Z</time>
      </trkpt>
      <trkpt lat="45.72621" lon="5.96475">
        <ele>448</ele>
        <time>2009-07-05T09:24:40Z</time>
      </trkpt>
      <trkpt lat="45.7263" lon="5.96477">
        <ele>449</ele>
        <time>2009-07-05T09:24:45Z</time>
      </trkpt>
      <trkpt lat="45.72637" lon="5.9648">
        <ele>450</ele>
        <time>2009-07-05T09:24:50Z</time>
      </trkpt>
      <trkpt lat="45.72644" lon="5.96484">
        <ele>451</ele>
        <time>2009-07-05T09:24:55Z</time>
      </trkpt>
      <trkpt lat="45.7265" lon="5.96486">
        <ele>452</ele>
        <time>2009-07-05T09:25:01Z</time>
      </trkpt>
      <trkpt lat="45.72653" lon="5.96486">
        <ele>452</ele>
        <time>2009-07-05T09:25:06Z</time>
      </trkpt>
      <trkpt lat="45.72656" lon="5.96493">
        <ele>452</ele>
        <time>2009-07-05T09:25:12Z</time>
      </trkpt>
      <trkpt lat="45.7266" lon="5.96499">
        <ele>452</ele>
        <time>2009-07-05T09:25:17Z</time>
      </trkpt>
      <trkpt lat="45.72663" lon="5.96505">
        <ele>452</ele>
        <time>2009-07-05T09:25:22Z</time>
      </trkpt>
      <trkpt lat="45.72667" lon="5.96512">
        <ele>452</ele>
        <time>2009-07-05T09:25:28Z</time>
      </trkpt>
      <trkpt lat="45.7267" lon="5.9652">
        <ele>452</ele>
        <time>2009-07-05T09:25:33Z</time>
      </trkpt>
      <trkpt lat="45.72675" lon="5.96528">
        <ele>452</ele>
        <time>2009-07-05T09:25:38Z</time>
      </trkpt>
      <trkpt lat="45.72676" lon="5.96535">
        <ele>452</ele>
        <time>2009-07-05T09:25:43Z</time>
      </trkpt>
      <trkpt lat="45.72677" lon="5.96536">
        <ele>451</ele>
        <time>2009-07-05T09:25:59Z</time>
      </trkpt>
      <trkpt lat="45.72678" lon="5.9654">
        <ele>450</ele>
        <time>2009-07-05T09:26:04Z</time>
      </trkpt>
      <trkpt lat="45.72682" lon="5.96551">
        <ele>450</ele>
        <time>2009-07-05T09:26:09Z</time>
      </trkpt>
      <trkpt lat="45.72686" lon="5.96562">
        <ele>450</ele>
        <time>2009-07-05T09:26:14Z</time>
      </trkpt>
      <trkpt lat="45.72688" lon="5.96573">
        <ele>450</ele>
        <time>2009-07-05T09:26:19Z</time>
      </trkpt>
      <trkpt lat="45.72689" lon="5.96586">
        <ele>451</ele>
        <time>2009-07-05T09:26:24Z</time>
      </trkpt>
      <trkpt lat="45.72691" lon="5.96596">
        <ele>451</ele>
        <time>2009-07-05T09:26:29Z</time>
      </trkpt>
      <trkpt lat="45.72695" lon="5.96607">
        <ele>451</ele>
        <time>2009-07-05T09:26:34Z</time>
      </trkpt>
      <trkpt lat="45.727" lon="5.96622">
        <ele>453</ele>
        <time>2009-07-05T09:26:39Z</time>
      </trkpt>
      <trkpt lat="45.72704" lon="5.96632">
        <ele>455</ele>
        <time>2009-07-05T09:26:44Z</time>
      </trkpt>
      <trkpt lat="45.72708" lon="5.96643">
        <ele>456</ele>
        <time>2009-07-05T09:26:49Z</time>
      </trkpt>
      <trkpt lat="45.72712" lon="5.96653">
        <ele>458</ele>
        <time>2009-07-05T09:26:54Z</time>
      </trkpt>
      <trkpt lat="45.72715" lon="5.96663">
        <ele>458</ele>
        <time>2009-07-05T09:26:59Z</time>
      </trkpt>
      <trkpt lat="45.72716" lon="5.96675">
        <ele>458</ele>
        <time>2009-07-05T09:27:04Z</time>
      </trkpt>
      <trkpt lat="45.72722" lon="5.9669">
        <ele>459</ele>
        <time>2009-07-05T09:27:09Z</time>
      </trkpt>
      <trkpt lat="45.72727" lon="5.96708">
        <ele>459</ele>
        <time>2009-07-05T09:27:14Z</time>
      </trkpt>
      <trkpt lat="45.72731" lon="5.96721">
        <ele>459</ele>
        <time>2009-07-05T09:27:19Z</time>
      </trkpt>
      <trkpt lat="45.72728" lon="5.96729">
        <ele>460</ele>
        <time>2009-07-05T09:27:24Z</time>
      </trkpt>
      <trkpt lat="45.72727" lon="5.96735">
        <ele>461</ele>
        <time>2009-07-05T09:27:29Z</time>
      </trkpt>
      <trkpt lat="45.72726" lon="5.96736">
        <ele>462</ele>
        <time>2009-07-05T09:27:36Z</time>
      </trkpt>
      <trkpt lat="45.72726" lon="5.96739">
        <ele>462</ele>
        <time>2009-07-05T09:27:46Z</time>
      </trkpt>
      <trkpt lat="45.72726" lon="5.96741">
        <ele>462</ele>
        <time>2009-07-05T09:27:59Z</time>
      </trkpt>
      <trkpt lat="45.72725" lon="5.96743">
        <ele>462</ele>
        <time>2009-07-05T09:28:05Z</time>
      </trkpt>
      <trkpt lat="45.72723" lon="5.96746">
        <ele>462</ele>
        <time>2009-07-05T09:28:16Z</time>
      </trkpt>
      <trkpt lat="45.72722" lon="5.96746">
        <ele>460</ele>
        <time>2009-07-05T09:28:26Z</time>
      </trkpt>
      <trkpt lat="45.72723" lon="5.96745">
        <ele>459</ele>
        <time>2009-07-05T09:28:44Z</time>
      </trkpt>
      <trkpt lat="45.72725" lon="5.96745">
        <ele>459</ele>
        <time>2009-07-05T09:28:49Z</time>
      </trkpt>
      <trkpt lat="45.72726" lon="5.96742">
        <ele>462</ele>
        <time>2009-07-05T09:28:58Z</time>
      </trkpt>
      <trkpt lat="45.72726" lon="5.96741">
        <ele>465</ele>
        <time>2009-07-05T09:29:05Z</time>
      </trkpt>
      <trkpt lat="45.72726" lon="5.96739">
        <ele>465</ele>
        <time>2009-07-05T09:29:13Z</time>
      </trkpt>
      <trkpt lat="45.72726" lon="5.96737">
        <ele>465</ele>
        <time>2009-07-05T09:29:23Z</time>
      </trkpt>
      <trkpt lat="45.72725" lon="5.96736">
        <ele>465</ele>
        <time>2009-07-05T09:29:37Z</time>
      </trkpt>
      <trkpt lat="45.72724" lon="5.96734">
        <ele>466</ele>
        <time>2009-07-05T09:29:58Z</time>
      </trkpt>
      <trkpt lat="45.72723" lon="5.96735">
        <ele>466</ele>
        <time>2009-07-05T09:30:07Z</time>
      </trkpt>
      <trkpt lat="45.72724" lon="5.96737">
        <ele>466</ele>
        <time>2009-07-05T09:30:12Z</time>
      </trkpt>
      <trkpt lat="45.72726" lon="5.96738">
        <ele>464</ele>
        <time>2009-07-05T09:30:22Z</time>
      </trkpt>
      <trkpt lat="45.72725" lon="5.96739">
        <ele>464</ele>
        <time>2009-07-05T09:30:28Z</time>
      </trkpt>
      <trkpt lat="45.72724" lon="5.96741">
        <ele>463</ele>
        <time>2009-07-05T09:30:37Z</time>
      </trkpt>
      <trkpt lat="45.72725" lon="5.96741">
        <ele>463</ele>
        <time>2009-07-05T09:30:50Z</time>
      </trkpt>
      <trkpt lat="45.72729" lon="5.9674">
        <ele>463</ele>
        <time>2009-07-05T09:30:58Z</time>
      </trkpt>
      <trkpt lat="45.72735" lon="5.96742">
        <ele>463</ele>
        <time>2009-07-05T09:31:03Z</time>
      </trkpt>
      <trkpt lat="45.72741" lon="5.9675">
        <ele>463</ele>
        <time>2009-07-05T09:31:08Z</time>
      </trkpt>
      <trkpt lat="45.72745" lon="5.96759">
        <ele>463</ele>
        <time>2009-07-05T09:31:13Z</time>
      </trkpt>
      <trkpt lat="45.7275" lon="5.96771">
        <ele>463</ele>
        <time>2009-07-05T09:31:18Z</time>
      </trkpt>
      <trkpt lat="45.72757" lon="5.96785">
        <ele>463</ele>
        <time>2009-07-05T09:31:23Z</time>
      </trkpt>
      <trkpt lat="45.72764" lon="5.968">
        <ele>463</ele>
        <time>2009-07-05T09:31:28Z</time>
      </trkpt>
      <trkpt lat="45.7277" lon="5.96816">
        <ele>463</ele>
        <time>2009-07-05T09:31:33Z</time>
      </trkpt>
      <trkpt lat="45.72777" lon="5.96832">
        <ele>463</ele>
        <time>2009-07-05T09:31:38Z</time>
      </trkpt>
      <trkpt lat="45.72785" lon="5.96847">
        <ele>463</ele>
        <time>2009-07-05T09:31:43Z</time>
      </trkpt>
      <trkpt lat="45.72794" lon="5.96862">
        <ele>463</ele>
        <time>2009-07-05T09:31:48Z</time>
      </trkpt>
      <trkpt lat="45.72804" lon="5.96875">
        <ele>463</ele>
        <time>2009-07-05T09:31:53Z</time>
      </trkpt>
      <trkpt lat="45.72812" lon="5.96888">
        <ele>463</ele>
        <time>2009-07-05T09:31:58Z</time>
      </trkpt>
      <trkpt lat="45.72819" lon="5.96904">
        <ele>463</ele>
        <time>2009-07-05T09:32:03Z</time>
      </trkpt>
      <trkpt lat="45.72826" lon="5.96919">
        <ele>464</ele>
        <time>2009-07-05T09:32:08Z</time>
      </trkpt>
      <trkpt lat="45.72833" lon="5.96932">
        <ele>466</ele>
        <time>2009-07-05T09:32:13Z</time>
      </trkpt>
      <trkpt lat="45.72836" lon="5.96948">
        <ele>467</ele>
        <time>2009-07-05T09:32:18Z</time>
      </trkpt>
      <trkpt lat="45.72831" lon="5.96962">
        <ele>469</ele>
        <time>2009-07-05T09:32:23Z</time>
      </trkpt>
      <trkpt lat="45.72823" lon="5.96971">
        <ele>470</ele>
        <time>2009-07-05T09:32:28Z</time>
      </trkpt>
      <trkpt lat="45.72814" lon="5.96978">
        <ele>471</ele>
        <time>2009-07-05T09:32:33Z</time>
      </trkpt>
      <trkpt lat="45.72804" lon="5.9698">
        <ele>472</ele>
        <time>2009-07-05T09:32:38Z</time>
      </trkpt>
      <trkpt lat="45.72795" lon="5.96982">
        <ele>473</ele>
        <time>2009-07-05T09:32:43Z</time>
      </trkpt>
      <trkpt lat="45.72785" lon="5.96979">
        <ele>474</ele>
        <time>2009-07-05T09:32:48Z</time>
      </trkpt>
      <trkpt lat="45.72777" lon="5.96974">
        <ele>475</ele>
        <time>2009-07-05T09:32:53Z</time>
      </trkpt>
      <trkpt lat="45.72768" lon="5.96969">
        <ele>476</ele>
        <time>2009-07-05T09:32:58Z</time>
      </trkpt>
      <trkpt lat="45.7276" lon="5.96963">
        <ele>478</ele>
        <time>2009-07-05T09:33:03Z</time>
      </trkpt>
      <trkpt lat="45.72753" lon="5.96961">
        <ele>479</ele>
        <time>2009-07-05T09:33:08Z</time>
      </trkpt>
      <trkpt lat="45.72745" lon="5.96957">
        <ele>480</ele>
        <time>2009-07-05T09:33:13Z</time>
      </trkpt>
      <trkpt lat="45.72738" lon="5.96955">
        <ele>481</ele>
        <time>2009-07-05T09:33:18Z</time>
      </trkpt>
      <trkpt lat="45.72729" lon="5.9695">
        <ele>482</ele>
        <time>2009-07-05T09:33:23Z</time>
      </trkpt>
      <trkpt lat="45.72721" lon="5.96948">
        <ele>482</ele>
        <time>2009-07-05T09:33:28Z</time>
      </trkpt>
      <trkpt lat="45.72712" lon="5.96943">
        <ele>482</ele>
        <time>2009-07-05T09:33:33Z</time>
      </trkpt>
      <trkpt lat="45.72704" lon="5.96937">
        <ele>483</ele>
        <time>2009-07-05T09:33:38Z</time>
      </trkpt>
      <trkpt lat="45.72696" lon="5.96929">
        <ele>484</ele>
        <time>2009-07-05T09:33:43Z</time>
      </trkpt>
      <trkpt lat="45.72689" lon="5.96923">
        <ele>486</ele>
        <time>2009-07-05T09:33:48Z</time>
      </trkpt>
      <trkpt lat="45.72682" lon="5.96916">
        <ele>486</ele>
        <time>2009-07-05T09:33:53Z</time>
      </trkpt>
      <trkpt lat="45.72674" lon="5.96909">
        <ele>486</ele>
        <time>2009-07-05T09:33:58Z</time>
      </trkpt>
      <trkpt lat="45.72668" lon="5.96902">
        <ele>487</ele>
        <time>2009-07-05T09:34:03Z</time>
      </trkpt>
      <trkpt lat="45.72661" lon="5.96894">
        <ele>489</ele>
        <time>2009-07-05T09:34:08Z</time>
      </trkpt>
      <trkpt lat="45.72651" lon="5.96889">
        <ele>489</ele>
        <time>2009-07-05T09:34:13Z</time>
      </trkpt>
      <trkpt lat="45.72642" lon="5.96883">
        <ele>489</ele>
        <time>2009-07-05T09:34:18Z</time>
      </trkpt>
      <trkpt lat="45.72633" lon="5.96879">
        <ele>489</ele>
        <time>2009-07-05T09:34:23Z</time>
      </trkpt>
      <trkpt lat="45.72624" lon="5.96875">
        <ele>490</ele>
        <time>2009-07-05T09:34:28Z</time>
      </trkpt>
      <trkpt lat="45.72616" lon="5.96872">
        <ele>490</ele>
        <time>2009-07-05T09:34:33Z</time>
      </trkpt>
      <trkpt lat="45.72609" lon="5.96868">
        <ele>491</ele>
        <time>2009-07-05T09:34:38Z</time>
      </trkpt>
      <trkpt lat="45.72602" lon="5.96863">
        <ele>492</ele>
        <time>2009-07-05T09:34:43Z</time>
      </trkpt>
      <trkpt lat="45.72594" lon="5.96856">
        <ele>494</ele>
        <time>2009-07-05T09:34:48Z</time>
      </trkpt>
      <trkpt lat="45.72585" lon="5.96851">
        <ele>495</ele>
        <time>2009-07-05T09:34:53Z</time>
      </trkpt>
      <trkpt lat="45.72576" lon="5.96854">
        <ele>495</ele>
        <time>2009-07-05T09:34:58Z</time>
      </trkpt>
      <trkpt lat="45.72574" lon="5.96865">
        <ele>496</ele>
        <time>2009-07-05T09:35:03Z</time>
      </trkpt>
      <trkpt lat="45.72579" lon="5.96873">
        <ele>497</ele>
        <time>2009-07-05T09:35:08Z</time>
      </trkpt>
      <trkpt lat="45.72587" lon="5.9688">
        <ele>497</ele>
        <time>2009-07-05T09:35:13Z</time>
      </trkpt>
      <trkpt lat="45.72595" lon="5.96889">
        <ele>497</ele>
        <time>2009-07-05T09:35:18Z</time>
      </trkpt>
      <trkpt lat="45.72603" lon="5.96897">
        <ele>498</ele>
        <time>2009-07-05T09:35:23Z</time>
      </trkpt>
      <trkpt lat="45.72611" lon="5.96906">
        <ele>498</ele>
        <time>2009-07-05T09:35:28Z</time>
      </trkpt>
      <trkpt lat="45.7262" lon="5.96914">
        <ele>499</ele>
        <time>2009-07-05T09:35:33Z</time>
      </trkpt>
      <trkpt lat="45.72628" lon="5.96924">
        <ele>499</ele>
        <time>2009-07-05T09:35:38Z</time>
      </trkpt>
      <trkpt lat="45.72634" lon="5.96934">
        <ele>500</ele>
        <time>2009-07-05T09:35:43Z</time>
      </trkpt>
      <trkpt lat="45.7264" lon="5.96947">
        <ele>501</ele>
        <time>2009-07-05T09:35:48Z</time>
      </trkpt>
      <trkpt lat="45.72642" lon="5.9696">
        <ele>502</ele>
        <time>2009-07-05T09:35:53Z</time>
      </trkpt>
      <trkpt lat="45.7264" lon="5.96974">
        <ele>503</ele>
        <time>2009-07-05T09:35:58Z</time>
      </trkpt>
      <trkpt lat="45.72635" lon="5.96987">
        <ele>504</ele>
        <time>2009-07-05T09:36:03Z</time>
      </trkpt>
      <trkpt lat="45.7263" lon="5.97">
        <ele>506</ele>
        <time>2009-07-05T09:36:08Z</time>
      </trkpt>
      <trkpt lat="45.72623" lon="5.97013">
        <ele>506</ele>
        <time>2009-07-05T09:36:13Z</time>
      </trkpt>
      <trkpt lat="45.72616" lon="5.97027">
        <ele>507</ele>
        <time>2009-07-05T09:36:18Z</time>
      </trkpt>
      <trkpt lat="45.72606" lon="5.97042">
        <ele>507</ele>
        <time>2009-07-05T09:36:23Z</time>
      </trkpt>
      <trkpt lat="45.72597" lon="5.97059">
        <ele>507</ele>
        <time>2009-07-05T09:36:28Z</time>
      </trkpt>
      <trkpt lat="45.72591" lon="5.97073">
        <ele>508</ele>
        <time>2009-07-05T09:36:33Z</time>
      </trkpt>
      <trkpt lat="45.72586" lon="5.97085">
        <ele>509</ele>
        <time>2009-07-05T09:36:38Z</time>
      </trkpt>
      <trkpt lat="45.7258" lon="5.97096">
        <ele>510</ele>
        <time>2009-07-05T09:36:43Z</time>
      </trkpt>
      <trkpt lat="45.72574" lon="5.97108">
        <ele>511</ele>
        <time>2009-07-05T09:36:48Z</time>
      </trkpt>
      <trkpt lat="45.72567" lon="5.9712">
        <ele>512</ele>
        <time>2009-07-05T09:36:53Z</time>
      </trkpt>
      <trkpt lat="45.7256" lon="5.97132">
        <ele>513</ele>
        <time>2009-07-05T09:36:58Z</time>
      </trkpt>
      <trkpt lat="45.72557" lon="5.97145">
        <ele>514</ele>
        <time>2009-07-05T09:37:03Z</time>
      </trkpt>
      <trkpt lat="45.72556" lon="5.97158">
        <ele>515</ele>
        <time>2009-07-05T09:37:08Z</time>
      </trkpt>
      <trkpt lat="45.72556" lon="5.97172">
        <ele>516</ele>
        <time>2009-07-05T09:37:13Z</time>
      </trkpt>
      <trkpt lat="45.72564" lon="5.97183">
        <ele>517</ele>
        <time>2009-07-05T09:37:18Z</time>
      </trkpt>
      <trkpt lat="45.72572" lon="5.97194">
        <ele>517</ele>
        <time>2009-07-05T09:37:23Z</time>
      </trkpt>
      <trkpt lat="45.72581" lon="5.97205">
        <ele>517</ele>
        <time>2009-07-05T09:37:28Z</time>
      </trkpt>
      <trkpt lat="45.72589" lon="5.97217">
        <ele>517</ele>
        <time>2009-07-05T09:37:33Z</time>
      </trkpt>
      <trkpt lat="45.72599" lon="5.97235">
        <ele>517</ele>
        <time>2009-07-05T09:37:38Z</time>
      </trkpt>
      <trkpt lat="45.72612" lon="5.97251">
        <ele>517</ele>
        <time>2009-07-05T09:37:43Z</time>
      </trkpt>
      <trkpt lat="45.72624" lon="5.97272">
        <ele>517</ele>
        <time>2009-07-05T09:37:48Z</time>
      </trkpt>
      <trkpt lat="45.7264" lon="5.97294">
        <ele>517</ele>
        <time>2009-07-05T09:37:53Z</time>
      </trkpt>
      <trkpt lat="45.72654" lon="5.97316">
        <ele>516</ele>
        <time>2009-07-05T09:37:58Z</time>
      </trkpt>
      <trkpt lat="45.72669" lon="5.97341">
        <ele>515</ele>
        <time>2009-07-05T09:38:03Z</time>
      </trkpt>
      <trkpt lat="45.72683" lon="5.97375">
        <ele>513</ele>
        <time>2009-07-05T09:38:08Z</time>
      </trkpt>
      <trkpt lat="45.72685" lon="5.97405">
        <ele>512</ele>
        <time>2009-07-05T09:38:13Z</time>
      </trkpt>
      <trkpt lat="45.72689" lon="5.97427">
        <ele>510</ele>
        <time>2009-07-05T09:38:18Z</time>
      </trkpt>
      <trkpt lat="45.72692" lon="5.97453">
        <ele>508</ele>
        <time>2009-07-05T09:38:23Z</time>
      </trkpt>
      <trkpt lat="45.72698" lon="5.97481">
        <ele>506</ele>
        <time>2009-07-05T09:38:28Z</time>
      </trkpt>
      <trkpt lat="45.72711" lon="5.97505">
        <ele>505</ele>
        <time>2009-07-05T09:38:33Z</time>
      </trkpt>
      <trkpt lat="45.72727" lon="5.97523">
        <ele>505</ele>
        <time>2009-07-05T09:38:38Z</time>
      </trkpt>
      <trkpt lat="45.72744" lon="5.97542">
        <ele>505</ele>
        <time>2009-07-05T09:38:43Z</time>
      </trkpt>
      <trkpt lat="45.7276" lon="5.97563">
        <ele>505</ele>
        <time>2009-07-05T09:38:48Z</time>
      </trkpt>
      <trkpt lat="45.72775" lon="5.9758">
        <ele>505</ele>
        <time>2009-07-05T09:38:53Z</time>
      </trkpt>
      <trkpt lat="45.72789" lon="5.97597">
        <ele>505</ele>
        <time>2009-07-05T09:38:58Z</time>
      </trkpt>
      <trkpt lat="45.728" lon="5.9761">
        <ele>505</ele>
        <time>2009-07-05T09:39:03Z</time>
      </trkpt>
      <trkpt lat="45.72811" lon="5.97623">
        <ele>505</ele>
        <time>2009-07-05T09:39:08Z</time>
      </trkpt>
      <trkpt lat="45.72824" lon="5.9764">
        <ele>505</ele>
        <time>2009-07-05T09:39:13Z</time>
      </trkpt>
      <trkpt lat="45.72836" lon="5.97657">
        <ele>505</ele>
        <time>2009-07-05T09:39:18Z</time>
      </trkpt>
      <trkpt lat="45.72847" lon="5.97675">
        <ele>505</ele>
        <time>2009-07-05T09:39:23Z</time>
      </trkpt>
      <trkpt lat="45.72857" lon="5.97692">
        <ele>505</ele>
        <time>2009-07-05T09:39:28Z</time>
      </trkpt>
      <trkpt lat="45.72865" lon="5.97707">
        <ele>505</ele>
        <time>2009-07-05T09:39:33Z</time>
      </trkpt>
      <trkpt lat="45.72872" lon="5.9772">
        <ele>505</ele>
        <time>2009-07-05T09:39:38Z</time>
      </trkpt>
      <trkpt lat="45.72876" lon="5.97731">
        <ele>505</ele>
        <time>2009-07-05T09:39:43Z</time>
      </trkpt>
      <trkpt lat="45.7288" lon="5.97746">
        <ele>505</ele>
        <time>2009-07-05T09:39:48Z</time>
      </trkpt>
      <trkpt lat="45.72882" lon="5.97764">
        <ele>505</ele>
        <time>2009-07-05T09:39:53Z</time>
      </trkpt>
      <trkpt lat="45.72883" lon="5.97783">
        <ele>505</ele>
        <time>2009-07-05T09:39:58Z</time>
      </trkpt>
      <trkpt lat="45.72892" lon="5.97785">
        <ele>505</ele>
        <time>2009-07-05T09:40:03Z</time>
      </trkpt>
      <trkpt lat="45.72905" lon="5.97777">
        <ele>505</ele>
        <time>2009-07-05T09:40:08Z</time>
      </trkpt>
      <trkpt lat="45.72927" lon="5.97775">
        <ele>505</ele>
        <time>2009-07-05T09:40:13Z</time>
      </trkpt>
      <trkpt lat="45.72953" lon="5.97752">
        <ele>503</ele>
        <time>2009-07-05T09:40:18Z</time>
      </trkpt>
      <trkpt lat="45.72988" lon="5.97728">
        <ele>500</ele>
        <time>2009-07-05T09:40:23Z</time>
      </trkpt>
      <trkpt lat="45.73026" lon="5.97711">
        <ele>498</ele>
        <time>2009-07-05T09:40:28Z</time>
      </trkpt>
      <trkpt lat="45.73057" lon="5.97664">
        <ele>496</ele>
        <time>2009-07-05T09:40:33Z</time>
      </trkpt>
      <trkpt lat="45.73099" lon="5.97607">
        <ele>490</ele>
        <time>2009-07-05T09:40:39Z</time>
      </trkpt>
      <trkpt lat="45.73137" lon="5.97574">
        <ele>488</ele>
        <time>2009-07-05T09:40:44Z</time>
      </trkpt>
      <trkpt lat="45.73158" lon="5.97563">
        <ele>487</ele>
        <time>2009-07-05T09:40:49Z</time>
      </trkpt>
      <trkpt lat="45.73153" lon="5.97595">
        <ele>485</ele>
        <time>2009-07-05T09:40:54Z</time>
      </trkpt>
      <trkpt lat="45.73138" lon="5.97635">
        <ele>485</ele>
        <time>2009-07-05T09:40:59Z</time>
      </trkpt>
      <trkpt lat="45.73137" lon="5.9768">
        <ele>485</ele>
        <time>2009-07-05T09:41:04Z</time>
      </trkpt>
      <trkpt lat="45.73157" lon="5.97702">
        <ele>484</ele>
        <time>2009-07-05T09:41:09Z</time>
      </trkpt>
      <trkpt lat="45.73177" lon="5.97723">
        <ele>484</ele>
        <time>2009-07-05T09:41:14Z</time>
      </trkpt>
      <trkpt lat="45.73197" lon="5.97748">
        <ele>484</ele>
        <time>2009-07-05T09:41:19Z</time>
      </trkpt>
      <trkpt lat="45.73219" lon="5.9777">
        <ele>484</ele>
        <time>2009-07-05T09:41:24Z</time>
      </trkpt>
      <trkpt lat="45.7323" lon="5.97771">
        <ele>484</ele>
        <time>2009-07-05T09:41:30Z</time>
      </trkpt>
      <trkpt lat="45.7323" lon="5.97773">
        <ele>484</ele>
        <time>2009-07-05T09:42:13Z</time>
      </trkpt>
      <trkpt lat="45.73231" lon="5.97771">
        <ele>484</ele>
        <time>2009-07-05T09:42:31Z</time>
      </trkpt>
      <trkpt lat="45.73232" lon="5.97767">
        <ele>484</ele>
        <time>2009-07-05T09:42:36Z</time>
      </trkpt>
      <trkpt lat="45.73237" lon="5.97754">
        <ele>484</ele>
        <time>2009-07-05T09:42:41Z</time>
      </trkpt>
      <trkpt lat="45.73245" lon="5.97734">
        <ele>483</ele>
        <time>2009-07-05T09:42:46Z</time>
      </trkpt>
      <trkpt lat="45.73265" lon="5.97717">
        <ele>482</ele>
        <time>2009-07-05T09:42:51Z</time>
      </trkpt>
      <trkpt lat="45.73281" lon="5.97709">
        <ele>482</ele>
        <time>2009-07-05T09:42:56Z</time>
      </trkpt>
      <trkpt lat="45.73296" lon="5.97704">
        <ele>481</ele>
        <time>2009-07-05T09:43:01Z</time>
      </trkpt>
      <trkpt lat="45.73313" lon="5.97706">
        <ele>480</ele>
        <time>2009-07-05T09:43:06Z</time>
      </trkpt>
      <trkpt lat="45.73331" lon="5.97712">
        <ele>479</ele>
        <time>2009-07-05T09:43:11Z</time>
      </trkpt>
      <trkpt lat="45.73351" lon="5.97723">
        <ele>477</ele>
        <time>2009-07-05T09:43:16Z</time>
      </trkpt>
      <trkpt lat="45.73367" lon="5.97732">
        <ele>475</ele>
        <time>2009-07-05T09:43:21Z</time>
      </trkpt>
      <trkpt lat="45.73382" lon="5.9774">
        <ele>473</ele>
        <time>2009-07-05T09:43:26Z</time>
      </trkpt>
      <trkpt lat="45.734" lon="5.97751">
        <ele>472</ele>
        <time>2009-07-05T09:43:31Z</time>
      </trkpt>
      <trkpt lat="45.73418" lon="5.97764">
        <ele>472</ele>
        <time>2009-07-05T09:43:36Z</time>
      </trkpt>
      <trkpt lat="45.73434" lon="5.97775">
        <ele>472</ele>
        <time>2009-07-05T09:43:41Z</time>
      </trkpt>
      <trkpt lat="45.73445" lon="5.97786">
        <ele>472</ele>
        <time>2009-07-05T09:43:46Z</time>
      </trkpt>
      <trkpt lat="45.73459" lon="5.97797">
        <ele>472</ele>
        <time>2009-07-05T09:43:51Z</time>
      </trkpt>
      <trkpt lat="45.73482" lon="5.97801">
        <ele>472</ele>
        <time>2009-07-05T09:43:56Z</time>
      </trkpt>
      <trkpt lat="45.73511" lon="5.97783">
        <ele>471</ele>
        <time>2009-07-05T09:44:01Z</time>
      </trkpt>
      <trkpt lat="45.73547" lon="5.9779">
        <ele>468</ele>
        <time>2009-07-05T09:44:06Z</time>
      </trkpt>
      <trkpt lat="45.73576" lon="5.9781">
        <ele>467</ele>
        <time>2009-07-05T09:44:11Z</time>
      </trkpt>
      <trkpt lat="45.73604" lon="5.97833">
        <ele>465</ele>
        <time>2009-07-05T09:44:16Z</time>
      </trkpt>
      <trkpt lat="45.73635" lon="5.97832">
        <ele>464</ele>
        <time>2009-07-05T09:44:21Z</time>
      </trkpt>
      <trkpt lat="45.73656" lon="5.97803">
        <ele>464</ele>
        <time>2009-07-05T09:44:26Z</time>
      </trkpt>
      <trkpt lat="45.73669" lon="5.97781">
        <ele>465</ele>
        <time>2009-07-05T09:44:31Z</time>
      </trkpt>
      <trkpt lat="45.73677" lon="5.97769">
        <ele>466</ele>
        <time>2009-07-05T09:44:36Z</time>
      </trkpt>
      <trkpt lat="45.73673" lon="5.97778">
        <ele>466</ele>
        <time>2009-07-05T09:44:41Z</time>
      </trkpt>
      <trkpt lat="45.73665" lon="5.97792">
        <ele>466</ele>
        <time>2009-07-05T09:44:46Z</time>
      </trkpt>
      <trkpt lat="45.73656" lon="5.97806">
        <ele>466</ele>
        <time>2009-07-05T09:44:51Z</time>
      </trkpt>
      <trkpt lat="45.73658" lon="5.97822">
        <ele>466</ele>
        <time>2009-07-05T09:44:56Z</time>
      </trkpt>
      <trkpt lat="45.73671" lon="5.9783">
        <ele>466</ele>
        <time>2009-07-05T09:45:01Z</time>
      </trkpt>
      <trkpt lat="45.73684" lon="5.97838">
        <ele>466</ele>
        <time>2009-07-05T09:45:06Z</time>
      </trkpt>
      <trkpt lat="45.73699" lon="5.97838">
        <ele>466</ele>
        <time>2009-07-05T09:45:11Z</time>
      </trkpt>
      <trkpt lat="45.73713" lon="5.97838">
        <ele>466</ele>
        <time>2009-07-05T09:45:16Z</time>
      </trkpt>
      <trkpt lat="45.73726" lon="5.97843">
        <ele>466</ele>
        <time>2009-07-05T09:45:21Z</time>
      </trkpt>
      <trkpt lat="45.73738" lon="5.97849">
        <ele>466</ele>
        <time>2009-07-05T09:45:26Z</time>
      </trkpt>
      <trkpt lat="45.73749" lon="5.97855">
        <ele>466</ele>
        <time>2009-07-05T09:45:31Z</time>
      </trkpt>
      <trkpt lat="45.73762" lon="5.9786">
        <ele>466</ele>
        <time>2009-07-05T09:45:36Z</time>
      </trkpt>
      <trkpt lat="45.73777" lon="5.97866">
        <ele>466</ele>
        <time>2009-07-05T09:45:41Z</time>
      </trkpt>
      <trkpt lat="45.73792" lon="5.97873">
        <ele>466</ele>
        <time>2009-07-05T09:45:46Z</time>
      </trkpt>
      <trkpt lat="45.73803" lon="5.97878">
        <ele>467</ele>
        <time>2009-07-05T09:45:51Z</time>
      </trkpt>
      <trkpt lat="45.73817" lon="5.97884">
        <ele>467</ele>
        <time>2009-07-05T09:45:56Z</time>
      </trkpt>
      <trkpt lat="45.73832" lon="5.97892">
        <ele>468</ele>
        <time>2009-07-05T09:46:01Z</time>
      </trkpt>
      <trkpt lat="45.73846" lon="5.979">
        <ele>469</ele>
        <time>2009-07-05T09:46:06Z</time>
      </trkpt>
      <trkpt lat="45.73861" lon="5.97907">
        <ele>470</ele>
        <time>2009-07-05T09:46:11Z</time>
      </trkpt>
      <trkpt lat="45.73876" lon="5.97912">
        <ele>471</ele>
        <time>2009-07-05T09:46:16Z</time>
      </trkpt>
      <trkpt lat="45.73892" lon="5.97909">
        <ele>471</ele>
        <time>2009-07-05T09:46:21Z</time>
      </trkpt>
      <trkpt lat="45.73905" lon="5.97909">
        <ele>471</ele>
        <time>2009-07-05T09:46:26Z</time>
      </trkpt>
      <trkpt lat="45.73914" lon="5.97903">
        <ele>471</ele>
        <time>2009-07-05T09:46:31Z</time>
      </trkpt>
      <trkpt lat="45.73919" lon="5.97907">
        <ele>471</ele>
        <time>2009-07-05T09:46:36Z</time>
      </trkpt>
      <trkpt lat="45.73909" lon="5.97931">
        <ele>468</ele>
        <time>2009-07-05T09:46:41Z</time>
      </trkpt>
      <trkpt lat="45.73898" lon="5.97954">
        <ele>465</ele>
        <time>2009-07-05T09:46:46Z</time>
      </trkpt>
      <trkpt lat="45.7389" lon="5.97974">
        <ele>461</ele>
        <time>2009-07-05T09:46:51Z</time>
      </trkpt>
      <trkpt lat="45.73881" lon="5.97997">
        <ele>458</ele>
        <time>2009-07-05T09:46:56Z</time>
      </trkpt>
      <trkpt lat="45.73876" lon="5.98027">
        <ele>453</ele>
        <time>2009-07-05T09:47:01Z</time>
      </trkpt>
      <trkpt lat="45.73869" lon="5.9807">
        <ele>448</ele>
        <time>2009-07-05T09:47:06Z</time>
      </trkpt>
      <trkpt lat="45.73867" lon="5.98096">
        <ele>443</ele>
        <time>2009-07-05T09:47:11Z</time>
      </trkpt>
      <trkpt lat="45.73868" lon="5.98127">
        <ele>442</ele>
        <time>2009-07-05T09:47:16Z</time>
      </trkpt>
      <trkpt lat="45.73881" lon="5.98176">
        <ele>442</ele>
        <time>2009-07-05T09:47:21Z</time>
      </trkpt>
      <trkpt lat="45.73885" lon="5.98217">
        <ele>445</ele>
        <time>2009-07-05T09:47:26Z</time>
      </trkpt>
      <trkpt lat="45.73879" lon="5.98246">
        <ele>447</ele>
        <time>2009-07-05T09:47:31Z</time>
      </trkpt>
      <trkpt lat="45.7388" lon="5.98269">
        <ele>447</ele>
        <time>2009-07-05T09:47:36Z</time>
      </trkpt>
      <trkpt lat="45.73871" lon="5.98272">
        <ele>443</ele>
        <time>2009-07-05T09:47:41Z</time>
      </trkpt>
      <trkpt lat="45.73868" lon="5.98273">
        <ele>440</ele>
        <time>2009-07-05T09:47:47Z</time>
      </trkpt>
      <trkpt lat="45.73871" lon="5.98282">
        <ele>440</ele>
        <time>2009-07-05T09:47:53Z</time>
      </trkpt>
      <trkpt lat="45.73872" lon="5.98285">
        <ele>439</ele>
        <time>2009-07-05T09:47:58Z</time>
      </trkpt>
      <trkpt lat="45.73874" lon="5.98292">
        <ele>439</ele>
        <time>2009-07-05T09:48:03Z</time>
      </trkpt>
      <trkpt lat="45.7387" lon="5.98297">
        <ele>435</ele>
        <time>2009-07-05T09:48:09Z</time>
      </trkpt>
      <trkpt lat="45.73866" lon="5.98302">
        <ele>433</ele>
        <time>2009-07-05T09:48:15Z</time>
      </trkpt>
      <trkpt lat="45.73866" lon="5.98308">
        <ele>433</ele>
        <time>2009-07-05T09:48:24Z</time>
      </trkpt>
      <trkpt lat="45.73866" lon="5.98315">
        <ele>433</ele>
        <time>2009-07-05T09:48:30Z</time>
      </trkpt>
      <trkpt lat="45.73862" lon="5.98319">
        <ele>436</ele>
        <time>2009-07-05T09:48:36Z</time>
      </trkpt>
      <trkpt lat="45.73858" lon="5.98324">
        <ele>437</ele>
        <time>2009-07-05T09:48:43Z</time>
      </trkpt>
      <trkpt lat="45.73855" lon="5.98333">
        <ele>437</ele>
        <time>2009-07-05T09:48:48Z</time>
      </trkpt>
      <trkpt lat="45.73854" lon="5.9835">
        <ele>438</ele>
        <time>2009-07-05T09:48:53Z</time>
      </trkpt>
      <trkpt lat="45.7385" lon="5.98369">
        <ele>438</ele>
        <time>2009-07-05T09:48:58Z</time>
      </trkpt>
      <trkpt lat="45.73844" lon="5.9838">
        <ele>438</ele>
        <time>2009-07-05T09:49:03Z</time>
      </trkpt>
      <trkpt lat="45.73838" lon="5.98389">
        <ele>438</ele>
        <time>2009-07-05T09:49:09Z</time>
      </trkpt>
      <trkpt lat="45.73842" lon="5.98398">
        <ele>440</ele>
        <time>2009-07-05T09:49:14Z</time>
      </trkpt>
      <trkpt lat="45.7385" lon="5.98409">
        <ele>440</ele>
        <time>2009-07-05T09:49:19Z</time>
      </trkpt>
      <trkpt lat="45.73855" lon="5.9842">
        <ele>440</ele>
        <time>2009-07-05T09:49:24Z</time>
      </trkpt>
      <trkpt lat="45.73858" lon="5.98428">
        <ele>440</ele>
        <time>2009-07-05T09:49:30Z</time>
      </trkpt>
      <trkpt lat="45.73866" lon="5.98437">
        <ele>440</ele>
        <time>2009-07-05T09:49:35Z</time>
      </trkpt>
      <trkpt lat="45.73872" lon="5.98442">
        <ele>440</ele>
        <time>2009-07-05T09:49:40Z</time>
      </trkpt>
      <trkpt lat="45.73881" lon="5.98447">
        <ele>443</ele>
        <time>2009-07-05T09:49:45Z</time>
      </trkpt>
      <trkpt lat="45.73889" lon="5.98451">
        <ele>445</ele>
        <time>2009-07-05T09:49:51Z</time>
      </trkpt>
      <trkpt lat="45.73895" lon="5.98451">
        <ele>448</ele>
        <time>2009-07-05T09:49:56Z</time>
      </trkpt>
      <trkpt lat="45.73902" lon="5.98451">
        <ele>449</ele>
        <time>2009-07-05T09:50:01Z</time>
      </trkpt>
      <trkpt lat="45.73906" lon="5.98449">
        <ele>450</ele>
        <time>2009-07-05T09:50:07Z</time>
      </trkpt>
      <trkpt lat="45.73908" lon="5.98451">
        <ele>450</ele>
        <time>2009-07-05T09:50:14Z</time>
      </trkpt>
      <trkpt lat="45.73923" lon="5.98452">
        <ele>453</ele>
        <time>2009-07-05T09:50:19Z</time>
      </trkpt>
      <trkpt lat="45.7393" lon="5.98452">
        <ele>458</ele>
        <time>2009-07-05T09:50:24Z</time>
      </trkpt>
      <trkpt lat="45.73932" lon="5.98448">
        <ele>459</ele>
        <time>2009-07-05T09:50:29Z</time>
      </trkpt>
      <trkpt lat="45.73932" lon="5.98444">
        <ele>459</ele>
        <time>2009-07-05T09:50:35Z</time>
      </trkpt>
      <trkpt lat="45.7393" lon="5.98447">
        <ele>459</ele>
        <time>2009-07-05T09:50:40Z</time>
      </trkpt>
      <trkpt lat="45.73928" lon="5.98453">
        <ele>459</ele>
        <time>2009-07-05T09:50:45Z</time>
      </trkpt>
      <trkpt lat="45.73927" lon="5.98459">
        <ele>459</ele>
        <time>2009-07-05T09:50:51Z</time>
      </trkpt>
      <trkpt lat="45.73919" lon="5.98466">
        <ele>459</ele>
        <time>2009-07-05T09:50:56Z</time>
      </trkpt>
      <trkpt lat="45.73911" lon="5.98474">
        <ele>460</ele>
        <time>2009-07-05T09:51:01Z</time>
      </trkpt>
      <trkpt lat="45.73905" lon="5.98483">
        <ele>461</ele>
        <time>2009-07-05T09:51:06Z</time>
      </trkpt>
      <trkpt lat="45.73899" lon="5.98491">
        <ele>462</ele>
        <time>2009-07-05T09:51:11Z</time>
      </trkpt>
      <trkpt lat="45.73893" lon="5.985">
        <ele>463</ele>
        <time>2009-07-05T09:51:16Z</time>
      </trkpt>
      <trkpt lat="45.73887" lon="5.9851">
        <ele>464</ele>
        <time>2009-07-05T09:51:21Z</time>
      </trkpt>
      <trkpt lat="45.73881" lon="5.98519">
        <ele>465</ele>
        <time>2009-07-05T09:51:26Z</time>
      </trkpt>
      <trkpt lat="45.73877" lon="5.98527">
        <ele>466</ele>
        <time>2009-07-05T09:51:31Z</time>
      </trkpt>
      <trkpt lat="45.73872" lon="5.98535">
        <ele>467</ele>
        <time>2009-07-05T09:51:36Z</time>
      </trkpt>
      <trkpt lat="45.7387" lon="5.98544">
        <ele>467</ele>
        <time>2009-07-05T09:51:42Z</time>
      </trkpt>
      <trkpt lat="45.73867" lon="5.98551">
        <ele>467</ele>
        <time>2009-07-05T09:51:47Z</time>
      </trkpt>
      <trkpt lat="45.73866" lon="5.98559">
        <ele>468</ele>
        <time>2009-07-05T09:51:52Z</time>
      </trkpt>
      <trkpt lat="45.73869" lon="5.98567">
        <ele>469</ele>
        <time>2009-07-05T09:51:57Z</time>
      </trkpt>
      <trkpt lat="45.73875" lon="5.98571">
        <ele>469</ele>
        <time>2009-07-05T09:52:02Z</time>
      </trkpt>
      <trkpt lat="45.73881" lon="5.98574">
        <ele>469</ele>
        <time>2009-07-05T09:52:07Z</time>
      </trkpt>
      <trkpt lat="45.73887" lon="5.98575">
        <ele>469</ele>
        <time>2009-07-05T09:52:12Z</time>
      </trkpt>
      <trkpt lat="45.73894" lon="5.98576">
        <ele>469</ele>
        <time>2009-07-05T09:52:17Z</time>
      </trkpt>
      <trkpt lat="45.73901" lon="5.98575">
        <ele>469</ele>
        <time>2009-07-05T09:52:22Z</time>
      </trkpt>
      <trkpt lat="45.73908" lon="5.98573">
        <ele>469</ele>
        <time>2009-07-05T09:52:27Z</time>
      </trkpt>
      <trkpt lat="45.73915" lon="5.98572">
        <ele>469</ele>
        <time>2009-07-05T09:52:32Z</time>
      </trkpt>
      <trkpt lat="45.73922" lon="5.98569">
        <ele>470</ele>
        <time>2009-07-05T09:52:37Z</time>
      </trkpt>
      <trkpt lat="45.73928" lon="5.98566">
        <ele>471</ele>
        <time>2009-07-05T09:52:42Z</time>
      </trkpt>
      <trkpt lat="45.73936" lon="5.98561">
        <ele>473</ele>
        <time>2009-07-05T09:52:48Z</time>
      </trkpt>
      <trkpt lat="45.73939" lon="5.98564">
        <ele>474</ele>
        <time>2009-07-05T09:52:53Z</time>
      </trkpt>
      <trkpt lat="45.73936" lon="5.98569">
        <ele>476</ele>
        <time>2009-07-05T09:52:58Z</time>
      </trkpt>
      <trkpt lat="45.73933" lon="5.98577">
        <ele>479</ele>
        <time>2009-07-05T09:53:03Z</time>
      </trkpt>
      <trkpt lat="45.73931" lon="5.98583">
        <ele>480</ele>
        <time>2009-07-05T09:53:08Z</time>
      </trkpt>
      <trkpt lat="45.73928" lon="5.98592">
        <ele>481</ele>
        <time>2009-07-05T09:53:13Z</time>
      </trkpt>
      <trkpt lat="45.73926" lon="5.986">
        <ele>481</ele>
        <time>2009-07-05T09:53:18Z</time>
      </trkpt>
      <trkpt lat="45.73922" lon="5.98609">
        <ele>483</ele>
        <time>2009-07-05T09:53:24Z</time>
      </trkpt>
      <trkpt lat="45.73918" lon="5.98617">
        <ele>484</ele>
        <time>2009-07-05T09:53:29Z</time>
      </trkpt>
      <trkpt lat="45.73916" lon="5.98625">
        <ele>485</ele>
        <time>2009-07-05T09:53:34Z</time>
      </trkpt>
      <trkpt lat="45.73916" lon="5.98634">
        <ele>486</ele>
        <time>2009-07-05T09:53:39Z</time>
      </trkpt>
      <trkpt lat="45.73919" lon="5.98639">
        <ele>488</ele>
        <time>2009-07-05T09:53:49Z</time>
      </trkpt>
      <trkpt lat="45.73924" lon="5.98641">
        <ele>488</ele>
        <time>2009-07-05T09:53:55Z</time>
      </trkpt>
      <trkpt lat="45.73926" lon="5.98641">
        <ele>488</ele>
        <time>2009-07-05T09:54:01Z</time>
      </trkpt>
      <trkpt lat="45.73927" lon="5.98641">
        <ele>489</ele>
        <time>2009-07-05T09:54:06Z</time>
      </trkpt>
      <trkpt lat="45.73926" lon="5.98643">
        <ele>491</ele>
        <time>2009-07-05T09:54:28Z</time>
      </trkpt>
      <trkpt lat="45.73924" lon="5.9864">
        <ele>491</ele>
        <time>2009-07-05T09:54:34Z</time>
      </trkpt>
      <trkpt lat="45.73925" lon="5.9864">
        <ele>491</ele>
        <time>2009-07-05T09:54:40Z</time>
      </trkpt>
      <trkpt lat="45.73926" lon="5.98639">
        <ele>491</ele>
        <time>2009-07-05T09:54:53Z</time>
      </trkpt>
      <trkpt lat="45.73928" lon="5.98639">
        <ele>491</ele>
        <time>2009-07-05T09:55:15Z</time>
      </trkpt>
      <trkpt lat="45.73929" lon="5.98639">
        <ele>491</ele>
        <time>2009-07-05T09:55:25Z</time>
      </trkpt>
      <trkpt lat="45.73929" lon="5.98641">
        <ele>491</ele>
        <time>2009-07-05T09:55:38Z</time>
      </trkpt>
      <trkpt lat="45.73932" lon="5.98642">
        <ele>492</ele>
        <time>2009-07-05T09:55:52Z</time>
      </trkpt>
      <trkpt lat="45.73933" lon="5.98642">
        <ele>493</ele>
        <time>2009-07-05T09:56:22Z</time>
      </trkpt>
      <trkpt lat="45.73934" lon="5.98643">
        <ele>496</ele>
        <time>2009-07-05T09:56:30Z</time>
      </trkpt>
      <trkpt lat="45.73934" lon="5.98652">
        <ele>496</ele>
        <time>2009-07-05T09:56:35Z</time>
      </trkpt>
      <trkpt lat="45.73931" lon="5.98659">
        <ele>496</ele>
        <time>2009-07-05T09:56:40Z</time>
      </trkpt>
      <trkpt lat="45.73932" lon="5.98667">
        <ele>496</ele>
        <time>2009-07-05T09:56:45Z</time>
      </trkpt>
      <trkpt lat="45.73934" lon="5.98675">
        <ele>496</ele>
        <time>2009-07-05T09:56:50Z</time>
      </trkpt>
      <trkpt lat="45.7394" lon="5.98684">
        <ele>495</ele>
        <time>2009-07-05T09:56:55Z</time>
      </trkpt>
      <trkpt lat="45.73948" lon="5.98688">
        <ele>495</ele>
        <time>2009-07-05T09:57:00Z</time>
      </trkpt>
      <trkpt lat="45.73959" lon="5.98696">
        <ele>495</ele>
        <time>2009-07-05T09:57:05Z</time>
      </trkpt>
      <trkpt lat="45.7397" lon="5.98709">
        <ele>495</ele>
        <time>2009-07-05T09:57:10Z</time>
      </trkpt>
      <trkpt lat="45.73983" lon="5.98725">
        <ele>495</ele>
        <time>2009-07-05T09:57:16Z</time>
      </trkpt>
      <trkpt lat="45.73987" lon="5.98727">
        <ele>494</ele>
        <time>2009-07-05T09:57:23Z</time>
      </trkpt>
      <trkpt lat="45.73989" lon="5.98731">
        <ele>492</ele>
        <time>2009-07-05T09:57:28Z</time>
      </trkpt>
      <trkpt lat="45.73988" lon="5.98729">
        <ele>492</ele>
        <time>2009-07-05T09:57:35Z</time>
      </trkpt>
      <trkpt lat="45.73989" lon="5.98727">
        <ele>490</ele>
        <time>2009-07-05T09:57:47Z</time>
      </trkpt>
      <trkpt lat="45.73989" lon="5.98728">
        <ele>490</ele>
        <time>2009-07-05T09:58:00Z</time>
      </trkpt>
      <trkpt lat="45.73991" lon="5.9873">
        <ele>490</ele>
        <time>2009-07-05T09:58:07Z</time>
      </trkpt>
      <trkpt lat="45.73991" lon="5.98732">
        <ele>490</ele>
        <time>2009-07-05T09:58:21Z</time>
      </trkpt>
      <trkpt lat="45.73991" lon="5.98734">
        <ele>490</ele>
        <time>2009-07-05T09:58:32Z</time>
      </trkpt>
      <trkpt lat="45.73992" lon="5.98735">
        <ele>490</ele>
        <time>2009-07-05T09:58:45Z</time>
      </trkpt>
      <trkpt lat="45.73991" lon="5.98733">
        <ele>489</ele>
        <time>2009-07-05T09:58:51Z</time>
      </trkpt>
      <trkpt lat="45.7399" lon="5.98732">
        <ele>489</ele>
        <time>2009-07-05T09:58:56Z</time>
      </trkpt>
      <trkpt lat="45.7399" lon="5.98731">
        <ele>489</ele>
        <time>2009-07-05T09:59:02Z</time>
      </trkpt>
      <trkpt lat="45.73989" lon="5.98728">
        <ele>489</ele>
        <time>2009-07-05T09:59:09Z</time>
      </trkpt>
      <trkpt lat="45.7399" lon="5.9873">
        <ele>489</ele>
        <time>2009-07-05T09:59:15Z</time>
      </trkpt>
      <trkpt lat="45.73991" lon="5.9873">
        <ele>489</ele>
        <time>2009-07-05T09:59:21Z</time>
      </trkpt>
      <trkpt lat="45.7399" lon="5.98729">
        <ele>489</ele>
        <time>2009-07-05T09:59:27Z</time>
      </trkpt>
      <trkpt lat="45.73987" lon="5.9873">
        <ele>490</ele>
        <time>2009-07-05T09:59:37Z</time>
      </trkpt>
      <trkpt lat="45.73988" lon="5.9873">
        <ele>491</ele>
        <time>2009-07-05T09:59:48Z</time>
      </trkpt>
      <trkpt lat="45.7399" lon="5.98729">
        <ele>491</ele>
        <time>2009-07-05T09:59:55Z</time>
      </trkpt>
      <trkpt lat="45.73991" lon="5.9873">
        <ele>491</ele>
        <time>2009-07-05T10:00:00Z</time>
      </trkpt>
      <trkpt lat="45.73991" lon="5.98728">
        <ele>491</ele>
        <time>2009-07-05T10:00:05Z</time>
      </trkpt>
      <trkpt lat="45.73994" lon="5.98727">
        <ele>491</ele>
        <time>2009-07-05T10:00:14Z</time>
      </trkpt>
      <trkpt lat="45.73993" lon="5.98729">
        <ele>491</ele>
        <time>2009-07-05T10:00:19Z</time>
      </trkpt>
      <trkpt lat="45.7399" lon="5.98731">
        <ele>491</ele>
        <time>2009-07-05T10:00:30Z</time>
      </trkpt>
      <trkpt lat="45.73986" lon="5.98729">
        <ele>490</ele>
        <time>2009-07-05T10:00:39Z</time>
      </trkpt>
      <trkpt lat="45.73987" lon="5.98728">
        <ele>490</ele>
        <time>2009-07-05T10:01:03Z</time>
      </trkpt>
      <trkpt lat="45.73988" lon="5.98727">
        <ele>490</ele>
        <time>2009-07-05T10:01:11Z</time>
      </trkpt>
      <trkpt lat="45.73991" lon="5.98726">
        <ele>490</ele>
        <time>2009-07-05T10:01:16Z</time>
      </trkpt>
      <trkpt lat="45.73993" lon="5.98725">
        <ele>490</ele>
        <time>2009-07-05T10:01:36Z</time>
      </trkpt>
      <trkpt lat="45.73992" lon="5.98726">
        <ele>490</ele>
        <time>2009-07-05T10:01:53Z</time>
      </trkpt>
      <trkpt lat="45.73992" lon="5.98728">
        <ele>490</ele>
        <time>2009-07-05T10:01:58Z</time>
      </trkpt>
      <trkpt lat="45.7399" lon="5.9873">
        <ele>490</ele>
        <time>2009-07-05T10:02:04Z</time>
      </trkpt>
      <trkpt lat="45.73987" lon="5.9873">
        <ele>490</ele>
        <time>2009-07-05T10:02:11Z</time>
      </trkpt>
      <trkpt lat="45.73988" lon="5.98731">
        <ele>490</ele>
        <time>2009-07-05T10:02:20Z</time>
      </trkpt>
      <trkpt lat="45.73989" lon="5.9873">
        <ele>492</ele>
        <time>2009-07-05T10:02:38Z</time>
      </trkpt>
      <trkpt lat="45.73985" lon="5.98724">
        <ele>492</ele>
        <time>2009-07-05T10:02:43Z</time>
      </trkpt>
      <trkpt lat="45.73978" lon="5.98714">
        <ele>492</ele>
        <time>2009-07-05T10:02:48Z</time>
      </trkpt>
      <trkpt lat="45.73969" lon="5.98701">
        <ele>492</ele>
        <time>2009-07-05T10:02:53Z</time>
      </trkpt>
      <trkpt lat="45.73958" lon="5.98693">
        <ele>492</ele>
        <time>2009-07-05T10:02:58Z</time>
      </trkpt>
      <trkpt lat="45.73946" lon="5.98687">
        <ele>492</ele>
        <time>2009-07-05T10:03:04Z</time>
      </trkpt>
      <trkpt lat="45.73932" lon="5.98693">
        <ele>492</ele>
        <time>2009-07-05T10:03:09Z</time>
      </trkpt>
      <trkpt lat="45.73924" lon="5.98716">
        <ele>492</ele>
        <time>2009-07-05T10:03:14Z</time>
      </trkpt>
      <trkpt lat="45.73925" lon="5.98739">
        <ele>492</ele>
        <time>2009-07-05T10:03:19Z</time>
      </trkpt>
      <trkpt lat="45.73927" lon="5.98748">
        <ele>492</ele>
        <time>2009-07-05T10:03:24Z</time>
      </trkpt>
      <trkpt lat="45.73931" lon="5.98756">
        <ele>493</ele>
        <time>2009-07-05T10:03:29Z</time>
      </trkpt>
      <trkpt lat="45.73932" lon="5.98769">
        <ele>494</ele>
        <time>2009-07-05T10:03:34Z</time>
      </trkpt>
      <trkpt lat="45.73931" lon="5.98782">
        <ele>496</ele>
        <time>2009-07-05T10:03:39Z</time>
      </trkpt>
      <trkpt lat="45.73929" lon="5.98795">
        <ele>497</ele>
        <time>2009-07-05T10:03:44Z</time>
      </trkpt>
      <trkpt lat="45.73926" lon="5.98806">
        <ele>499</ele>
        <time>2009-07-05T10:03:49Z</time>
      </trkpt>
      <trkpt lat="45.73924" lon="5.9882">
        <ele>502</ele>
        <time>2009-07-05T10:03:55Z</time>
      </trkpt>
      <trkpt lat="45.73922" lon="5.9883">
        <ele>503</ele>
        <time>2009-07-05T10:04:00Z</time>
      </trkpt>
      <trkpt lat="45.73918" lon="5.98839">
        <ele>504</ele>
        <time>2009-07-05T10:04:05Z</time>
      </trkpt>
      <trkpt lat="45.73916" lon="5.9885">
        <ele>505</ele>
        <time>2009-07-05T10:04:10Z</time>
      </trkpt>
      <trkpt lat="45.73913" lon="5.98861">
        <ele>506</ele>
        <time>2009-07-05T10:04:15Z</time>
      </trkpt>
      <trkpt lat="45.7391" lon="5.98872">
        <ele>507</ele>
        <time>2009-07-05T10:04:20Z</time>
      </trkpt>
      <trkpt lat="45.73907" lon="5.98881">
        <ele>508</ele>
        <time>2009-07-05T10:04:25Z</time>
      </trkpt>
      <trkpt lat="45.73905" lon="5.98891">
        <ele>509</ele>
        <time>2009-07-05T10:04:30Z</time>
      </trkpt>
      <trkpt lat="45.73903" lon="5.98899">
        <ele>510</ele>
        <time>2009-07-05T10:04:35Z</time>
      </trkpt>
      <trkpt lat="45.73906" lon="5.98905">
        <ele>511</ele>
        <time>2009-07-05T10:04:40Z</time>
      </trkpt>
      <trkpt lat="45.73913" lon="5.9891">
        <ele>511</ele>
        <time>2009-07-05T10:04:45Z</time>
      </trkpt>
      <trkpt lat="45.73923" lon="5.98918">
        <ele>511</ele>
        <time>2009-07-05T10:04:50Z</time>
      </trkpt>
      <trkpt lat="45.73935" lon="5.98927">
        <ele>511</ele>
        <time>2009-07-05T10:04:55Z</time>
      </trkpt>
      <trkpt lat="45.73947" lon="5.98935">
        <ele>511</ele>
        <time>2009-07-05T10:05:00Z</time>
      </trkpt>
      <trkpt lat="45.73957" lon="5.98945">
        <ele>511</ele>
        <time>2009-07-05T10:05:05Z</time>
      </trkpt>
      <trkpt lat="45.73966" lon="5.98952">
        <ele>511</ele>
        <time>2009-07-05T10:05:10Z</time>
      </trkpt>
      <trkpt lat="45.73968" lon="5.98955">
        <ele>511</ele>
        <time>2009-07-05T10:05:20Z</time>
      </trkpt>
      <trkpt lat="45.73978" lon="5.98963">
        <ele>511</ele>
        <time>2009-07-05T10:05:25Z</time>
      </trkpt>
      <trkpt lat="45.73992" lon="5.98977">
        <ele>511</ele>
        <time>2009-07-05T10:05:30Z</time>
      </trkpt>
      <trkpt lat="45.74009" lon="5.98994">
        <ele>511</ele>
        <time>2009-07-05T10:05:35Z</time>
      </trkpt>
      <trkpt lat="45.74026" lon="5.9901">
        <ele>511</ele>
        <time>2009-07-05T10:05:40Z</time>
      </trkpt>
      <trkpt lat="45.74041" lon="5.99026">
        <ele>511</ele>
        <time>2009-07-05T10:05:45Z</time>
      </trkpt>
      <trkpt lat="45.74056" lon="5.99041">
        <ele>511</ele>
        <time>2009-07-05T10:05:50Z</time>
      </trkpt>
      <trkpt lat="45.74074" lon="5.99065">
        <ele>511</ele>
        <time>2009-07-05T10:05:55Z</time>
      </trkpt>
      <trkpt lat="45.74082" lon="5.99101">
        <ele>511</ele>
        <time>2009-07-05T10:06:00Z</time>
      </trkpt>
      <trkpt lat="45.74076" lon="5.99123">
        <ele>511</ele>
        <time>2009-07-05T10:06:05Z</time>
      </trkpt>
      <trkpt lat="45.74068" lon="5.99138">
        <ele>511</ele>
        <time>2009-07-05T10:06:10Z</time>
      </trkpt>
      <trkpt lat="45.74062" lon="5.99152">
        <ele>513</ele>
        <time>2009-07-05T10:06:15Z</time>
      </trkpt>
      <trkpt lat="45.74055" lon="5.99167">
        <ele>514</ele>
        <time>2009-07-05T10:06:20Z</time>
      </trkpt>
      <trkpt lat="45.74056" lon="5.99185">
        <ele>516</ele>
        <time>2009-07-05T10:06:25Z</time>
      </trkpt>
      <trkpt lat="45.74068" lon="5.99203">
        <ele>516</ele>
        <time>2009-07-05T10:06:30Z</time>
      </trkpt>
      <trkpt lat="45.7408" lon="5.9922">
        <ele>516</ele>
        <time>2009-07-05T10:06:35Z</time>
      </trkpt>
      <trkpt lat="45.74092" lon="5.99238">
        <ele>514</ele>
        <time>2009-07-05T10:06:40Z</time>
      </trkpt>
      <trkpt lat="45.74098" lon="5.99255">
        <ele>513</ele>
        <time>2009-07-05T10:06:45Z</time>
      </trkpt>
      <trkpt lat="45.74106" lon="5.99276">
        <ele>513</ele>
        <time>2009-07-05T10:06:50Z</time>
      </trkpt>
      <trkpt lat="45.74115" lon="5.99302">
        <ele>513</ele>
        <time>2009-07-05T10:06:55Z</time>
      </trkpt>
      <trkpt lat="45.7413" lon="5.99324">
        <ele>513</ele>
        <time>2009-07-05T10:07:00Z</time>
      </trkpt>
      <trkpt lat="45.74155" lon="5.99341">
        <ele>513</ele>
        <time>2009-07-05T10:07:05Z</time>
      </trkpt>
      <trkpt lat="45.74187" lon="5.99369">
        <ele>510</ele>
        <time>2009-07-05T10:07:10Z</time>
      </trkpt>
      <trkpt lat="45.7422" lon="5.99408">
        <ele>509</ele>
        <time>2009-07-05T10:07:15Z</time>
      </trkpt>
      <trkpt lat="45.74258" lon="5.99436">
        <ele>508</ele>
        <time>2009-07-05T10:07:20Z</time>
      </trkpt>
      <trkpt lat="45.74286" lon="5.99458">
        <ele>508</ele>
        <time>2009-07-05T10:07:25Z</time>
      </trkpt>
      <trkpt lat="45.74307" lon="5.99478">
        <ele>508</ele>
        <time>2009-07-05T10:07:30Z</time>
      </trkpt>
      <trkpt lat="45.74322" lon="5.99494">
        <ele>508</ele>
        <time>2009-07-05T10:07:35Z</time>
      </trkpt>
      <trkpt lat="45.74329" lon="5.99499">
        <ele>508</ele>
        <time>2009-07-05T10:07:40Z</time>
      </trkpt>
      <trkpt lat="45.74337" lon="5.99508">
        <ele>508</ele>
        <time>2009-07-05T10:07:45Z</time>
      </trkpt>
      <trkpt lat="45.74351" lon="5.99521">
        <ele>508</ele>
        <time>2009-07-05T10:07:50Z</time>
      </trkpt>
      <trkpt lat="45.74368" lon="5.99538">
        <ele>508</ele>
        <time>2009-07-05T10:07:55Z</time>
      </trkpt>
      <trkpt lat="45.74384" lon="5.99553">
        <ele>508</ele>
        <time>2009-07-05T10:08:00Z</time>
      </trkpt>
      <trkpt lat="45.744" lon="5.99568">
        <ele>508</ele>
        <time>2009-07-05T10:08:05Z</time>
      </trkpt>
      <trkpt lat="45.74417" lon="5.99582">
        <ele>508</ele>
        <time>2009-07-05T10:08:10Z</time>
      </trkpt>
      <trkpt lat="45.74433" lon="5.99595">
        <ele>508</ele>
        <time>2009-07-05T10:08:15Z</time>
      </trkpt>
      <trkpt lat="45.74446" lon="5.99609">
        <ele>508</ele>
        <time>2009-07-05T10:08:20Z</time>
      </trkpt>
      <trkpt lat="45.74461" lon="5.9963">
        <ele>508</ele>
        <time>2009-07-05T10:08:25Z</time>
      </trkpt>
      <trkpt lat="45.74474" lon="5.99648">
        <ele>508</ele>
        <time>2009-07-05T10:08:30Z</time>
      </trkpt>
      <trkpt lat="45.74486" lon="5.99666">
        <ele>508</ele>
        <time>2009-07-05T10:08:35Z</time>
      </trkpt>
      <trkpt lat="45.74499" lon="5.99683">
        <ele>508</ele>
        <time>2009-07-05T10:08:40Z</time>
      </trkpt>
      <trkpt lat="45.74514" lon="5.99704">
        <ele>508</ele>
        <time>2009-07-05T10:08:45Z</time>
      </trkpt>
      <trkpt lat="45.7453" lon="5.99727">
        <ele>508</ele>
        <time>2009-07-05T10:08:50Z</time>
      </trkpt>
      <trkpt lat="45.74547" lon="5.99752">
        <ele>508</ele>
        <time>2009-07-05T10:08:55Z</time>
      </trkpt>
      <trkpt lat="45.74564" lon="5.99775">
        <ele>508</ele>
        <time>2009-07-05T10:09:00Z</time>
      </trkpt>
      <trkpt lat="45.74587" lon="5.99795">
        <ele>508</ele>
        <time>2009-07-05T10:09:05Z</time>
      </trkpt>
      <trkpt lat="45.74608" lon="5.99818">
        <ele>508</ele>
        <time>2009-07-05T10:09:10Z</time>
      </trkpt>
      <trkpt lat="45.74626" lon="5.99842">
        <ele>507</ele>
        <time>2009-07-05T10:09:15Z</time>
      </trkpt>
      <trkpt lat="45.74642" lon="5.99869">
        <ele>507</ele>
        <time>2009-07-05T10:09:20Z</time>
      </trkpt>
      <trkpt lat="45.74654" lon="5.99902">
        <ele>507</ele>
        <time>2009-07-05T10:09:25Z</time>
      </trkpt>
      <trkpt lat="45.74662" lon="5.99936">
        <ele>507</ele>
        <time>2009-07-05T10:09:30Z</time>
      </trkpt>
      <trkpt lat="45.74668" lon="5.99964">
        <ele>507</ele>
        <time>2009-07-05T10:09:35Z</time>
      </trkpt>
      <trkpt lat="45.74678" lon="5.99994">
        <ele>507</ele>
        <time>2009-07-05T10:09:40Z</time>
      </trkpt>
      <trkpt lat="45.74689" lon="6.00024">
        <ele>507</ele>
        <time>2009-07-05T10:09:45Z</time>
      </trkpt>
      <trkpt lat="45.74703" lon="6.00061">
        <ele>507</ele>
        <time>2009-07-05T10:09:50Z</time>
      </trkpt>
      <trkpt lat="45.74715" lon="6.00093">
        <ele>507</ele>
        <time>2009-07-05T10:09:55Z</time>
      </trkpt>
      <trkpt lat="45.74726" lon="6.00123">
        <ele>507</ele>
        <time>2009-07-05T10:10:00Z</time>
      </trkpt>
      <trkpt lat="45.74736" lon="6.00152">
        <ele>507</ele>
        <time>2009-07-05T10:10:05Z</time>
      </trkpt>
      <trkpt lat="45.74743" lon="6.00181">
        <ele>507</ele>
        <time>2009-07-05T10:10:10Z</time>
      </trkpt>
      <trkpt lat="45.74749" lon="6.0021">
        <ele>507</ele>
        <time>2009-07-05T10:10:15Z</time>
      </trkpt>
      <trkpt lat="45.74756" lon="6.00237">
        <ele>507</ele>
        <time>2009-07-05T10:10:20Z</time>
      </trkpt>
      <trkpt lat="45.74762" lon="6.00259">
        <ele>507</ele>
        <time>2009-07-05T10:10:25Z</time>
      </trkpt>
      <trkpt lat="45.74768" lon="6.00277">
        <ele>509</ele>
        <time>2009-07-05T10:10:30Z</time>
      </trkpt>
      <trkpt lat="45.74771" lon="6.00297">
        <ele>512</ele>
        <time>2009-07-05T10:10:35Z</time>
      </trkpt>
      <trkpt lat="45.74777" lon="6.00318">
        <ele>514</ele>
        <time>2009-07-05T10:10:40Z</time>
      </trkpt>
      <trkpt lat="45.74782" lon="6.00337">
        <ele>515</ele>
        <time>2009-07-05T10:10:45Z</time>
      </trkpt>
      <trkpt lat="45.74788" lon="6.00356">
        <ele>515</ele>
        <time>2009-07-05T10:10:50Z</time>
      </trkpt>
      <trkpt lat="45.74798" lon="6.00377">
        <ele>515</ele>
        <time>2009-07-05T10:10:55Z</time>
      </trkpt>
      <trkpt lat="45.74807" lon="6.00396">
        <ele>515</ele>
        <time>2009-07-05T10:11:00Z</time>
      </trkpt>
      <trkpt lat="45.74814" lon="6.0041">
        <ele>515</ele>
        <time>2009-07-05T10:11:05Z</time>
      </trkpt>
      <trkpt lat="45.7482" lon="6.00422">
        <ele>515</ele>
        <time>2009-07-05T10:11:10Z</time>
      </trkpt>
      <trkpt lat="45.74827" lon="6.00438">
        <ele>515</ele>
        <time>2009-07-05T10:11:15Z</time>
      </trkpt>
      <trkpt lat="45.74833" lon="6.00454">
        <ele>515</ele>
        <time>2009-07-05T10:11:20Z</time>
      </trkpt>
      <trkpt lat="45.74837" lon="6.00471">
        <ele>515</ele>
        <time>2009-07-05T10:11:25Z</time>
      </trkpt>
      <trkpt lat="45.74839" lon="6.00484">
        <ele>517</ele>
        <time>2009-07-05T10:11:30Z</time>
      </trkpt>
      <trkpt lat="45.74842" lon="6.00485">
        <ele>524</ele>
        <time>2009-07-05T10:11:41Z</time>
      </trkpt>
      <trkpt lat="45.74849" lon="6.00497">
        <ele>525</ele>
        <time>2009-07-05T10:11:46Z</time>
      </trkpt>
      <trkpt lat="45.74851" lon="6.0052">
        <ele>525</ele>
        <time>2009-07-05T10:11:51Z</time>
      </trkpt>
      <trkpt lat="45.7485" lon="6.00544">
        <ele>525</ele>
        <time>2009-07-05T10:11:56Z</time>
      </trkpt>
      <trkpt lat="45.74854" lon="6.00567">
        <ele>525</ele>
        <time>2009-07-05T10:12:01Z</time>
      </trkpt>
      <trkpt lat="45.74859" lon="6.00583">
        <ele>524</ele>
        <time>2009-07-05T10:12:06Z</time>
      </trkpt>
      <trkpt lat="45.74873" lon="6.00596">
        <ele>523</ele>
        <time>2009-07-05T10:12:12Z</time>
      </trkpt>
      <trkpt lat="45.74884" lon="6.00608">
        <ele>523</ele>
        <time>2009-07-05T10:12:17Z</time>
      </trkpt>
      <trkpt lat="45.74891" lon="6.00621">
        <ele>523</ele>
        <time>2009-07-05T10:12:22Z</time>
      </trkpt>
      <trkpt lat="45.74899" lon="6.00633">
        <ele>523</ele>
        <time>2009-07-05T10:12:27Z</time>
      </trkpt>
      <trkpt lat="45.74909" lon="6.00643">
        <ele>523</ele>
        <time>2009-07-05T10:12:32Z</time>
      </trkpt>
      <trkpt lat="45.74918" lon="6.00652">
        <ele>523</ele>
        <time>2009-07-05T10:12:37Z</time>
      </trkpt>
      <trkpt lat="45.74929" lon="6.00661">
        <ele>523</ele>
        <time>2009-07-05T10:12:42Z</time>
      </trkpt>
      <trkpt lat="45.74941" lon="6.00671">
        <ele>527</ele>
        <time>2009-07-05T10:12:48Z</time>
      </trkpt>
      <trkpt lat="45.74949" lon="6.00676">
        <ele>530</ele>
        <time>2009-07-05T10:12:53Z</time>
      </trkpt>
      <trkpt lat="45.74957" lon="6.00678">
        <ele>531</ele>
        <time>2009-07-05T10:12:58Z</time>
      </trkpt>
      <trkpt lat="45.74968" lon="6.00683">
        <ele>531</ele>
        <time>2009-07-05T10:13:03Z</time>
      </trkpt>
      <trkpt lat="45.74981" lon="6.00689">
        <ele>531</ele>
        <time>2009-07-05T10:13:08Z</time>
      </trkpt>
      <trkpt lat="45.74992" lon="6.00691">
        <ele>531</ele>
        <time>2009-07-05T10:13:13Z</time>
      </trkpt>
      <trkpt lat="45.75002" lon="6.00693">
        <ele>531</ele>
        <time>2009-07-05T10:13:18Z</time>
      </trkpt>
      <trkpt lat="45.75012" lon="6.00705">
        <ele>531</ele>
        <time>2009-07-05T10:13:23Z</time>
      </trkpt>
      <trkpt lat="45.75019" lon="6.00719">
        <ele>531</ele>
        <time>2009-07-05T10:13:28Z</time>
      </trkpt>
      <trkpt lat="45.75026" lon="6.00737">
        <ele>531</ele>
        <time>2009-07-05T10:13:33Z</time>
      </trkpt>
      <trkpt lat="45.7503" lon="6.00756">
        <ele>531</ele>
        <time>2009-07-05T10:13:38Z</time>
      </trkpt>
      <trkpt lat="45.75036" lon="6.00772">
        <ele>531</ele>
        <time>2009-07-05T10:13:43Z</time>
      </trkpt>
      <trkpt lat="45.75043" lon="6.00787">
        <ele>533</ele>
        <time>2009-07-05T10:13:48Z</time>
      </trkpt>
      <trkpt lat="45.75053" lon="6.00804">
        <ele>536</ele>
        <time>2009-07-05T10:13:53Z</time>
      </trkpt>
      <trkpt lat="45.75063" lon="6.00818">
        <ele>537</ele>
        <time>2009-07-05T10:13:58Z</time>
      </trkpt>
      <trkpt lat="45.75069" lon="6.00835">
        <ele>538</ele>
        <time>2009-07-05T10:14:03Z</time>
      </trkpt>
      <trkpt lat="45.75079" lon="6.00861">
        <ele>538</ele>
        <time>2009-07-05T10:14:08Z</time>
      </trkpt>
      <trkpt lat="45.75096" lon="6.00892">
        <ele>536</ele>
        <time>2009-07-05T10:14:13Z</time>
      </trkpt>
      <trkpt lat="45.75105" lon="6.00914">
        <ele>533</ele>
        <time>2009-07-05T10:14:18Z</time>
      </trkpt>
      <trkpt lat="45.75108" lon="6.00936">
        <ele>530</ele>
        <time>2009-07-05T10:14:23Z</time>
      </trkpt>
      <trkpt lat="45.7511" lon="6.00951">
        <ele>530</ele>
        <time>2009-07-05T10:14:28Z</time>
      </trkpt>
      <trkpt lat="45.75113" lon="6.00969">
        <ele>530</ele>
        <time>2009-07-05T10:14:33Z</time>
      </trkpt>
      <trkpt lat="45.75116" lon="6.00986">
        <ele>530</ele>
        <time>2009-07-05T10:14:38Z</time>
      </trkpt>
      <trkpt lat="45.75118" lon="6.00999">
        <ele>530</ele>
        <time>2009-07-05T10:14:43Z</time>
      </trkpt>
      <trkpt lat="45.75117" lon="6.01003">
        <ele>530</ele>
        <time>2009-07-05T10:15:00Z</time>
      </trkpt>
      <trkpt lat="45.75116" lon="6.01009">
        <ele>530</ele>
        <time>2009-07-05T10:15:05Z</time>
      </trkpt>
      <trkpt lat="45.75115" lon="6.01013">
        <ele>532</ele>
        <time>2009-07-05T10:15:10Z</time>
      </trkpt>
      <trkpt lat="45.75115" lon="6.0102">
        <ele>535</ele>
        <time>2009-07-05T10:15:15Z</time>
      </trkpt>
      <trkpt lat="45.75116" lon="6.01026">
        <ele>536</ele>
        <time>2009-07-05T10:15:21Z</time>
      </trkpt>
      <trkpt lat="45.75117" lon="6.01029">
        <ele>536</ele>
        <time>2009-07-05T10:15:26Z</time>
      </trkpt>
      <trkpt lat="45.75121" lon="6.01034">
        <ele>536</ele>
        <time>2009-07-05T10:15:32Z</time>
      </trkpt>
      <trkpt lat="45.75125" lon="6.0104">
        <ele>538</ele>
        <time>2009-07-05T10:15:37Z</time>
      </trkpt>
      <trkpt lat="45.75128" lon="6.01042">
        <ele>540</ele>
        <time>2009-07-05T10:15:44Z</time>
      </trkpt>
      <trkpt lat="45.75131" lon="6.01045">
        <ele>540</ele>
        <time>2009-07-05T10:15:49Z</time>
      </trkpt>
      <trkpt lat="45.75137" lon="6.01051">
        <ele>540</ele>
        <time>2009-07-05T10:15:55Z</time>
      </trkpt>
      <trkpt lat="45.75148" lon="6.01062">
        <ele>542</ele>
        <time>2009-07-05T10:16:00Z</time>
      </trkpt>
      <trkpt lat="45.75157" lon="6.01073">
        <ele>542</ele>
        <time>2009-07-05T10:16:05Z</time>
      </trkpt>
      <trkpt lat="45.75168" lon="6.01081">
        <ele>544</ele>
        <time>2009-07-05T10:16:10Z</time>
      </trkpt>
      <trkpt lat="45.75176" lon="6.01092">
        <ele>546</ele>
        <time>2009-07-05T10:16:15Z</time>
      </trkpt>
      <trkpt lat="45.75182" lon="6.01104">
        <ele>546</ele>
        <time>2009-07-05T10:16:20Z</time>
      </trkpt>
      <trkpt lat="45.7519" lon="6.01118">
        <ele>546</ele>
        <time>2009-07-05T10:16:25Z</time>
      </trkpt>
      <trkpt lat="45.75197" lon="6.01129">
        <ele>546</ele>
        <time>2009-07-05T10:16:30Z</time>
      </trkpt>
      <trkpt lat="45.75207" lon="6.0114">
        <ele>546</ele>
        <time>2009-07-05T10:16:35Z</time>
      </trkpt>
      <trkpt lat="45.75225" lon="6.01153">
        <ele>546</ele>
        <time>2009-07-05T10:16:40Z</time>
      </trkpt>
      <trkpt lat="45.75242" lon="6.01164">
        <ele>546</ele>
        <time>2009-07-05T10:16:45Z</time>
      </trkpt>
      <trkpt lat="45.75258" lon="6.01174">
        <ele>546</ele>
        <time>2009-07-05T10:16:50Z</time>
      </trkpt>
      <trkpt lat="45.75272" lon="6.01184">
        <ele>546</ele>
        <time>2009-07-05T10:16:55Z</time>
      </trkpt>
      <trkpt lat="45.75287" lon="6.01202">
        <ele>546</ele>
        <time>2009-07-05T10:17:00Z</time>
      </trkpt>
      <trkpt lat="45.75302" lon="6.01214">
        <ele>546</ele>
        <time>2009-07-05T10:17:05Z</time>
      </trkpt>
      <trkpt lat="45.75316" lon="6.01226">
        <ele>546</ele>
        <time>2009-07-05T10:17:10Z</time>
      </trkpt>
      <trkpt lat="45.75332" lon="6.01239">
        <ele>546</ele>
        <time>2009-07-05T10:17:15Z</time>
      </trkpt>
      <trkpt lat="45.75347" lon="6.01252">
        <ele>546</ele>
        <time>2009-07-05T10:17:20Z</time>
      </trkpt>
      <trkpt lat="45.75359" lon="6.01263">
        <ele>546</ele>
        <time>2009-07-05T10:17:25Z</time>
      </trkpt>
      <trkpt lat="45.75366" lon="6.01263">
        <ele>546</ele>
        <time>2009-07-05T10:17:30Z</time>
      </trkpt>
      <trkpt lat="45.75371" lon="6.01249">
        <ele>546</ele>
        <time>2009-07-05T10:17:35Z</time>
      </trkpt>
      <trkpt lat="45.75378" lon="6.01234">
        <ele>546</ele>
        <time>2009-07-05T10:17:40Z</time>
      </trkpt>
      <trkpt lat="45.75387" lon="6.01212">
        <ele>546</ele>
        <time>2009-07-05T10:17:45Z</time>
      </trkpt>
      <trkpt lat="45.75398" lon="6.01184">
        <ele>545</ele>
        <time>2009-07-05T10:17:50Z</time>
      </trkpt>
      <trkpt lat="45.75416" lon="6.01146">
        <ele>543</ele>
        <time>2009-07-05T10:17:55Z</time>
      </trkpt>
      <trkpt lat="45.75441" lon="6.01091">
        <ele>540</ele>
        <time>2009-07-05T10:18:00Z</time>
      </trkpt>
      <trkpt lat="45.75449" lon="6.01036">
        <ele>537</ele>
        <time>2009-07-05T10:18:05Z</time>
      </trkpt>
      <trkpt lat="45.75442" lon="6.00998">
        <ele>537</ele>
        <time>2009-07-05T10:18:10Z</time>
      </trkpt>
      <trkpt lat="45.7544" lon="6.00984">
        <ele>535</ele>
        <time>2009-07-05T10:18:15Z</time>
      </trkpt>
      <trkpt lat="45.75438" lon="6.00967">
        <ele>533</ele>
        <time>2009-07-05T10:18:20Z</time>
      </trkpt>
      <trkpt lat="45.75433" lon="6.00955">
        <ele>533</ele>
        <time>2009-07-05T10:18:25Z</time>
      </trkpt>
      <trkpt lat="45.75425" lon="6.00942">
        <ele>536</ele>
        <time>2009-07-05T10:18:30Z</time>
      </trkpt>
      <trkpt lat="45.75415" lon="6.00935">
        <ele>539</ele>
        <time>2009-07-05T10:18:35Z</time>
      </trkpt>
      <trkpt lat="45.75405" lon="6.00915">
        <ele>541</ele>
        <time>2009-07-05T10:18:40Z</time>
      </trkpt>
      <trkpt lat="45.75392" lon="6.00886">
        <ele>541</ele>
        <time>2009-07-05T10:18:45Z</time>
      </trkpt>
      <trkpt lat="45.75383" lon="6.0085">
        <ele>541</ele>
        <time>2009-07-05T10:18:50Z</time>
      </trkpt>
      <trkpt lat="45.75377" lon="6.00797">
        <ele>539</ele>
        <time>2009-07-05T10:18:55Z</time>
      </trkpt>
      <trkpt lat="45.75384" lon="6.00732">
        <ele>534</ele>
        <time>2009-07-05T10:19:00Z</time>
      </trkpt>
      <trkpt lat="45.75394" lon="6.00682">
        <ele>529</ele>
        <time>2009-07-05T10:19:05Z</time>
      </trkpt>
      <trkpt lat="45.75405" lon="6.00638">
        <ele>526</ele>
        <time>2009-07-05T10:19:10Z</time>
      </trkpt>
      <trkpt lat="45.75415" lon="6.00604">
        <ele>525</ele>
        <time>2009-07-05T10:19:15Z</time>
      </trkpt>
      <trkpt lat="45.75425" lon="6.00576">
        <ele>525</ele>
        <time>2009-07-05T10:19:20Z</time>
      </trkpt>
      <trkpt lat="45.75427" lon="6.00541">
        <ele>525</ele>
        <time>2009-07-05T10:19:25Z</time>
      </trkpt>
      <trkpt lat="45.7542" lon="6.00514">
        <ele>525</ele>
        <time>2009-07-05T10:19:30Z</time>
      </trkpt>
      <trkpt lat="45.75414" lon="6.00488">
        <ele>525</ele>
        <time>2009-07-05T10:19:35Z</time>
      </trkpt>
      <trkpt lat="45.75408" lon="6.00459">
        <ele>524</ele>
        <time>2009-07-05T10:19:40Z</time>
      </trkpt>
      <trkpt lat="45.75413" lon="6.00429">
        <ele>524</ele>
        <time>2009-07-05T10:19:45Z</time>
      </trkpt>
      <trkpt lat="45.75431" lon="6.0042">
        <ele>524</ele>
        <time>2009-07-05T10:19:50Z</time>
      </trkpt>
      <trkpt lat="45.75451" lon="6.00423">
        <ele>524</ele>
        <time>2009-07-05T10:19:55Z</time>
      </trkpt>
      <trkpt lat="45.75471" lon="6.00423">
        <ele>524</ele>
        <time>2009-07-05T10:20:00Z</time>
      </trkpt>
      <trkpt lat="45.7549" lon="6.00413">
        <ele>525</ele>
        <time>2009-07-05T10:20:05Z</time>
      </trkpt>
      <trkpt lat="45.75507" lon="6.00406">
        <ele>526</ele>
        <time>2009-07-05T10:20:10Z</time>
      </trkpt>
      <trkpt lat="45.75525" lon="6.004">
        <ele>527</ele>
        <time>2009-07-05T10:20:15Z</time>
      </trkpt>
      <trkpt lat="45.75545" lon="6.00392">
        <ele>528</ele>
        <time>2009-07-05T10:20:20Z</time>
      </trkpt>
      <trkpt lat="45.75562" lon="6.00375">
        <ele>528</ele>
        <time>2009-07-05T10:20:25Z</time>
      </trkpt>
      <trkpt lat="45.75576" lon="6.00359">
        <ele>528</ele>
        <time>2009-07-05T10:20:30Z</time>
      </trkpt>
      <trkpt lat="45.75586" lon="6.00344">
        <ele>529</ele>
        <time>2009-07-05T10:20:35Z</time>
      </trkpt>
      <trkpt lat="45.75592" lon="6.00337">
        <ele>529</ele>
        <time>2009-07-05T10:20:40Z</time>
      </trkpt>
      <trkpt lat="45.75599" lon="6.00327">
        <ele>529</ele>
        <time>2009-07-05T10:20:45Z</time>
      </trkpt>
      <trkpt lat="45.75605" lon="6.00321">
        <ele>529</ele>
        <time>2009-07-05T10:20:50Z</time>
      </trkpt>
      <trkpt lat="45.75612" lon="6.00313">
        <ele>529</ele>
        <time>2009-07-05T10:20:55Z</time>
      </trkpt>
      <trkpt lat="45.75619" lon="6.00304">
        <ele>532</ele>
        <time>2009-07-05T10:21:00Z</time>
      </trkpt>
      <trkpt lat="45.75625" lon="6.00293">
        <ele>533</ele>
        <time>2009-07-05T10:21:05Z</time>
      </trkpt>
      <trkpt lat="45.75628" lon="6.00278">
        <ele>534</ele>
        <time>2009-07-05T10:21:10Z</time>
      </trkpt>
      <trkpt lat="45.7563" lon="6.00265">
        <ele>534</ele>
        <time>2009-07-05T10:21:15Z</time>
      </trkpt>
      <trkpt lat="45.75628" lon="6.00252">
        <ele>534</ele>
        <time>2009-07-05T10:21:20Z</time>
      </trkpt>
      <trkpt lat="45.75625" lon="6.00239">
        <ele>534</ele>
        <time>2009-07-05T10:21:25Z</time>
      </trkpt>
      <trkpt lat="45.75623" lon="6.00226">
        <ele>534</ele>
        <time>2009-07-05T10:21:30Z</time>
      </trkpt>
      <trkpt lat="45.75623" lon="6.0021">
        <ele>534</ele>
        <time>2009-07-05T10:21:35Z</time>
      </trkpt>
      <trkpt lat="45.75622" lon="6.00195">
        <ele>534</ele>
        <time>2009-07-05T10:21:40Z</time>
      </trkpt>
      <trkpt lat="45.75623" lon="6.00183">
        <ele>534</ele>
        <time>2009-07-05T10:21:45Z</time>
      </trkpt>
      <trkpt lat="45.75623" lon="6.00168">
        <ele>535</ele>
        <time>2009-07-05T10:21:50Z</time>
      </trkpt>
      <trkpt lat="45.75623" lon="6.00153">
        <ele>536</ele>
        <time>2009-07-05T10:21:55Z</time>
      </trkpt>
      <trkpt lat="45.7562" lon="6.00139">
        <ele>537</ele>
        <time>2009-07-05T10:22:00Z</time>
      </trkpt>
      <trkpt lat="45.75619" lon="6.00124">
        <ele>537</ele>
        <time>2009-07-05T10:22:05Z</time>
      </trkpt>
      <trkpt lat="45.75618" lon="6.00108">
        <ele>538</ele>
        <time>2009-07-05T10:22:10Z</time>
      </trkpt>
      <trkpt lat="45.75617" lon="6.00092">
        <ele>538</ele>
        <time>2009-07-05T10:22:15Z</time>
      </trkpt>
      <trkpt lat="45.75615" lon="6.00078">
        <ele>538</ele>
        <time>2009-07-05T10:22:20Z</time>
      </trkpt>
      <trkpt lat="45.75613" lon="6.00063">
        <ele>538</ele>
        <time>2009-07-05T10:22:25Z</time>
      </trkpt>
      <trkpt lat="45.75612" lon="6.00046">
        <ele>538</ele>
        <time>2009-07-05T10:22:30Z</time>
      </trkpt>
      <trkpt lat="45.7561" lon="6.0003">
        <ele>540</ele>
        <time>2009-07-05T10:22:35Z</time>
      </trkpt>
      <trkpt lat="45.7561" lon="6.00017">
        <ele>542</ele>
        <time>2009-07-05T10:22:40Z</time>
      </trkpt>
      <trkpt lat="45.75605" lon="6.00007">
        <ele>544</ele>
        <time>2009-07-05T10:22:45Z</time>
      </trkpt>
      <trkpt lat="45.75598" lon="5.99996">
        <ele>545</ele>
        <time>2009-07-05T10:22:50Z</time>
      </trkpt>
      <trkpt lat="45.7559" lon="5.99986">
        <ele>546</ele>
        <time>2009-07-05T10:22:55Z</time>
      </trkpt>
      <trkpt lat="45.75583" lon="5.99978">
        <ele>547</ele>
        <time>2009-07-05T10:23:00Z</time>
      </trkpt>
      <trkpt lat="45.75578" lon="5.99968">
        <ele>549</ele>
        <time>2009-07-05T10:23:05Z</time>
      </trkpt>
      <trkpt lat="45.75572" lon="5.99957">
        <ele>550</ele>
        <time>2009-07-05T10:23:10Z</time>
      </trkpt>
      <trkpt lat="45.75566" lon="5.9995">
        <ele>552</ele>
        <time>2009-07-05T10:23:16Z</time>
      </trkpt>
      <trkpt lat="45.75562" lon="5.99955">
        <ele>554</ele>
        <time>2009-07-05T10:23:21Z</time>
      </trkpt>
      <trkpt lat="45.75562" lon="5.99948">
        <ele>554</ele>
        <time>2009-07-05T10:23:26Z</time>
      </trkpt>
      <trkpt lat="45.75559" lon="5.99933">
        <ele>554</ele>
        <time>2009-07-05T10:23:31Z</time>
      </trkpt>
      <trkpt lat="45.75556" lon="5.99922">
        <ele>554</ele>
        <time>2009-07-05T10:23:36Z</time>
      </trkpt>
      <trkpt lat="45.75555" lon="5.99917">
        <ele>554</ele>
        <time>2009-07-05T10:23:41Z</time>
      </trkpt>
      <trkpt lat="45.75555" lon="5.99919">
        <ele>554</ele>
        <time>2009-07-05T10:23:50Z</time>
      </trkpt>
      <trkpt lat="45.75552" lon="5.99921">
        <ele>554</ele>
        <time>2009-07-05T10:23:55Z</time>
      </trkpt>
      <trkpt lat="45.75552" lon="5.99924">
        <ele>554</ele>
        <time>2009-07-05T10:24:01Z</time>
      </trkpt>
      <trkpt lat="45.75551" lon="5.99921">
        <ele>559</ele>
        <time>2009-07-05T10:24:07Z</time>
      </trkpt>
      <trkpt lat="45.7555" lon="5.99917">
        <ele>559</ele>
        <time>2009-07-05T10:24:15Z</time>
      </trkpt>
      <trkpt lat="45.7555" lon="5.99915">
        <ele>558</ele>
        <time>2009-07-05T10:24:28Z</time>
      </trkpt>
      <trkpt lat="45.7555" lon="5.99912">
        <ele>556</ele>
        <time>2009-07-05T10:24:35Z</time>
      </trkpt>
      <trkpt lat="45.7555" lon="5.99911">
        <ele>551</ele>
        <time>2009-07-05T10:24:44Z</time>
      </trkpt>
      <trkpt lat="45.75552" lon="5.99911">
        <ele>546</ele>
        <time>2009-07-05T10:24:50Z</time>
      </trkpt>
      <trkpt lat="45.75552" lon="5.99913">
        <ele>545</ele>
        <time>2009-07-05T10:25:16Z</time>
      </trkpt>
      <trkpt lat="45.75552" lon="5.99915">
        <ele>545</ele>
        <time>2009-07-05T10:25:27Z</time>
      </trkpt>
      <trkpt lat="45.75552" lon="5.99916">
        <ele>545</ele>
        <time>2009-07-05T10:25:38Z</time>
      </trkpt>
      <trkpt lat="45.75551" lon="5.99919">
        <ele>545</ele>
        <time>2009-07-05T10:25:54Z</time>
      </trkpt>
      <trkpt lat="45.75551" lon="5.99918">
        <ele>545</ele>
        <time>2009-07-05T10:26:13Z</time>
      </trkpt>
      <trkpt lat="45.7555" lon="5.99916">
        <ele>545</ele>
        <time>2009-07-05T10:26:21Z</time>
      </trkpt>
      <trkpt lat="45.7555" lon="5.99914">
        <ele>548</ele>
        <time>2009-07-05T10:26:33Z</time>
      </trkpt>
      <trkpt lat="45.75551" lon="5.99913">
        <ele>548</ele>
        <time>2009-07-05T10:26:47Z</time>
      </trkpt>
      <trkpt lat="45.7555" lon="5.99912">
        <ele>548</ele>
        <time>2009-07-05T10:27:13Z</time>
      </trkpt>
      <trkpt lat="45.75549" lon="5.99912">
        <ele>548</ele>
        <time>2009-07-05T10:27:28Z</time>
      </trkpt>
      <trkpt lat="45.75546" lon="5.99912">
        <ele>548</ele>
        <time>2009-07-05T10:27:35Z</time>
      </trkpt>
      <trkpt lat="45.75547" lon="5.99914">
        <ele>548</ele>
        <time>2009-07-05T10:27:44Z</time>
      </trkpt>
      <trkpt lat="45.75545" lon="5.99918">
        <ele>549</ele>
        <time>2009-07-05T10:27:51Z</time>
      </trkpt>
      <trkpt lat="45.75546" lon="5.99919">
        <ele>553</ele>
        <time>2009-07-05T10:27:57Z</time>
      </trkpt>
      <trkpt lat="45.75549" lon="5.99914">
        <ele>553</ele>
        <time>2009-07-05T10:28:03Z</time>
      </trkpt>
      <trkpt lat="45.75549" lon="5.99904">
        <ele>553</ele>
        <time>2009-07-05T10:28:08Z</time>
      </trkpt>
      <trkpt lat="45.7555" lon="5.99892">
        <ele>553</ele>
        <time>2009-07-05T10:28:13Z</time>
      </trkpt>
      <trkpt lat="45.7555" lon="5.99878">
        <ele>553</ele>
        <time>2009-07-05T10:28:18Z</time>
      </trkpt>
      <trkpt lat="45.75548" lon="5.99868">
        <ele>553</ele>
        <time>2009-07-05T10:28:23Z</time>
      </trkpt>
      <trkpt lat="45.75548" lon="5.99855">
        <ele>553</ele>
        <time>2009-07-05T10:28:28Z</time>
      </trkpt>
      <trkpt lat="45.75548" lon="5.99841">
        <ele>553</ele>
        <time>2009-07-05T10:28:33Z</time>
      </trkpt>
      <trkpt lat="45.75547" lon="5.99828">
        <ele>553</ele>
        <time>2009-07-05T10:28:38Z</time>
      </trkpt>
      <trkpt lat="45.75546" lon="5.99816">
        <ele>553</ele>
        <time>2009-07-05T10:28:43Z</time>
      </trkpt>
      <trkpt lat="45.75545" lon="5.99804">
        <ele>553</ele>
        <time>2009-07-05T10:28:48Z</time>
      </trkpt>
      <trkpt lat="45.75542" lon="5.99792">
        <ele>553</ele>
        <time>2009-07-05T10:28:53Z</time>
      </trkpt>
      <trkpt lat="45.7554" lon="5.99782">
        <ele>553</ele>
        <time>2009-07-05T10:28:58Z</time>
      </trkpt>
      <trkpt lat="45.75537" lon="5.99772">
        <ele>555</ele>
        <time>2009-07-05T10:29:03Z</time>
      </trkpt>
      <trkpt lat="45.75531" lon="5.9976">
        <ele>555</ele>
        <time>2009-07-05T10:29:08Z</time>
      </trkpt>
      <trkpt lat="45.75524" lon="5.99748">
        <ele>555</ele>
        <time>2009-07-05T10:29:13Z</time>
      </trkpt>
      <trkpt lat="45.75516" lon="5.99736">
        <ele>556</ele>
        <time>2009-07-05T10:29:18Z</time>
      </trkpt>
      <trkpt lat="45.7551" lon="5.99724">
        <ele>557</ele>
        <time>2009-07-05T10:29:23Z</time>
      </trkpt>
      <trkpt lat="45.75502" lon="5.99711">
        <ele>558</ele>
        <time>2009-07-05T10:29:28Z</time>
      </trkpt>
      <trkpt lat="45.75497" lon="5.99699">
        <ele>558</ele>
        <time>2009-07-05T10:29:33Z</time>
      </trkpt>
      <trkpt lat="45.75492" lon="5.99685">
        <ele>558</ele>
        <time>2009-07-05T10:29:38Z</time>
      </trkpt>
      <trkpt lat="45.75488" lon="5.99671">
        <ele>559</ele>
        <time>2009-07-05T10:29:43Z</time>
      </trkpt>
      <trkpt lat="45.75487" lon="5.99659">
        <ele>560</ele>
        <time>2009-07-05T10:29:48Z</time>
      </trkpt>
      <trkpt lat="45.75489" lon="5.99645">
        <ele>561</ele>
        <time>2009-07-05T10:29:53Z</time>
      </trkpt>
      <trkpt lat="45.75486" lon="5.99633">
        <ele>563</ele>
        <time>2009-07-05T10:29:58Z</time>
      </trkpt>
      <trkpt lat="45.75482" lon="5.99622">
        <ele>564</ele>
        <time>2009-07-05T10:30:03Z</time>
      </trkpt>
      <trkpt lat="45.75477" lon="5.99611">
        <ele>565</ele>
        <time>2009-07-05T10:30:08Z</time>
      </trkpt>
      <trkpt lat="45.75471" lon="5.99599">
        <ele>565</ele>
        <time>2009-07-05T10:30:13Z</time>
      </trkpt>
      <trkpt lat="45.75466" lon="5.99586">
        <ele>566</ele>
        <time>2009-07-05T10:30:18Z</time>
      </trkpt>
      <trkpt lat="45.75462" lon="5.99569">
        <ele>566</ele>
        <time>2009-07-05T10:30:23Z</time>
      </trkpt>
      <trkpt lat="45.75461" lon="5.9955">
        <ele>566</ele>
        <time>2009-07-05T10:30:28Z</time>
      </trkpt>
      <trkpt lat="45.75461" lon="5.99532">
        <ele>567</ele>
        <time>2009-07-05T10:30:33Z</time>
      </trkpt>
      <trkpt lat="45.75462" lon="5.99512">
        <ele>568</ele>
        <time>2009-07-05T10:30:38Z</time>
      </trkpt>
      <trkpt lat="45.75463" lon="5.99492">
        <ele>568</ele>
        <time>2009-07-05T10:30:43Z</time>
      </trkpt>
      <trkpt lat="45.75467" lon="5.99471">
        <ele>569</ele>
        <time>2009-07-05T10:30:48Z</time>
      </trkpt>
      <trkpt lat="45.75473" lon="5.99451">
        <ele>570</ele>
        <time>2009-07-05T10:30:53Z</time>
      </trkpt>
      <trkpt lat="45.75477" lon="5.99433">
        <ele>570</ele>
        <time>2009-07-05T10:30:58Z</time>
      </trkpt>
      <trkpt lat="45.75481" lon="5.99416">
        <ele>571</ele>
        <time>2009-07-05T10:31:03Z</time>
      </trkpt>
      <trkpt lat="45.75485" lon="5.99397">
        <ele>572</ele>
        <time>2009-07-05T10:31:08Z</time>
      </trkpt>
      <trkpt lat="45.7549" lon="5.99377">
        <ele>573</ele>
        <time>2009-07-05T10:31:13Z</time>
      </trkpt>
      <trkpt lat="45.75493" lon="5.99363">
        <ele>574</ele>
        <time>2009-07-05T10:31:18Z</time>
      </trkpt>
      <trkpt lat="45.75497" lon="5.99351">
        <ele>576</ele>
        <time>2009-07-05T10:31:23Z</time>
      </trkpt>
      <trkpt lat="45.75499" lon="5.99337">
        <ele>577</ele>
        <time>2009-07-05T10:31:28Z</time>
      </trkpt>
      <trkpt lat="45.755" lon="5.99323">
        <ele>577</ele>
        <time>2009-07-05T10:31:33Z</time>
      </trkpt>
      <trkpt lat="45.75501" lon="5.99307">
        <ele>579</ele>
        <time>2009-07-05T10:31:38Z</time>
      </trkpt>
      <trkpt lat="45.75503" lon="5.99293">
        <ele>580</ele>
        <time>2009-07-05T10:31:43Z</time>
      </trkpt>
      <trkpt lat="45.75504" lon="5.99278">
        <ele>582</ele>
        <time>2009-07-05T10:31:48Z</time>
      </trkpt>
      <trkpt lat="45.75507" lon="5.99264">
        <ele>583</ele>
        <time>2009-07-05T10:31:53Z</time>
      </trkpt>
      <trkpt lat="45.75513" lon="5.99255">
        <ele>584</ele>
        <time>2009-07-05T10:31:58Z</time>
      </trkpt>
      <trkpt lat="45.75522" lon="5.99248">
        <ele>586</ele>
        <time>2009-07-05T10:32:03Z</time>
      </trkpt>
      <trkpt lat="45.75531" lon="5.99242">
        <ele>587</ele>
        <time>2009-07-05T10:32:08Z</time>
      </trkpt>
      <trkpt lat="45.75535" lon="5.99231">
        <ele>588</ele>
        <time>2009-07-05T10:32:13Z</time>
      </trkpt>
      <trkpt lat="45.75539" lon="5.99215">
        <ele>590</ele>
        <time>2009-07-05T10:32:18Z</time>
      </trkpt>
      <trkpt lat="45.75542" lon="5.99194">
        <ele>590</ele>
        <time>2009-07-05T10:32:23Z</time>
      </trkpt>
      <trkpt lat="45.75544" lon="5.99168">
        <ele>590</ele>
        <time>2009-07-05T10:32:28Z</time>
      </trkpt>
      <trkpt lat="45.75548" lon="5.99143">
        <ele>590</ele>
        <time>2009-07-05T10:32:33Z</time>
      </trkpt>
      <trkpt lat="45.75551" lon="5.99116">
        <ele>590</ele>
        <time>2009-07-05T10:32:38Z</time>
      </trkpt>
      <trkpt lat="45.75553" lon="5.9909">
        <ele>590</ele>
        <time>2009-07-05T10:32:43Z</time>
      </trkpt>
      <trkpt lat="45.75562" lon="5.99047">
        <ele>587</ele>
        <time>2009-07-05T10:32:48Z</time>
      </trkpt>
      <trkpt lat="45.75579" lon="5.99012">
        <ele>583</ele>
        <time>2009-07-05T10:32:53Z</time>
      </trkpt>
      <trkpt lat="45.75593" lon="5.98977">
        <ele>580</ele>
        <time>2009-07-05T10:32:58Z</time>
      </trkpt>
      <trkpt lat="45.75598" lon="5.98926">
        <ele>576</ele>
        <time>2009-07-05T10:33:03Z</time>
      </trkpt>
      <trkpt lat="45.75607" lon="5.98888">
        <ele>572</ele>
        <time>2009-07-05T10:33:08Z</time>
      </trkpt>
      <trkpt lat="45.75606" lon="5.98884">
        <ele>572</ele>
        <time>2009-07-05T10:33:14Z</time>
      </trkpt>
      <trkpt lat="45.75603" lon="5.98886">
        <ele>572</ele>
        <time>2009-07-05T10:33:19Z</time>
      </trkpt>
      <trkpt lat="45.75602" lon="5.98885">
        <ele>572</ele>
        <time>2009-07-05T10:33:25Z</time>
      </trkpt>
      <trkpt lat="45.75603" lon="5.98887">
        <ele>572</ele>
        <time>2009-07-05T10:33:33Z</time>
      </trkpt>
      <trkpt lat="45.75601" lon="5.98889">
        <ele>572</ele>
        <time>2009-07-05T10:33:38Z</time>
      </trkpt>
      <trkpt lat="45.75596" lon="5.98887">
        <ele>572</ele>
        <time>2009-07-05T10:33:43Z</time>
      </trkpt>
      <trkpt lat="45.75586" lon="5.98882">
        <ele>572</ele>
        <time>2009-07-05T10:33:48Z</time>
      </trkpt>
      <trkpt lat="45.7557" lon="5.98879">
        <ele>572</ele>
        <time>2009-07-05T10:33:53Z</time>
      </trkpt>
      <trkpt lat="45.75552" lon="5.98881">
        <ele>572</ele>
        <time>2009-07-05T10:33:58Z</time>
      </trkpt>
      <trkpt lat="45.75531" lon="5.98883">
        <ele>572</ele>
        <time>2009-07-05T10:34:03Z</time>
      </trkpt>
      <trkpt lat="45.75504" lon="5.98884">
        <ele>572</ele>
        <time>2009-07-05T10:34:08Z</time>
      </trkpt>
      <trkpt lat="45.75472" lon="5.9888">
        <ele>570</ele>
        <time>2009-07-05T10:34:13Z</time>
      </trkpt>
      <trkpt lat="45.75435" lon="5.98872">
        <ele>569</ele>
        <time>2009-07-05T10:34:18Z</time>
      </trkpt>
      <trkpt lat="45.75398" lon="5.98876">
        <ele>567</ele>
        <time>2009-07-05T10:34:23Z</time>
      </trkpt>
      <trkpt lat="45.75366" lon="5.98875">
        <ele>567</ele>
        <time>2009-07-05T10:34:28Z</time>
      </trkpt>
      <trkpt lat="45.75332" lon="5.98869">
        <ele>566</ele>
        <time>2009-07-05T10:34:33Z</time>
      </trkpt>
      <trkpt lat="45.75296" lon="5.98875">
        <ele>565</ele>
        <time>2009-07-05T10:34:38Z</time>
      </trkpt>
      <trkpt lat="45.75273" lon="5.98867">
        <ele>562</ele>
        <time>2009-07-05T10:34:43Z</time>
      </trkpt>
      <trkpt lat="45.75249" lon="5.98867">
        <ele>559</ele>
        <time>2009-07-05T10:34:48Z</time>
      </trkpt>
      <trkpt lat="45.75235" lon="5.98904">
        <ele>558</ele>
        <time>2009-07-05T10:34:53Z</time>
      </trkpt>
      <trkpt lat="45.75223" lon="5.98954">
        <ele>557</ele>
        <time>2009-07-05T10:34:58Z</time>
      </trkpt>
      <trkpt lat="45.75211" lon="5.99012">
        <ele>555</ele>
        <time>2009-07-05T10:35:03Z</time>
      </trkpt>
      <trkpt lat="45.75194" lon="5.99062">
        <ele>553</ele>
        <time>2009-07-05T10:35:08Z</time>
      </trkpt>
      <trkpt lat="45.75156" lon="5.99074">
        <ele>548</ele>
        <time>2009-07-05T10:35:13Z</time>
      </trkpt>
      <trkpt lat="45.75128" lon="5.99052">
        <ele>543</ele>
        <time>2009-07-05T10:35:18Z</time>
      </trkpt>
      <trkpt lat="45.75112" lon="5.99032">
        <ele>538</ele>
        <time>2009-07-05T10:35:23Z</time>
      </trkpt>
      <trkpt lat="45.75118" lon="5.99011">
        <ele>533</ele>
        <time>2009-07-05T10:35:28Z</time>
      </trkpt>
      <trkpt lat="45.75126" lon="5.98996">
        <ele>533</ele>
        <time>2009-07-05T10:35:33Z</time>
      </trkpt>
      <trkpt lat="45.75134" lon="5.98983">
        <ele>533</ele>
        <time>2009-07-05T10:35:38Z</time>
      </trkpt>
      <trkpt lat="45.75139" lon="5.98969">
        <ele>533</ele>
        <time>2009-07-05T10:35:43Z</time>
      </trkpt>
      <trkpt lat="45.75146" lon="5.98951">
        <ele>533</ele>
        <time>2009-07-05T10:35:48Z</time>
      </trkpt>
      <trkpt lat="45.75153" lon="5.98933">
        <ele>533</ele>
        <time>2009-07-05T10:35:53Z</time>
      </trkpt>
      <trkpt lat="45.75158" lon="5.98916">
        <ele>533</ele>
        <time>2009-07-05T10:35:58Z</time>
      </trkpt>
      <trkpt lat="45.75164" lon="5.98895">
        <ele>533</ele>
        <time>2009-07-05T10:36:03Z</time>
      </trkpt>
      <trkpt lat="45.75158" lon="5.98868">
        <ele>532</ele>
        <time>2009-07-05T10:36:08Z</time>
      </trkpt>
      <trkpt lat="45.75146" lon="5.98839">
        <ele>528</ele>
        <time>2009-07-05T10:36:13Z</time>
      </trkpt>
      <trkpt lat="45.75153" lon="5.98797">
        <ele>524</ele>
        <time>2009-07-05T10:36:18Z</time>
      </trkpt>
      <trkpt lat="45.7515" lon="5.98762">
        <ele>521</ele>
        <time>2009-07-05T10:36:24Z</time>
      </trkpt>
      <trkpt lat="45.75115" lon="5.98763">
        <ele>516</ele>
        <time>2009-07-05T10:36:29Z</time>
      </trkpt>
      <trkpt lat="45.75077" lon="5.98728">
        <ele>511</ele>
        <time>2009-07-05T10:36:34Z</time>
      </trkpt>
      <trkpt lat="45.75035" lon="5.98675">
        <ele>505</ele>
        <time>2009-07-05T10:36:40Z</time>
      </trkpt>
      <trkpt lat="45.75" lon="5.98614">
        <ele>499</ele>
        <time>2009-07-05T10:36:46Z</time>
      </trkpt>
      <trkpt lat="45.75008" lon="5.98553">
        <ele>494</ele>
        <time>2009-07-05T10:36:51Z</time>
      </trkpt>
      <trkpt lat="45.75027" lon="5.98507">
        <ele>492</ele>
        <time>2009-07-05T10:36:56Z</time>
      </trkpt>
      <trkpt lat="45.7504" lon="5.98475">
        <ele>492</ele>
        <time>2009-07-05T10:37:01Z</time>
      </trkpt>
      <trkpt lat="45.75055" lon="5.9843">
        <ele>492</ele>
        <time>2009-07-05T10:37:06Z</time>
      </trkpt>
      <trkpt lat="45.75067" lon="5.98389">
        <ele>492</ele>
        <time>2009-07-05T10:37:11Z</time>
      </trkpt>
      <trkpt lat="45.75091" lon="5.98348">
        <ele>491</ele>
        <time>2009-07-05T10:37:16Z</time>
      </trkpt>
      <trkpt lat="45.75113" lon="5.98313">
        <ele>491</ele>
        <time>2009-07-05T10:37:22Z</time>
      </trkpt>
      <trkpt lat="45.751" lon="5.98314">
        <ele>491</ele>
        <time>2009-07-05T10:37:27Z</time>
      </trkpt>
      <trkpt lat="45.75091" lon="5.98315">
        <ele>491</ele>
        <time>2009-07-05T10:37:40Z</time>
      </trkpt>
      <trkpt lat="45.75088" lon="5.98314">
        <ele>491</ele>
        <time>2009-07-05T10:37:46Z</time>
      </trkpt>
      <trkpt lat="45.75074" lon="5.98312">
        <ele>491</ele>
        <time>2009-07-05T10:37:51Z</time>
      </trkpt>
      <trkpt lat="45.75056" lon="5.98307">
        <ele>491</ele>
        <time>2009-07-05T10:37:56Z</time>
      </trkpt>
      <trkpt lat="45.75034" lon="5.98301">
        <ele>490</ele>
        <time>2009-07-05T10:38:01Z</time>
      </trkpt>
      <trkpt lat="45.75012" lon="5.98292">
        <ele>490</ele>
        <time>2009-07-05T10:38:06Z</time>
      </trkpt>
      <trkpt lat="45.74988" lon="5.98282">
        <ele>489</ele>
        <time>2009-07-05T10:38:11Z</time>
      </trkpt>
      <trkpt lat="45.74961" lon="5.98273">
        <ele>487</ele>
        <time>2009-07-05T10:38:16Z</time>
      </trkpt>
      <trkpt lat="45.74928" lon="5.9826">
        <ele>486</ele>
        <time>2009-07-05T10:38:22Z</time>
      </trkpt>
      <trkpt lat="45.74903" lon="5.98248">
        <ele>485</ele>
        <time>2009-07-05T10:38:27Z</time>
      </trkpt>
      <trkpt lat="45.74877" lon="5.98237">
        <ele>484</ele>
        <time>2009-07-05T10:38:32Z</time>
      </trkpt>
      <trkpt lat="45.74846" lon="5.98224">
        <ele>482</ele>
        <time>2009-07-05T10:38:38Z</time>
      </trkpt>
      <trkpt lat="45.74825" lon="5.98216">
        <ele>482</ele>
        <time>2009-07-05T10:38:43Z</time>
      </trkpt>
      <trkpt lat="45.74809" lon="5.98206">
        <ele>481</ele>
        <time>2009-07-05T10:38:49Z</time>
      </trkpt>
      <trkpt lat="45.74798" lon="5.98234">
        <ele>481</ele>
        <time>2009-07-05T10:38:55Z</time>
      </trkpt>
      <trkpt lat="45.74793" lon="5.98254">
        <ele>481</ele>
        <time>2009-07-05T10:39:00Z</time>
      </trkpt>
      <trkpt lat="45.74788" lon="5.98275">
        <ele>481</ele>
        <time>2009-07-05T10:39:05Z</time>
      </trkpt>
      <trkpt lat="45.74781" lon="5.98304">
        <ele>481</ele>
        <time>2009-07-05T10:39:11Z</time>
      </trkpt>
      <trkpt lat="45.74776" lon="5.98342">
        <ele>481</ele>
        <time>2009-07-05T10:39:17Z</time>
      </trkpt>
      <trkpt lat="45.74773" lon="5.98376">
        <ele>481</ele>
        <time>2009-07-05T10:39:22Z</time>
      </trkpt>
      <trkpt lat="45.74771" lon="5.98413">
        <ele>481</ele>
        <time>2009-07-05T10:39:27Z</time>
      </trkpt>
      <trkpt lat="45.74768" lon="5.98455">
        <ele>481</ele>
        <time>2009-07-05T10:39:33Z</time>
      </trkpt>
      <trkpt lat="45.74766" lon="5.98493">
        <ele>484</ele>
        <time>2009-07-05T10:39:39Z</time>
      </trkpt>
      <trkpt lat="45.74763" lon="5.98527">
        <ele>485</ele>
        <time>2009-07-05T10:39:44Z</time>
      </trkpt>
      <trkpt lat="45.74761" lon="5.9856">
        <ele>485</ele>
        <time>2009-07-05T10:39:49Z</time>
      </trkpt>
      <trkpt lat="45.74759" lon="5.98588">
        <ele>485</ele>
        <time>2009-07-05T10:39:54Z</time>
      </trkpt>
      <trkpt lat="45.74756" lon="5.98617">
        <ele>485</ele>
        <time>2009-07-05T10:40:00Z</time>
      </trkpt>
      <trkpt lat="45.74753" lon="5.98637">
        <ele>485</ele>
        <time>2009-07-05T10:40:06Z</time>
      </trkpt>
      <trkpt lat="45.74754" lon="5.98658">
        <ele>485</ele>
        <time>2009-07-05T10:40:12Z</time>
      </trkpt>
      <trkpt lat="45.74757" lon="5.98674">
        <ele>485</ele>
        <time>2009-07-05T10:40:17Z</time>
      </trkpt>
      <trkpt lat="45.74761" lon="5.98682">
        <ele>485</ele>
        <time>2009-07-05T10:40:22Z</time>
      </trkpt>
      <trkpt lat="45.74763" lon="5.98681">
        <ele>484</ele>
        <time>2009-07-05T10:40:32Z</time>
      </trkpt>
      <trkpt lat="45.74762" lon="5.98682">
        <ele>482</ele>
        <time>2009-07-05T10:42:37Z</time>
      </trkpt>
      <trkpt lat="45.74763" lon="5.98683">
        <ele>481</ele>
        <time>2009-07-05T10:44:15Z</time>
      </trkpt>
      <trkpt lat="45.74763" lon="5.98683">
        <ele>481</ele>
        <time>2009-07-05T10:44:24Z</time>
      </trkpt>
      <trkpt lat="45.74763" lon="5.98682">
        <ele>481</ele>
        <time>2009-07-05T10:44:32Z</time>
      </trkpt>
      <trkpt lat="45.74762" lon="5.98682">
        <ele>481</ele>
        <time>2009-07-05T10:44:37Z</time>
      </trkpt>
      <trkpt lat="45.74761" lon="5.98684">
        <ele>481</ele>
        <time>2009-07-05T10:44:58Z</time>
      </trkpt>
      <trkpt lat="45.74761" lon="5.9868">
        <ele>481</ele>
        <time>2009-07-05T10:45:04Z</time>
      </trkpt>
      <trkpt lat="45.74759" lon="5.98677">
        <ele>481</ele>
        <time>2009-07-05T10:45:13Z</time>
      </trkpt>
      <trkpt lat="45.74759" lon="5.98673">
        <ele>481</ele>
        <time>2009-07-05T10:45:18Z</time>
      </trkpt>
      <trkpt lat="45.7476" lon="5.98672">
        <ele>481</ele>
        <time>2009-07-05T10:45:24Z</time>
      </trkpt>
      <trkpt lat="45.74765" lon="5.98671">
        <ele>481</ele>
        <time>2009-07-05T10:45:31Z</time>
      </trkpt>
      <trkpt lat="45.74767" lon="5.98668">
        <ele>481</ele>
        <time>2009-07-05T10:45:38Z</time>
      </trkpt>
      <trkpt lat="45.74767" lon="5.98669">
        <ele>481</ele>
        <time>2009-07-05T10:45:49Z</time>
      </trkpt>
      <trkpt lat="45.74767" lon="5.9867">
        <ele>481</ele>
        <time>2009-07-05T10:46:00Z</time>
      </trkpt>
      <trkpt lat="45.7477" lon="5.98668">
        <ele>482</ele>
        <time>2009-07-05T10:46:10Z</time>
      </trkpt>
      <trkpt lat="45.74769" lon="5.98669">
        <ele>482</ele>
        <time>2009-07-05T10:46:16Z</time>
      </trkpt>
      <trkpt lat="45.74771" lon="5.98669">
        <ele>482</ele>
        <time>2009-07-05T10:46:24Z</time>
      </trkpt>
      <trkpt lat="45.74772" lon="5.98667">
        <ele>482</ele>
        <time>2009-07-05T10:46:29Z</time>
      </trkpt>
      <trkpt lat="45.74774" lon="5.98665">
        <ele>483</ele>
        <time>2009-07-05T10:46:50Z</time>
      </trkpt>
      <trkpt lat="45.74773" lon="5.98666">
        <ele>483</ele>
        <time>2009-07-05T10:46:55Z</time>
      </trkpt>
      <trkpt lat="45.74772" lon="5.98666">
        <ele>483</ele>
        <time>2009-07-05T10:47:00Z</time>
      </trkpt>
      <trkpt lat="45.74771" lon="5.98666">
        <ele>484</ele>
        <time>2009-07-05T10:47:05Z</time>
      </trkpt>
      <trkpt lat="45.7477" lon="5.98668">
        <ele>484</ele>
        <time>2009-07-05T10:47:12Z</time>
      </trkpt>
      <trkpt lat="45.74771" lon="5.98668">
        <ele>482</ele>
        <time>2009-07-05T10:47:30Z</time>
      </trkpt>
      <trkpt lat="45.74768" lon="5.98669">
        <ele>479</ele>
        <time>2009-07-05T10:47:35Z</time>
      </trkpt>
      <trkpt lat="45.7477" lon="5.98668">
        <ele>478</ele>
        <time>2009-07-05T10:47:43Z</time>
      </trkpt>
      <trkpt lat="45.74769" lon="5.98666">
        <ele>478</ele>
        <time>2009-07-05T10:47:57Z</time>
      </trkpt>
      <trkpt lat="45.74767" lon="5.98668">
        <ele>478</ele>
        <time>2009-07-05T10:48:11Z</time>
      </trkpt>
      <trkpt lat="45.74768" lon="5.98666">
        <ele>478</ele>
        <time>2009-07-05T10:48:20Z</time>
      </trkpt>
      <trkpt lat="45.7477" lon="5.98665">
        <ele>481</ele>
        <time>2009-07-05T10:48:30Z</time>
      </trkpt>
      <trkpt lat="45.7477" lon="5.98667">
        <ele>481</ele>
        <time>2009-07-05T10:48:37Z</time>
      </trkpt>
      <trkpt lat="45.7477" lon="5.98665">
        <ele>481</ele>
        <time>2009-07-05T10:48:43Z</time>
      </trkpt>
      <trkpt lat="45.74771" lon="5.98662">
        <ele>481</ele>
        <time>2009-07-05T10:48:53Z</time>
      </trkpt>
      <trkpt lat="45.74771" lon="5.98659">
        <ele>481</ele>
        <time>2009-07-05T10:48:58Z</time>
      </trkpt>
      <trkpt lat="45.74769" lon="5.98664">
        <ele>481</ele>
        <time>2009-07-05T10:49:04Z</time>
      </trkpt>
      <trkpt lat="45.74766" lon="5.98666">
        <ele>481</ele>
        <time>2009-07-05T10:49:13Z</time>
      </trkpt>
      <trkpt lat="45.74767" lon="5.98666">
        <ele>481</ele>
        <time>2009-07-05T10:49:24Z</time>
      </trkpt>
      <trkpt lat="45.74769" lon="5.98665">
        <ele>481</ele>
        <time>2009-07-05T10:49:30Z</time>
      </trkpt>
      <trkpt lat="45.74771" lon="5.98666">
        <ele>481</ele>
        <time>2009-07-05T10:49:37Z</time>
      </trkpt>
      <trkpt lat="45.74772" lon="5.98661">
        <ele>481</ele>
        <time>2009-07-05T10:49:42Z</time>
      </trkpt>
      <trkpt lat="45.74775" lon="5.98648">
        <ele>481</ele>
        <time>2009-07-05T10:49:48Z</time>
      </trkpt>
      <trkpt lat="45.74779" lon="5.98638">
        <ele>481</ele>
        <time>2009-07-05T10:49:53Z</time>
      </trkpt>
      <trkpt lat="45.74782" lon="5.98633">
        <ele>481</ele>
        <time>2009-07-05T10:50:01Z</time>
      </trkpt>
      <trkpt lat="45.74781" lon="5.98631">
        <ele>484</ele>
        <time>2009-07-05T10:50:10Z</time>
      </trkpt>
      <trkpt lat="45.7478" lon="5.98628">
        <ele>485</ele>
        <time>2009-07-05T10:50:24Z</time>
      </trkpt>
      <trkpt lat="45.74782" lon="5.98627">
        <ele>485</ele>
        <time>2009-07-05T10:50:36Z</time>
      </trkpt>
      <trkpt lat="45.74781" lon="5.98629">
        <ele>485</ele>
        <time>2009-07-05T10:50:41Z</time>
      </trkpt>
      <trkpt lat="45.7478" lon="5.98628">
        <ele>485</ele>
        <time>2009-07-05T10:50:49Z</time>
      </trkpt>
      <trkpt lat="45.74779" lon="5.98629">
        <ele>485</ele>
        <time>2009-07-05T10:50:54Z</time>
      </trkpt>
      <trkpt lat="45.7478" lon="5.98629">
        <ele>485</ele>
        <time>2009-07-05T10:51:16Z</time>
      </trkpt>
      <trkpt lat="45.74781" lon="5.9863">
        <ele>485</ele>
        <time>2009-07-05T10:51:24Z</time>
      </trkpt>
      <trkpt lat="45.7478" lon="5.98631">
        <ele>485</ele>
        <time>2009-07-05T10:51:30Z</time>
      </trkpt>
      <trkpt lat="45.74783" lon="5.9863">
        <ele>490</ele>
        <time>2009-07-05T10:51:50Z</time>
      </trkpt>
      <trkpt lat="45.74781" lon="5.98631">
        <ele>490</ele>
        <time>2009-07-05T10:51:58Z</time>
      </trkpt>
      <trkpt lat="45.74779" lon="5.98633">
        <ele>490</ele>
        <time>2009-07-05T10:52:03Z</time>
      </trkpt>
      <trkpt lat="45.74777" lon="5.98632">
        <ele>486</ele>
        <time>2009-07-05T10:52:09Z</time>
      </trkpt>
      <trkpt lat="45.74774" lon="5.98635">
        <ele>483</ele>
        <time>2009-07-05T10:52:16Z</time>
      </trkpt>
      <trkpt lat="45.74772" lon="5.98641">
        <ele>483</ele>
        <time>2009-07-05T10:52:23Z</time>
      </trkpt>
      <trkpt lat="45.74773" lon="5.98638">
        <ele>483</ele>
        <time>2009-07-05T10:52:30Z</time>
      </trkpt>
      <trkpt lat="45.7477" lon="5.98637">
        <ele>483</ele>
        <time>2009-07-05T10:52:37Z</time>
      </trkpt>
      <trkpt lat="45.74772" lon="5.98633">
        <ele>484</ele>
        <time>2009-07-05T10:52:45Z</time>
      </trkpt>
      <trkpt lat="45.74772" lon="5.98633">
        <ele>488</ele>
        <time>2009-07-05T10:52:51Z</time>
      </trkpt>
      <trkpt lat="45.74771" lon="5.98635">
        <ele>488</ele>
        <time>2009-07-05T10:52:59Z</time>
      </trkpt>
      <trkpt lat="45.7477" lon="5.98633">
        <ele>488</ele>
        <time>2009-07-05T10:53:14Z</time>
      </trkpt>
      <trkpt lat="45.7477" lon="5.98632">
        <ele>488</ele>
        <time>2009-07-05T10:53:29Z</time>
      </trkpt>
      <trkpt lat="45.74769" lon="5.98631">
        <ele>488</ele>
        <time>2009-07-05T10:53:57Z</time>
      </trkpt>
      <trkpt lat="45.74769" lon="5.98629">
        <ele>489</ele>
        <time>2009-07-05T10:54:06Z</time>
      </trkpt>
      <trkpt lat="45.7477" lon="5.9863">
        <ele>489</ele>
        <time>2009-07-05T10:54:11Z</time>
      </trkpt>
      <trkpt lat="45.7477" lon="5.98635">
        <ele>489</ele>
        <time>2009-07-05T10:54:17Z</time>
      </trkpt>
      <trkpt lat="45.74775" lon="5.98634">
        <ele>489</ele>
        <time>2009-07-05T10:54:23Z</time>
      </trkpt>
      <trkpt lat="45.74777" lon="5.98632">
        <ele>489</ele>
        <time>2009-07-05T10:54:28Z</time>
      </trkpt>
      <trkpt lat="45.7478" lon="5.98631">
        <ele>489</ele>
        <time>2009-07-05T10:54:34Z</time>
      </trkpt>
      <trkpt lat="45.74779" lon="5.98628">
        <ele>489</ele>
        <time>2009-07-05T10:54:48Z</time>
      </trkpt>
      <trkpt lat="45.7478" lon="5.98626">
        <ele>493</ele>
        <time>2009-07-05T10:54:59Z</time>
      </trkpt>
      <trkpt lat="45.74782" lon="5.98623">
        <ele>496</ele>
        <time>2009-07-05T10:55:10Z</time>
      </trkpt>
      <trkpt lat="45.74783" lon="5.98625">
        <ele>496</ele>
        <time>2009-07-05T10:55:15Z</time>
      </trkpt>
      <trkpt lat="45.74781" lon="5.98622">
        <ele>489</ele>
        <time>2009-07-05T10:55:22Z</time>
      </trkpt>
      <trkpt lat="45.74779" lon="5.98619">
        <ele>489</ele>
        <time>2009-07-05T10:55:27Z</time>
      </trkpt>
      <trkpt lat="45.74775" lon="5.98619">
        <ele>489</ele>
        <time>2009-07-05T10:55:33Z</time>
      </trkpt>
    </trkseg>
  </trk>
</gpx>